[[{"header":{"parameterUnit":"m.s-1","parameterCategory":1,"la1":30.6,"la2":29.2853,"lo1":-89.7004,"lo2":-87.6739,"dy":0.0162,"dx":0.0183,"nx":112,"ny":82,"refTime":"2023-10-10T18:00:00:Z","depth":0,"parameterNumber":2,"parameterNumberName":"U-component_of_WINDS"},"data":[0.0,0.0,0.0,0.0,0.0,0.0,0.0,0.0,0.0,0.0,0.0,0.0,0.0,0.0,0.0,0.0,0.0,0.0,0.0,0.0,0.0,0.0,0.0,0.0,0.0,0.0,0.0,0.0,0.0,0.0,0.0,0.0,0.0,0.0,0.0,0.0,0.0,0.0,0.0,0.0,0.0,0.0,0.0,0.0,0.0,0.0,0.0,0.0,0.0,0.0,0.0,0.0,0.0,0.0,0.0,0.0,0.0,0.0,0.0,0.0,0.0,0.0,0.0,0.0,0.0,0.0,0.0,0.0,0.0,0.0,0.0,0.0,0.0,0.0,0.0,0.0,0.0,0.0,0.0,0.0,0.0,0.0,0.0,0.0,0.0,0.0,0.0,0.0,0.0,0.0,6.2805,6.2805,6.2805,6.2805,6.2805,6.2805,6.2805,6.2805,0.0,0.0,0.0,0.0,0.0,0.0,0.0,0.0,0.0,0.0,0.0,0.0,0.0,0.0,0.0,0.0,0.0,0.0,0.0,0.0,0.0,0.0,0.0,0.0,0.0,0.0,0.0,0.0,0.0,0.0,0.0,0.0,0.0,0.0,0.0,0.0,0.0,0.0,0.0,0.0,0.0,0.0,0.0,0.0,0.0,0.0,0.0,0.0,0.0,0.0,0.0,0.0,0.0,0.0,0.0,0.0,0.0,0.0,0.0,0.0,0.0,0.0,0.0,0.0,0.0,0.0,0.0,0.0,0.0,0.0,0.0,0.0,0.0,0.0,0.0,0.0,0.0,0.0,0.0,0.0,0.0,0.0,0.0,0.0,0.0,0.0,0.0,0.0,0.0,0.0,0.0,0.0,0.0,0.0,0.0,0.0,0.0,0.0,0.0,0.0,0.0,0.0,0.0,0.0,6.2805,6.2805,6.2805,6.2805,6.2805,6.2805,6.2805,6.2805,0.0,0.0,0.0,0.0,0.0,0.0,0.0,0.0,0.0,0.0,0.0,0.0,0.0,0.0,0.0,0.0,0.0,0.0,0.0,0.0,0.0,0.0,0.0,0.0,0.0,0.0,0.0,0.0,0.0,0.0,0.0,0.0,0.0,0.0,0.0,0.0,0.0,0.0,0.0,0.0,0.0,0.0,0.0,0.0,0.0,0.0,0.0,0.0,0.0,0.0,0.0,0.0,0.0,0.0,0.0,0.0,0.0,0.0,0.0,0.0,0.0,0.0,0.0,0.0,0.0,0.0,0.0,0.0,0.0,0.0,0.0,0.0,0.0,0.0,0.0,0.0,0.0,0.0,0.0,0.0,0.0,0.0,0.0,0.0,0.0,0.0,0.0,0.0,0.0,0.0,0.0,0.0,0.0,0.0,0.0,0.0,0.0,0.0,0.0,0.0,0.0,0.0,0.0,6.2805,6.2805,6.2805,6.2805,6.2805,6.2805,6.2805,6.2805,6.2805,6.2805,0.0,0.0,0.0,0.0,0.0,0.0,0.0,0.0,0.0,0.0,0.0,0.0,0.0,0.0,0.0,0.0,0.0,0.0,0.0,0.0,0.0,0.0,0.0,0.0,0.0,0.0,0.0,0.0,0.0,0.0,0.0,0.0,0.0,0.0,0.0,0.0,0.0,0.0,0.0,0.0,0.0,0.0,0.0,0.0,0.0,0.0,0.0,0.0,0.0,0.0,0.0,0.0,0.0,0.0,0.0,0.0,0.0,0.0,0.0,0.0,0.0,0.0,0.0,0.0,0.0,0.0,0.0,0.0,0.0,0.0,0.0,0.0,0.0,0.0,0.0,0.0,0.0,0.0,0.0,0.0,0.0,0.0,0.0,0.0,0.0,0.0,0.0,0.0,0.0,0.0,0.0,0.0,0.0,0.0,0.0,0.0,0.0,0.0,0.0,0.0,0.0,0.0,6.2805,6.2805,6.2805,6.2805,6.2805,6.2805,6.2805,6.2805,6.2805,6.2805,0.0,0.0,0.0,0.0,0.0,0.0,0.0,0.0,0.0,0.0,0.0,0.0,0.0,0.0,0.0,0.0,0.0,0.0,0.0,0.0,0.0,0.0,0.0,0.0,0.0,0.0,0.0,0.0,0.0,0.0,0.0,0.0,0.0,0.0,0.0,0.0,0.0,0.0,0.0,0.0,0.0,0.0,0.0,0.0,0.0,0.0,0.0,0.0,0.0,0.0,0.0,0.0,0.0,0.0,0.0,0.0,0.0,0.0,0.0,0.0,0.0,0.0,0.0,0.0,0.0,0.0,0.0,0.0,0.0,0.0,0.0,0.0,0.0,0.0,0.0,0.0,0.0,0.0,0.0,0.0,0.0,0.0,0.0,0.0,0.0,0.0,0.0,0.0,0.0,0.0,0.0,0.0,0.0,0.0,0.0,0.0,0.0,0.0,0.0,0.0,0.0,0.0,6.2805,6.2805,6.2805,6.2805,6.2805,6.2805,6.2805,6.2805,6.2805,6.2805,0.0,0.0,0.0,0.0,0.0,0.0,0.0,0.0,0.0,0.0,0.0,0.0,0.0,0.0,0.0,0.0,0.0,0.0,0.0,0.0,0.0,0.0,0.0,0.0,0.0,0.0,0.0,0.0,0.0,0.0,0.0,0.0,0.0,0.0,0.0,0.0,0.0,0.0,0.0,0.0,0.0,0.0,0.0,0.0,0.0,0.0,0.0,0.0,0.0,0.0,0.0,0.0,0.0,0.0,0.0,0.0,0.0,0.0,0.0,0.0,0.0,0.0,0.0,0.0,0.0,0.0,0.0,0.0,0.0,0.0,0.0,0.0,0.0,0.0,0.0,0.0,0.0,0.0,0.0,0.0,0.0,0.0,0.0,0.0,0.0,0.0,0.0,0.0,0.0,0.0,0.0,0.0,0.0,0.0,0.0,0.0,0.0,0.0,0.0,0.0,0.0,0.0,6.2805,6.2805,0.0,6.2805,6.2805,6.2805,6.2805,6.2805,6.2805,0.0,0.0,0.0,0.0,0.0,0.0,0.0,0.0,0.0,0.0,0.0,0.0,0.0,0.0,0.0,0.0,0.0,0.0,0.0,0.0,0.0,0.0,0.0,0.0,0.0,0.0,0.0,0.0,0.0,0.0,0.0,0.0,0.0,0.0,0.0,0.0,0.0,0.0,0.0,0.0,0.0,0.0,0.0,0.0,0.0,0.0,0.0,0.0,0.0,0.0,0.0,0.0,0.0,0.0,0.0,0.0,0.0,0.0,0.0,0.0,0.0,0.0,0.0,0.0,0.0,0.0,0.0,0.0,0.0,0.0,0.0,0.0,0.0,0.0,0.0,0.0,0.0,0.0,0.0,0.0,0.0,0.0,0.0,0.0,0.0,0.0,0.0,0.0,0.0,0.0,0.0,0.0,0.0,0.0,0.0,0.0,0.0,0.0,0.0,0.0,0.0,0.0,6.2805,6.2805,6.2805,0.0,6.2805,6.2805,6.2805,6.2805,6.2805,6.2805,0.0,0.0,0.0,0.0,0.0,0.0,0.0,0.0,0.0,0.0,0.0,0.0,0.0,0.0,0.0,0.0,0.0,0.0,0.0,0.0,0.0,0.0,0.0,0.0,0.0,0.0,0.0,0.0,0.0,0.0,0.0,0.0,0.0,0.0,0.0,0.0,0.0,0.0,0.0,0.0,0.0,0.0,0.0,0.0,0.0,0.0,0.0,0.0,0.0,0.0,0.0,0.0,0.0,0.0,0.0,0.0,0.0,0.0,0.0,0.0,0.0,0.0,0.0,0.0,0.0,0.0,0.0,0.0,0.0,0.0,0.0,0.0,0.0,0.0,0.0,0.0,0.0,0.0,0.0,0.0,0.0,0.0,0.0,0.0,0.0,0.0,0.0,0.0,0.0,0.0,0.0,0.0,0.0,0.0,0.0,0.0,0.0,0.0,0.0,0.0,0.0,0.0,6.2805,6.2805,6.2842,6.2842,6.2842,6.2842,6.2842,6.2842,6.2842,0.0,0.0,0.0,0.0,0.0,0.0,0.0,0.0,0.0,0.0,0.0,0.0,0.0,0.0,0.0,0.0,0.0,0.0,0.0,0.0,0.0,0.0,0.0,0.0,0.0,0.0,0.0,0.0,0.0,0.0,0.0,0.0,0.0,0.0,0.0,0.0,0.0,0.0,0.0,0.0,0.0,0.0,0.0,0.0,0.0,0.0,0.0,0.0,0.0,0.0,0.0,0.0,0.0,0.0,0.0,0.0,0.0,0.0,0.0,0.0,0.0,0.0,0.0,0.0,0.0,0.0,0.0,0.0,0.0,0.0,0.0,0.0,0.0,0.0,0.0,0.0,0.0,0.0,0.0,0.0,0.0,0.0,0.0,0.0,0.0,0.0,0.0,0.0,0.0,0.0,0.0,0.0,0.0,0.0,0.0,0.0,0.0,0.0,0.0,0.0,0.0,0.0,0.0,6.3649,6.3723,6.3943,6.4494,6.4567,6.4567,6.4567,6.4567,6.4567,6.4567,0.0,0.0,0.0,0.0,0.0,0.0,0.0,0.0,0.0,0.0,0.0,0.0,0.0,0.0,0.0,0.0,0.0,0.0,0.0,0.0,0.0,0.0,0.0,0.0,0.0,0.0,0.0,0.0,0.0,0.0,0.0,0.0,0.0,0.0,0.0,0.0,0.0,0.0,0.0,0.0,0.0,0.0,0.0,0.0,0.0,0.0,0.0,0.0,0.0,0.0,0.0,0.0,0.0,0.0,0.0,0.0,0.0,0.0,0.0,0.0,0.0,0.0,0.0,0.0,0.0,0.0,0.0,0.0,0.0,0.0,0.0,0.0,0.0,0.0,0.0,0.0,0.0,0.0,0.0,0.0,0.0,0.0,0.0,0.0,0.0,0.0,0.0,0.0,0.0,0.0,0.0,0.0,0.0,0.0,0.0,0.0,0.0,0.0,0.0,0.0,0.0,0.0,6.4457,6.4567,6.4751,6.5264,6.5301,6.5301,6.5301,6.5301,6.5367,6.5632,0.0,0.0,0.0,0.0,0.0,0.0,0.0,0.0,0.0,0.0,0.0,0.0,0.0,0.0,0.0,0.0,0.0,0.0,0.0,0.0,0.0,0.0,0.0,0.0,0.0,0.0,0.0,0.0,0.0,0.0,0.0,0.0,0.0,0.0,0.0,0.0,0.0,0.0,0.0,0.0,0.0,0.0,0.0,0.0,0.0,0.0,0.0,0.0,0.0,0.0,0.0,0.0,0.0,0.0,0.0,0.0,0.0,0.0,0.0,0.0,0.0,0.0,0.0,0.0,0.0,0.0,0.0,0.0,0.0,0.0,0.0,0.0,0.0,0.0,0.0,0.0,0.0,0.0,0.0,0.0,0.0,0.0,0.0,0.0,0.0,0.0,0.0,0.0,0.0,0.0,0.0,0.0,0.0,0.0,0.0,0.0,0.0,0.0,0.0,0.0,0.0,0.0,6.5301,6.5411,6.5448,6.5521,6.5573,6.5625,6.5625,6.5639,6.5866,6.6366,0.0,0.0,0.0,0.0,0.0,0.0,0.0,0.0,0.0,0.0,0.0,0.0,0.0,0.0,0.0,0.0,0.0,0.0,0.0,0.0,0.0,0.0,0.0,0.0,0.0,0.0,0.0,0.0,0.0,0.0,0.0,0.0,0.0,0.0,0.0,0.0,0.0,0.0,0.0,0.0,0.0,0.0,0.0,0.0,0.0,0.0,0.0,0.0,0.0,0.0,0.0,0.0,0.0,0.0,0.0,0.0,0.0,0.0,0.0,0.0,6.1983,0.0,0.0,0.0,0.0,0.0,0.0,0.0,0.0,0.0,0.0,0.0,0.0,0.0,0.0,0.0,0.0,0.0,0.0,0.0,0.0,0.0,0.0,0.0,0.0,0.0,0.0,0.0,0.0,0.0,0.0,0.0,0.0,0.0,0.0,0.0,0.0,0.0,0.0,0.0,0.0,0.0,6.6145,6.6256,6.6476,6.71,6.758,6.7837,6.7837,6.8182,6.8495,6.8621,6.902,0.0,0.0,0.0,0.0,0.0,0.0,0.0,0.0,0.0,0.0,0.0,0.0,0.0,0.0,0.0,0.0,0.0,0.0,0.0,0.0,0.0,0.0,0.0,0.0,0.0,0.0,0.0,0.0,0.0,0.0,0.0,0.0,0.0,0.0,0.0,0.0,0.0,0.0,0.0,0.0,0.0,0.0,0.0,0.0,0.0,0.0,0.0,0.0,0.0,0.0,0.0,0.0,0.0,0.0,0.0,0.0,0.0,0.0,0.0,0.0,6.286,0.0,0.0,0.0,0.0,0.0,0.0,0.0,0.0,0.0,0.0,0.0,0.0,0.0,0.0,0.0,0.0,0.0,0.0,0.0,0.0,0.0,0.0,0.0,0.0,0.0,0.0,0.0,0.0,0.0,0.0,0.0,0.0,0.0,0.0,0.0,0.0,0.0,0.0,0.0,0.0,6.6953,6.7063,6.7369,6.801,6.832,6.8614,6.8847,6.9148,6.9433,6.9664,6.9957,0.0,0.0,0.0,0.0,0.0,0.0,0.0,0.0,0.0,0.0,0.0,0.0,0.0,0.0,0.0,0.0,0.0,0.0,0.0,0.0,0.0,0.0,0.0,0.0,0.0,0.0,0.0,0.0,0.0,0.0,0.0,0.0,0.0,0.0,0.0,0.0,0.0,0.0,0.0,0.0,0.0,0.0,0.0,0.0,0.0,0.0,0.0,0.0,0.0,0.0,0.0,0.0,0.0,6.3565,6.3979,6.4664,6.4664,6.4871,6.523,6.4837,6.4837,6.5067,0.0,0.0,0.0,0.0,0.0,0.0,0.0,0.0,0.0,0.0,0.0,0.0,0.0,0.0,0.0,0.0,0.0,0.0,0.0,0.0,0.0,0.0,0.0,0.0,0.0,6.386,6.4254,0.0,0.0,0.0,0.0,0.0,0.0,0.0,0.0,0.0,0.0,0.0,0.0,6.7736,6.7863,6.8047,6.8567,6.875,6.8935,6.9393,6.9511,6.9775,7.0195,7.0266,7.0463,0.0,0.0,0.0,0.0,0.0,0.0,0.0,0.0,0.0,0.0,0.0,0.0,0.0,0.0,0.0,0.0,0.0,0.0,0.0,0.0,0.0,0.0,0.0,0.0,0.0,0.0,0.0,0.0,0.0,0.0,0.0,0.0,5.4363,5.517,0.0,0.0,0.0,0.0,0.0,0.0,0.0,0.0,0.0,0.0,0.0,0.0,0.0,6.2069,6.2935,6.3427,6.4045,6.4845,6.5322,6.5575,6.569,6.569,6.5755,6.5781,6.5755,0.0,6.5099,6.5035,0.0,0.0,0.0,0.0,0.0,0.0,0.0,0.0,0.0,0.0,0.0,0.0,0.0,0.0,0.0,0.0,0.0,0.0,0.0,0.0,0.0,0.0,6.5561,6.5087,6.5386,6.5775,0.0,6.5374,6.5118,6.5007,0.0,0.0,0.0,0.0,0.0,0.0,0.0,0.0,6.832,6.8368,6.8567,6.9148,6.9626,6.9918,6.9992,7.0432,7.0719,7.0777,7.0777,7.0843,7.0898,7.0463,0.0,0.0,0.0,0.0,0.0,0.0,0.0,0.0,0.0,0.0,0.0,0.0,0.0,0.0,0.0,0.0,0.0,0.0,0.0,0.0,0.0,0.0,0.0,0.0,0.0,0.0,0.0,0.0,0.0,5.4583,5.5207,5.5537,5.5574,5.5757,0.0,0.0,0.0,0.0,0.0,0.0,0.0,0.0,0.0,6.2976,6.3047,6.3562,6.4657,6.491,6.5224,6.5542,6.5781,6.5897,6.5897,6.5897,6.5897,6.5897,6.5897,6.5781,6.5542,6.5542,6.5417,6.523,0.0,0.0,0.0,0.0,6.4765,6.4731,6.4481,6.437,0.0,0.0,0.0,0.0,0.0,0.0,0.0,0.0,0.0,0.0,0.0,0.0,0.0,6.6275,6.6743,6.7128,6.6851,6.7187,6.717,0.0,6.6445,6.6975,6.6565,0.0,0.0,0.0,0.0,6.9415,6.9648,7.0067,7.0545,7.1105,7.1363,7.1608,7.1981,7.2237,7.236,7.236,7.236,7.2129,7.1629,7.141,7.1151,0.0,0.0,0.0,0.0,0.0,0.0,0.0,0.0,0.0,0.0,0.0,0.0,0.0,0.0,0.0,0.0,0.0,0.0,0.0,0.0,0.0,0.0,0.0,0.0,0.0,0.0,0.0,0.0,5.5631,5.6116,5.6206,5.6614,5.7112,0.0,0.0,0.0,0.0,0.0,0.0,6.2394,6.2394,6.3047,6.4364,6.4403,6.489,6.5897,6.5897,6.5897,6.5897,6.5897,6.5897,6.5897,6.5897,6.5897,6.5897,6.5897,6.6013,6.6205,6.5974,6.5897,6.5897,6.5897,6.5897,6.5872,6.5676,6.5597,6.5605,6.5475,6.5448,6.5448,6.5448,0.0,6.6104,6.6104,0.0,0.0,0.0,0.0,6.7316,6.6921,6.7273,6.7657,6.7542,6.8111,6.8488,6.8119,6.8967,6.9199,0.0,6.7792,6.8455,6.7679,0.0,0.0,0.0,0.0,7.0942,7.1062,7.1632,7.2206,7.275,7.2855,7.299,7.3447,7.3514,7.3514,7.3514,7.3514,7.3206,7.2552,7.2514,7.2245,7.1591,0.0,0.0,0.0,0.0,0.0,0.0,0.0,0.0,0.0,0.0,0.0,0.0,0.0,0.0,0.0,0.0,0.0,0.0,0.0,0.0,0.0,0.0,0.0,0.0,0.0,0.0,0.0,0.0,0.0,5.7867,5.9393,0.0,0.0,0.0,0.0,6.1804,6.1842,6.2432,6.3733,6.3802,6.4403,6.5756,6.5795,6.5859,6.5897,6.5897,6.5897,6.5897,6.5897,6.5897,6.5897,6.5897,6.5897,6.5897,6.5897,6.632,6.6974,6.6205,6.5897,6.5897,6.5897,6.5897,6.5974,6.6718,6.6987,6.7102,6.7922,6.8191,6.8191,6.8191,6.7889,6.7502,6.7502,6.7233,0.0,0.0,6.8117,6.8798,6.8693,6.9298,6.9804,6.9319,6.9625,6.9985,6.995,7.0671,7.0725,0.0,6.8853,6.9498,7.0252,0.0,7.0788,7.1501,7.1694,7.1935,7.2427,7.2536,7.2821,7.3389,7.3447,7.3486,7.3514,7.3514,7.3514,7.3514,7.3514,7.3476,7.3437,7.3437,7.3399,7.336,7.2552,0.0,0.0,0.0,0.0,0.0,0.0,0.0,0.0,0.0,0.0,0.0,0.0,0.0,0.0,0.0,0.0,0.0,0.0,0.0,0.0,0.0,0.0,0.0,0.0,0.0,0.0,0.0,0.0,6.0372,6.0786,0.0,6.1206,6.207,6.2851,6.3161,6.3688,6.4305,6.5137,6.5175,6.5409,6.5897,6.5897,6.5897,6.5897,6.5897,6.6167,6.6667,6.6667,6.6974,6.7513,6.7513,6.7513,6.7513,6.7513,6.7667,6.7898,6.7628,6.7513,6.7513,6.7513,6.7513,6.7552,6.7821,6.7936,6.7975,6.8282,6.8398,6.8513,6.9052,6.9124,6.905,6.9548,6.9613,6.9451,6.9284,6.9674,7.0103,6.9704,7.0554,7.1398,7.1204,7.1758,7.2172,7.1765,7.2275,7.2422,7.1371,7.1295,7.1409,7.1398,7.1975,7.241,7.2318,7.3105,7.3724,7.3929,7.442,7.4866,7.5062,7.513,7.513,7.513,7.513,7.513,7.513,7.513,7.4861,7.4322,7.4284,7.4053,7.3514,7.3206,7.3053,0.0,0.0,0.0,0.0,0.0,0.0,0.0,0.0,0.0,0.0,0.0,0.0,0.0,0.0,0.0,0.0,0.0,0.0,0.0,0.0,0.0,0.0,0.0,0.0,0.0,0.0,6.1055,6.184,6.2142,6.2402,6.2576,6.347,6.4197,6.4547,6.5044,6.5542,6.5897,6.5897,6.6013,6.6282,6.6282,6.6436,6.6744,6.6744,6.7013,6.7552,6.7552,6.7859,6.8398,6.8398,6.8398,6.8398,6.8398,6.859,6.8859,6.8859,6.9013,6.9206,6.8629,6.8398,6.8436,6.8744,6.8859,6.8898,6.9167,6.9244,6.936,6.9937,7.009,7.0244,7.1091,7.1321,7.1304,7.1229,7.1505,7.1689,7.1344,7.1957,7.2629,7.2629,7.3091,7.3389,7.299,7.3453,7.3774,7.3412,7.3079,7.2864,7.2773,7.3412,7.3889,7.3756,7.4559,7.513,7.513,7.563,7.6015,7.6015,7.6015,7.6015,7.6015,7.6284,7.6322,7.6015,7.6284,7.6053,7.5168,7.513,7.4899,7.4361,7.4053,7.3783,7.3514,0.0,0.0,0.0,0.0,0.0,0.0,0.0,0.0,0.0,0.0,0.0,0.0,0.0,0.0,0.0,0.0,0.0,0.0,0.0,0.0,0.0,0.0,0.0,6.206,6.2363,6.2497,6.206,6.3541,6.4461,6.4008,6.5137,6.5897,6.5897,6.5897,6.5897,6.5936,6.5936,6.632,6.7128,6.7128,6.7552,6.8398,6.8436,6.8475,6.8475,6.8513,6.8552,6.8552,6.8552,6.8552,6.8552,6.8552,6.9052,6.9821,6.9821,7.0283,7.0821,6.9129,6.8475,6.859,6.9436,6.9744,6.9898,7.0667,7.0975,7.0975,7.0975,7.0975,7.1129,7.1975,7.2245,7.2399,7.3283,7.3514,7.3514,7.3514,7.3514,7.3553,7.3553,7.3553,7.3591,7.3591,7.4207,7.4745,7.4745,7.413,7.386,7.463,7.4745,7.5053,7.5899,7.6053,0.0,7.6053,7.6092,7.6092,7.6092,7.6092,7.6092,7.6092,7.6861,7.6976,7.613,7.6861,7.6938,7.6092,7.6053,7.6015,7.6015,7.5168,7.4361,7.3553,0.0,0.0,0.0,0.0,0.0,0.0,0.0,0.0,0.0,0.0,0.0,0.0,0.0,0.0,0.0,0.0,0.0,0.0,0.0,0.0,0.0,0.0,6.3497,6.3372,6.3397,6.3787,6.468,6.4891,6.5073,6.5317,6.5692,6.5897,6.5897,6.5897,6.6128,6.6744,6.6782,6.7167,6.8013,6.8052,6.8167,6.8398,6.9052,6.9629,7.0206,7.086,7.1475,7.2091,7.2091,7.2091,7.2091,7.2091,7.2245,7.2476,7.2476,7.2591,7.2629,7.0898,7.0206,7.0244,7.0475,7.0975,7.1552,7.1783,7.2245,7.2783,7.2783,7.2783,7.2822,7.3091,7.3129,7.3206,7.3437,7.3514,7.3514,7.3514,7.3937,7.4361,7.4361,7.4861,7.5322,7.5322,7.5476,7.563,7.563,7.5976,7.613,7.5707,7.563,7.5938,7.6823,7.6938,0.0,7.7746,7.7823,7.7823,7.7823,7.7823,7.7823,7.7823,7.8015,7.8054,7.7823,7.8015,7.7784,7.6976,7.6938,7.663,7.6015,7.5745,7.5207,0.0,0.0,0.0,0.0,0.0,0.0,0.0,0.0,0.0,0.0,0.0,0.0,0.0,0.0,0.0,0.0,0.0,0.0,0.0,0.0,0.0,0.0,6.4374,6.4719,6.4719,6.4719,6.4967,6.5795,6.5597,6.5569,6.5872,6.6205,6.6397,6.6397,6.6744,6.7167,6.7628,6.7628,6.8205,6.9398,6.9436,6.9821,7.0552,7.1052,7.1514,7.2014,7.2514,7.3014,7.3514,7.3514,7.3514,0.0,7.3514,7.3514,7.3514,7.3514,7.3514,0.0,0.0,0.0,0.0,0.0,7.2322,7.2745,7.2745,7.3091,7.3514,7.3514,7.3514,7.3553,7.3899,7.4014,7.4091,7.4437,7.4553,7.4553,7.4553,7.4899,7.5245,7.5245,7.5899,7.6553,7.6553,7.6823,7.7053,7.7053,0.0,0.0,7.713,7.7053,7.7207,7.7707,7.7784,7.7977,7.8438,7.8477,7.8477,7.8477,7.8477,7.8477,7.8477,7.8823,0.0,0.0,0.0,7.8669,7.7823,7.7784,0.0,0.0,0.0,7.613,7.5245,0.0,0.0,0.0,7.3591,7.2924,0.0,0.0,0.0,0.0,0.0,0.0,0.0,0.0,0.0,0.0,0.0,0.0,0.0,0.0,0.0,0.0,6.5542,6.5897,6.5897,6.5974,6.6013,6.5897,6.5974,6.6051,6.6051,6.6782,6.7244,6.7244,6.7975,6.8475,6.8667,0.0,0.0,0.0,0.0,7.1937,7.3476,7.3591,7.363,7.363,7.3822,7.3937,7.3937,7.4014,7.4053,7.4053,7.4053,7.4053,7.4053,7.4053,7.4053,7.4053,7.3668,7.3514,7.3514,7.3514,7.3553,0.0,7.363,0.0,0.0,7.3783,7.3783,7.3937,7.463,7.4861,7.5014,7.5899,7.613,7.6169,7.6245,7.6284,7.6284,7.6284,7.6861,7.7438,7.7438,7.7977,7.8477,7.8477,7.8592,7.8631,7.8631,7.8554,7.8515,7.8631,7.8631,7.8669,7.8784,7.8784,7.8784,7.8784,0.0,0.0,7.8784,7.9515,7.9631,7.8823,7.9438,7.9438,7.8669,7.8554,7.8169,7.7438,7.7438,7.7053,7.6284,7.6284,7.6245,7.6092,7.4514,7.3492,0.0,0.0,0.0,0.0,0.0,0.0,0.0,0.0,0.0,0.0,0.0,0.0,0.0,0.0,0.0,6.5061,6.5542,6.5897,6.5897,6.6436,6.6628,6.5974,6.6474,6.6859,6.6859,6.7628,6.8167,6.8167,6.8321,6.9013,7.036,7.0437,0.0,7.2937,7.3014,7.3168,7.3514,7.413,7.4476,7.4476,0.0,0.0,7.6592,7.7246,7.7515,7.7515,7.7515,7.7515,7.7515,7.7515,7.7515,7.7246,7.4553,7.3514,7.3514,7.3514,7.3899,7.4476,7.4476,7.4938,7.5515,7.5515,7.5515,7.5553,7.5707,7.5745,0.0,7.6784,7.7053,7.7207,7.7861,7.8015,7.8015,7.8015,7.813,7.8246,7.8246,7.84,7.8477,7.8477,7.9054,7.9554,7.9554,7.8977,7.8746,7.9438,7.9554,7.9785,8.0516,8.0592,8.0592,8.0592,8.0592,8.0592,8.0592,8.0746,8.0785,8.0592,8.0092,7.9708,7.9554,7.8861,7.8438,7.8246,7.8246,7.8169,7.8015,7.8015,7.7669,7.7015,7.5976,7.5447,0.0,0.0,0.0,0.0,0.0,0.0,0.0,0.0,0.0,0.0,0.0,6.4731,0.0,0.0,6.5513,6.5513,6.5717,6.6051,6.6436,6.6859,6.6936,6.6551,6.7244,6.7744,6.7744,6.8552,6.9206,6.9629,7.0052,7.086,7.2129,7.2206,7.2783,7.4053,7.4091,7.4514,7.5399,7.5784,7.6207,7.6592,7.7476,7.79,7.79,7.8323,7.8477,7.8477,7.8477,7.8477,7.8477,7.8477,7.8477,7.8323,7.6669,7.6015,7.6015,7.6015,7.6245,7.6553,7.613,7.6553,7.7169,7.6784,7.6899,7.7246,7.7246,7.7246,7.7323,7.7784,7.79,7.7977,7.84,7.8477,7.8477,7.8477,7.8823,7.9131,7.9131,7.9477,7.9785,7.9785,8.0131,8.0439,8.0439,8.0092,7.9939,8.04,8.0439,8.0592,8.1054,8.1093,8.1093,8.1093,8.1093,8.1093,8.1093,8.1093,8.1093,8.1093,8.0708,8.0439,8.0439,8.0015,7.9592,7.9169,7.9131,7.8938,7.8477,7.8477,7.8284,7.79,7.7438,7.6784,0.0,0.0,0.0,0.0,0.0,0.0,0.0,0.0,6.4803,6.5199,6.5261,6.5261,6.5261,6.5597,6.5936,6.609,6.6128,6.6397,6.7244,6.7513,6.759,6.759,6.8244,6.8706,6.8859,6.9667,7.0514,7.136,7.2052,7.2822,7.3707,7.3745,7.4207,7.5168,7.5207,7.5938,7.7515,7.7515,7.7861,7.8477,7.8669,7.8746,7.8746,7.8938,7.9015,7.9015,7.9015,7.9015,7.9015,7.9015,7.9015,7.9015,7.9015,7.9015,7.8938,7.8631,7.8477,7.84,7.7746,7.7938,7.84,7.7746,7.7977,7.8477,7.8477,7.8477,7.8515,7.8707,7.8746,7.8784,7.8938,7.9015,7.9015,7.9015,7.9554,8.0054,8.0054,8.0592,8.1093,8.1093,8.1093,8.1093,8.1093,8.1093,8.1093,8.1093,8.1093,8.1093,8.1093,8.1093,8.1093,8.1093,8.1093,8.1093,8.1093,8.1093,8.1093,8.1093,8.1093,8.1093,8.1093,8.1093,8.0785,8.0092,8.0054,7.9708,7.9015,7.9015,7.89,7.8746,7.8746,7.7938,6.4193,6.4898,6.5486,6.5563,6.5601,6.564,0.0,0.0,6.5755,6.5808,6.5808,6.5808,6.5808,6.5872,6.6128,6.6859,6.6974,6.7282,6.8129,6.8936,6.9398,6.9398,6.9513,6.986,7.0552,7.1398,7.2283,7.3129,7.3322,7.3707,7.4514,7.4591,7.5322,7.6938,7.7015,7.7438,7.8361,7.8361,7.84,7.8515,7.9285,7.9669,7.9669,8.0477,8.0823,8.0823,8.0823,8.0823,8.0823,8.0823,8.0823,8.0823,8.0823,8.0823,8.0631,7.9054,7.8477,7.8477,7.84,7.84,7.8477,7.84,7.8438,7.8477,7.8477,7.8477,7.8669,7.9438,7.9669,7.9823,8.0592,8.0823,8.0823,8.0823,8.0862,8.0939,8.0939,8.1016,8.1093,8.1093,8.1093,8.1093,8.1093,8.1093,8.1093,8.1093,8.1093,8.1093,8.1093,8.1093,8.1093,8.1093,8.1093,8.1093,8.1093,8.1093,8.1093,8.1093,8.1093,8.1093,8.1093,8.1093,8.1054,8.0977,8.0939,8.09,8.0823,8.0823,8.04,7.9669,7.9669,7.9131,6.5243,6.5628,6.5897,6.5897,6.5897,6.5897,6.5897,6.5897,6.5897,6.5897,6.5897,6.5897,6.5897,6.6282,6.6705,0.0,6.7513,6.8167,6.9052,6.986,7.0591,7.1091,7.1591,7.186,7.1668,7.2437,7.3283,7.413,7.4207,7.4784,7.613,7.6207,7.6746,7.7938,7.7977,7.84,7.9246,7.9246,7.9515,8.0015,8.04,8.0554,8.0554,8.0939,8.1093,8.1093,8.1093,8.1093,8.1093,8.1093,8.1093,8.1093,8.1093,8.1093,8.1016,8.0285,8.0015,7.9939,7.9438,7.9592,7.9939,7.94,7.9592,8.0015,8.0015,8.0015,8.0092,8.0439,8.0554,8.0631,8.1016,8.1093,8.1093,8.1093,8.1093,8.1093,8.1093,8.1093,8.1093,8.1093,8.1093,8.1093,8.1093,8.1093,8.1093,8.1093,8.1093,8.1093,8.1093,8.1093,8.1093,8.1093,8.1093,8.1093,8.1093,8.1093,8.1093,8.1093,8.1093,8.1093,8.1093,8.1093,8.1093,8.1093,8.1093,8.1093,8.1093,8.1093,8.09,8.0554,8.0554,8.0362,6.5897,6.5897,6.5897,6.5897,6.5897,6.5897,6.5897,6.5897,6.5897,6.5897,6.5897,6.5974,6.6205,6.6705,6.7244,6.7744,6.8359,6.9129,7.0244,7.0898,7.1591,7.2437,7.3322,7.3591,7.2937,7.3476,7.4168,7.5014,7.5284,7.5976,7.7207,7.7515,7.8015,7.8823,7.8861,7.9285,8.0169,8.0169,8.0477,8.1093,8.1093,8.1093,8.1093,8.1093,8.1093,8.1093,8.1093,8.1093,8.1093,8.1093,8.1093,8.1093,8.1093,8.1093,8.1093,8.1093,8.1093,8.1016,8.04,8.0554,8.1016,8.0362,8.0592,8.1093,8.1093,8.1093,8.1093,8.1093,8.1093,8.1093,8.1093,8.1093,8.1093,8.1093,8.1093,8.1093,8.1093,8.1093,8.1093,8.1093,8.1093,8.1093,8.1093,8.1093,8.117,8.14,8.1439,8.1362,8.1131,8.1093,8.1093,8.1093,8.1093,8.1093,8.1093,8.1093,8.1093,8.1093,8.1093,8.1093,8.1093,8.1093,8.1093,8.1093,8.1093,8.1093,8.1093,8.1093,8.1093,8.1093,8.1093,8.1093,6.5897,6.5897,6.5897,6.5897,6.5897,6.5897,6.5897,6.5897,6.5897,6.5897,6.5897,6.6128,6.6898,6.709,6.7628,6.936,6.9629,7.0244,7.1898,7.2129,7.2476,7.336,7.4168,7.4668,0.0,7.4668,7.5014,7.5899,7.6746,7.7246,7.7284,7.8015,7.8861,7.9746,7.9746,8.0169,8.1054,8.1054,8.1054,8.1093,8.1093,8.1093,8.1093,8.1093,8.1093,8.1093,8.1093,8.1093,8.1093,8.1093,8.1093,8.1093,8.1093,8.1093,8.1093,8.1093,8.1093,8.1093,8.1054,8.1093,8.1093,8.1054,8.1093,8.1093,8.1093,8.1093,8.1093,8.1093,8.1093,8.1093,8.1093,8.1093,8.1093,8.1093,8.1093,8.1093,8.1093,8.1093,8.1093,8.1093,8.1093,8.1093,8.1093,8.1093,8.1362,8.2131,8.2247,8.1977,8.1208,8.1093,8.1093,8.1093,8.1093,8.1093,8.1093,8.1093,8.1093,8.1093,8.1093,8.1093,8.1093,8.1093,8.1093,8.1093,8.1093,8.1093,8.1093,8.1093,8.1093,8.1093,8.1093,8.1093,6.5897,6.5897,6.5897,6.5897,6.5897,6.5897,6.5897,6.5897,6.5897,6.5897,6.5897,6.6128,6.6936,6.7552,6.8359,6.9513,7.0167,7.0898,7.2052,7.2706,7.336,7.4207,7.5053,0.0,0.0,0.0,0.0,7.6823,7.763,7.8361,7.8938,7.9208,7.9746,8.0631,8.0669,8.0785,8.1093,8.1093,8.1093,8.1093,8.1093,8.1093,8.1093,8.1093,8.1093,8.1093,8.1093,8.1093,8.1093,8.1093,8.1093,8.1093,8.1093,8.1093,8.1093,8.1093,8.1093,8.1093,8.1093,8.1093,8.1093,8.1093,8.1093,8.1093,8.1093,8.1093,8.1093,8.1093,8.1093,8.1093,8.1093,8.1093,8.1093,8.1093,8.1093,8.1093,8.1093,8.1516,8.19,8.19,8.2362,8.2747,8.2747,8.2747,8.2862,8.3131,8.317,8.3054,8.2785,8.2747,8.2747,8.2747,8.2747,8.2747,8.2747,8.2747,8.2747,8.2747,8.2747,8.2516,8.19,8.19,8.1631,8.1093,8.1093,8.1093,8.1093,8.1093,8.1093,8.1093,8.1093,8.1093,6.5897,6.5897,6.5897,6.5897,6.5897,6.5897,6.5897,6.5897,6.5897,6.5897,6.5897,6.6244,6.7359,6.8013,6.8783,6.9937,7.0821,7.1668,7.2552,7.3399,7.4245,7.5091,7.5938,7.6669,0.0,0.0,0.0,7.7746,7.8515,7.9208,7.9785,8.0092,8.0516,8.1093,8.1093,8.1093,8.1093,8.1093,8.1093,8.1093,8.1093,8.1093,8.1093,8.1093,8.1246,8.1516,8.1516,8.1708,8.1977,8.1977,8.1977,8.1977,8.1977,8.1977,8.1977,8.1977,8.1977,8.19,8.1323,8.1093,8.1093,8.1093,8.1093,8.1093,8.1093,8.1093,8.117,8.1439,8.1516,8.1593,8.19,8.1977,8.1977,8.1977,8.1977,8.1977,8.1977,8.2401,8.2747,8.2747,8.3208,8.3593,8.3593,8.3862,8.4055,8.4055,8.4324,8.4286,8.367,8.3593,8.3593,8.3593,8.3593,8.3593,8.3593,8.3593,8.3593,8.3593,8.3593,8.3362,8.2785,8.2747,8.2516,8.2016,8.1977,8.1977,8.1977,8.167,8.1516,8.1516,8.1246,8.1093,6.5936,6.5974,6.5974,6.6013,6.6013,6.6013,6.5974,6.5974,6.5936,6.5897,6.5897,6.6397,0.0,0.0,6.8936,7.0629,7.1629,7.2514,7.3399,7.4245,7.5091,0.0,0.0,0.0,0.0,0.0,0.0,7.8669,0.0,7.9862,7.9862,8.0669,8.1093,8.1093,8.1093,8.1093,8.1093,8.1093,8.1131,8.117,8.117,8.117,8.1246,8.1246,8.1631,8.2362,8.2362,8.2824,8.3593,8.3593,8.3593,8.3593,8.3593,8.3593,8.3593,8.3593,8.3593,8.3362,8.1785,8.1246,8.1246,8.1246,8.1246,8.1246,8.1246,8.1246,8.14,8.2131,8.2362,8.2554,8.3401,8.3593,8.3593,8.3593,8.3593,8.3593,8.3593,8.3632,8.367,8.367,8.3708,8.3708,8.3708,8.4401,8.4978,8.4978,8.5632,8.5517,8.3939,8.3708,8.3708,8.3708,8.3708,8.3708,8.3708,8.3708,8.3708,8.3708,8.3708,8.3708,8.367,8.367,8.3632,8.3593,8.3593,8.3593,8.3593,8.2747,8.2362,8.2362,8.1593,8.1246,6.6628,6.6782,6.6936,6.759,6.7782,6.759,6.6936,6.6782,6.6628,6.6013,6.5897,6.6397,6.809,0.0,0.0,7.0629,7.1629,0.0,7.3399,7.4745,0.0,7.6861,0.0,7.8438,7.9092,7.9554,0.0,0.0,8.0631,8.0785,8.0785,8.0977,8.1093,8.1093,8.1093,8.1093,8.1093,8.1093,8.14,8.1977,8.1977,8.2324,8.2939,8.2939,8.3054,8.3247,8.3247,8.3401,8.3593,8.3593,8.3593,8.3593,8.3593,8.3593,8.3593,8.3593,8.3593,8.3516,8.3093,8.2939,8.2939,8.2939,8.2939,8.2939,8.2939,8.2939,8.3016,8.3208,8.3247,8.3324,8.3516,8.3593,8.3593,8.3593,8.3593,8.3593,8.3593,8.4093,8.4555,8.4555,8.5055,8.5478,8.5478,8.567,8.5786,8.5786,8.5978,8.594,8.5517,8.5478,8.5478,8.5478,8.5478,8.5478,8.5478,8.5478,8.5478,8.5478,8.5478,8.5209,8.4593,8.4555,8.4247,8.3593,8.3593,8.3593,8.3593,8.3362,8.3247,8.3247,8.3054,8.2939,6.6974,6.7359,6.7782,6.8282,6.8129,6.7705,6.7205,6.6821,6.6436,6.5974,6.5897,6.6397,6.809,6.8398,6.8936,0.0,0.0,0.0,7.3437,7.5284,7.6746,0.0,7.8361,0.0,7.9746,8.0169,8.0554,0.0,8.1093,8.1093,8.1093,8.1093,8.1093,8.1093,8.1093,8.1285,8.1631,8.1631,8.2054,8.2862,8.2862,8.3131,8.3593,8.3593,8.3824,8.417,0.0,8.4362,8.4709,8.4709,8.4709,8.4709,8.4709,8.4709,8.4709,8.4709,8.4709,8.4709,8.4709,8.4709,8.4593,8.3824,8.3593,8.3593,8.3593,8.3593,8.367,8.4055,8.417,8.4247,8.4593,8.4709,8.4709,8.4709,8.4709,8.4709,8.4709,8.5093,8.544,8.544,8.5786,8.6094,8.6094,8.6094,8.6247,8.6594,8.6671,8.6824,8.7171,8.6555,8.6094,8.6094,8.6094,8.6094,8.6094,8.6094,8.6094,8.6094,8.6094,8.5901,8.544,8.544,8.5209,8.4709,8.4709,8.4709,8.4709,8.4324,8.417,8.417,8.3785,8.3593,6.7244,6.7898,6.859,6.8706,6.809,6.7398,6.7282,6.6628,6.6013,6.5897,6.5974,6.6551,6.8129,6.8513,6.909,7.0667,0.0,7.3514,7.3514,7.5784,7.7438,7.7438,7.8938,7.9977,7.9977,8.0669,8.1093,8.1093,8.1093,8.1093,8.1093,8.1093,8.1131,8.1246,8.1246,8.1631,8.2439,8.2477,8.2901,8.3747,8.3747,8.3824,8.3939,8.3939,8.4324,8.5055,0.0,0.0,8.6094,8.6094,8.6094,8.6094,8.6094,8.6094,8.6094,8.6094,8.617,8.6286,8.6286,8.6363,8.617,8.4478,8.3939,8.3939,8.3939,8.3939,8.4093,8.4863,8.5055,8.5209,8.594,8.6094,8.6094,8.6094,8.6094,8.6094,8.6094,8.6209,8.6286,8.6286,8.6363,8.644,8.644,8.644,8.6709,8.744,8.7555,8.7863,8.8594,8.7363,8.644,8.644,8.644,8.644,8.644,8.644,8.644,8.644,8.644,8.644,8.644,8.6324,8.6286,8.6286,8.617,8.6094,8.6094,8.5401,8.5055,8.5055,8.4286,8.3939,6.7975,6.8821,6.9629,7.0283,6.986,6.9052,6.8359,6.7513,6.6705,6.6051,6.6436,6.7205,6.8205,6.9013,6.9783,7.0744,7.236,7.3514,7.3514,7.6284,7.8284,0.0,7.9823,8.0862,8.0862,8.1016,0.0,0.0,0.0,8.1093,8.1093,8.1093,8.14,8.2054,8.2093,8.2516,8.3362,8.3362,8.3824,8.467,8.467,8.5016,8.567,8.567,8.5747,8.5901,8.5901,0.0,8.6094,8.6094,8.6094,8.6094,8.6094,8.6094,8.6094,8.6094,8.6555,8.7171,8.7171,8.7632,8.794,8.6247,8.567,8.567,8.567,8.567,8.5709,8.5863,8.5901,8.594,8.6055,8.6094,8.6094,8.6094,8.6094,8.6094,8.6094,8.6671,8.7171,8.7171,8.7748,8.8248,8.8248,8.8248,8.8286,8.844,8.8479,8.8517,8.8671,8.844,8.8248,8.8248,8.8248,8.8248,8.8248,8.8248,8.8248,8.8248,8.8248,8.8248,8.8248,8.7555,8.7171,8.7171,8.6478,8.6094,8.6094,8.5978,8.5901,8.5901,8.5747,8.567,6.8282,6.936,7.0321,7.0283,6.9629,6.8821,6.7936,6.709,6.6359,6.5974,6.6551,6.7359,6.8244,6.9129,6.9975,7.0783,7.236,7.3514,7.3514,7.6399,7.8477,7.8477,8.0054,8.1093,8.1093,8.1093,8.1093,8.1093,0.0,8.1554,8.1131,8.1516,8.2093,8.2939,8.2978,8.3401,8.4286,8.4286,8.4709,8.5517,8.5517,8.5747,8.6094,8.6094,8.6094,8.6094,8.6094,0.0,8.6094,8.6094,8.6363,8.6786,8.6786,8.7055,8.744,8.744,8.7709,8.8055,8.8055,8.8363,8.8556,8.7709,8.744,8.744,8.744,8.744,8.744,8.744,8.744,8.744,8.744,8.744,8.744,8.744,8.744,8.744,8.744,8.7786,8.8055,8.8055,8.8402,8.8709,8.8709,8.8709,8.8825,8.9248,8.9325,8.9479,8.994,9.0017,8.9671,8.8786,8.8709,8.8709,8.8709,8.8709,8.8709,8.8709,8.8709,8.8709,8.8709,8.8286,8.8055,8.8055,8.7671,8.744,8.744,8.744,8.7209,8.6786,8.6786,8.6517,6.8129,6.9206,7.0206,6.959,6.8783,6.7936,6.7244,6.6474,6.5897,6.5897,6.6705,6.759,6.8282,6.9244,7.0167,7.0783,7.236,7.3514,7.3514,7.6399,7.8477,7.8477,8.0054,0.0,8.1093,8.1093,0.0,8.1323,0.0,0.0,8.167,8.2247,8.2978,8.3862,8.3862,8.4286,8.517,8.517,8.5478,8.6094,8.6094,8.6094,8.6094,8.6094,8.6094,8.6094,8.6094,0.0,0.0,8.6363,8.6901,8.7671,8.7671,8.8094,8.8709,8.8709,8.8786,8.894,8.894,8.9094,8.9248,8.9248,8.8979,8.8709,8.8709,8.8709,8.8709,8.8709,8.8709,8.8709,8.8709,8.8709,8.8709,8.8709,8.8709,8.8709,8.8709,8.8825,8.894,8.894,8.9094,8.9248,8.9248,8.9248,8.944,9.0094,9.0171,9.0441,9.1133,9.121,9.071,8.9363,8.9248,8.9248,8.9248,8.9248,8.9248,8.9248,8.9248,8.9248,8.9248,8.9056,8.894,8.894,8.8786,8.8709,8.8709,8.8709,8.8363,8.7671,8.7671,8.7325,6.7205,6.7898,6.8629,6.8552,6.7859,6.7205,6.7128,6.6474,6.5897,6.5897,6.7167,6.8321,6.8398,6.9706,7.0821,7.0898,7.236,7.3514,7.3514,7.6399,7.8477,7.8477,8.0054,8.1093,8.1093,8.1093,8.14,8.2131,0.0,0.0,8.3362,8.3439,8.3862,8.4747,8.4786,8.517,8.5978,8.5978,8.6017,8.6094,8.6094,8.6094,8.6094,8.6094,8.6094,8.6094,8.6094,0.0,0.0,8.7286,8.7786,8.8556,8.8556,8.8632,8.8709,8.8709,8.9171,8.9787,8.9787,9.0325,9.0979,9.0979,8.994,8.8709,8.8709,8.8709,8.8709,8.8709,8.8709,8.8709,8.8709,8.8709,8.8709,8.8709,8.8709,8.8709,8.8709,8.9286,8.9787,8.9787,9.0441,9.0979,9.0979,9.0979,9.1018,9.1056,9.1095,9.1133,9.121,9.121,9.1133,9.0979,9.0979,9.0979,9.0979,9.0979,9.0979,9.0979,9.0979,9.0979,9.0979,9.021,8.9787,8.9787,8.9056,8.8709,8.8709,8.8709,8.8671,8.8556,8.8556,8.8517,6.709,6.7744,6.8282,6.7744,6.7359,6.6974,6.6474,6.6128,6.5897,6.5897,6.7244,6.8398,6.8398,6.9783,7.0898,7.0898,7.236,7.3514,7.3514,7.6399,7.8477,7.8477,8.0054,8.1093,0.0,0.0,8.1631,0.0,0.0,0.0,8.5093,8.4632,8.4747,8.5593,8.5632,8.5786,8.6094,8.6094,8.6094,8.6094,8.6094,8.6094,8.6094,8.6094,8.6401,8.6863,8.6863,0.0,0.0,8.8171,8.8671,8.944,8.944,8.9748,9.021,9.021,9.0402,9.0671,9.0671,9.0902,9.121,9.121,9.0748,9.021,9.021,9.021,9.021,9.021,9.021,9.021,9.021,9.021,9.021,9.021,9.021,9.021,9.021,9.0479,9.0671,9.0671,9.0979,9.121,9.121,9.121,9.121,9.121,9.121,9.121,9.121,9.121,9.121,9.121,9.121,9.121,9.121,9.121,9.121,9.121,9.121,9.121,9.121,9.0864,9.0671,9.0671,9.0364,9.021,9.021,9.021,8.994,8.944,8.944,8.9171,6.6744,6.7205,6.7513,6.6898,6.6744,6.659,6.6013,6.5897,6.5897,6.5897,6.7244,6.8398,6.8398,6.9783,7.0898,7.0898,7.236,7.3514,7.3514,7.6399,7.8477,7.8477,0.0,8.1093,0.0,8.1554,8.2439,0.0,0.0,0.0,8.6055,8.5555,8.5517,8.6094,8.6094,8.6094,8.6094,8.6094,8.6094,8.6094,8.6094,8.6247,8.6478,8.6478,8.6978,8.7786,0.0,0.0,0.0,8.9056,8.9556,9.0287,9.0287,9.0671,9.121,9.121,9.121,9.121,9.121,9.121,9.121,9.121,9.121,9.121,9.121,9.121,9.121,9.121,9.121,9.121,9.121,9.121,9.121,9.121,9.121,9.121,9.121,9.121,9.121,9.121,9.121,9.121,9.121,9.121,9.121,9.121,9.121,9.121,9.121,9.121,9.121,9.121,9.121,9.121,9.121,9.121,9.121,9.121,9.121,9.121,9.121,9.121,9.121,9.121,9.121,9.121,9.121,9.121,9.0902,9.0287,9.0287,8.9979,6.5897,6.5897,6.5897,6.5897,6.5897,6.5897,6.5897,6.5897,6.5897,6.5897,6.7244,6.8398,6.8398,6.9783,7.0898,7.0898,7.236,7.3514,7.3514,7.6399,7.8477,7.8477,8.0054,8.1093,8.1093,8.2593,8.3939,0.0,0.0,0.0,8.6094,8.6094,8.6094,8.6094,8.6094,8.6094,8.6094,8.6094,8.6094,8.6094,8.6094,8.6555,8.7401,8.7401,8.7863,0.0,0.0,0.0,0.0,8.9902,9.0402,9.121,9.121,9.121,9.121,9.121,9.121,9.121,9.121,9.121,9.121,9.121,9.121,9.121,9.121,9.121,9.121,9.121,9.121,9.121,9.121,9.121,9.121,9.121,9.121,9.121,9.121,9.121,9.121,9.121,9.121,9.121,9.121,9.121,9.121,9.121,9.121,9.121,9.121,9.121,9.121,9.121,9.121,9.121,9.121,9.121,9.121,9.121,9.121,9.121,9.121,9.121,9.121,9.121,9.121,9.121,9.121,9.121,9.121,9.121,9.121,9.1171,6.5897,6.5897,6.5897,6.5897,6.5897,6.5897,6.5897,6.5897,6.5897,6.5897,6.7244,6.8398,6.8398,6.9783,7.0898,7.0898,7.236,7.3514,7.3514,7.6399,7.8477,7.8477,8.0054,8.1323,0.0,0.0,0.0,0.0,0.0,0.0,8.6094,8.6094,8.6094,8.6094,8.6094,8.6094,8.6094,8.6709,8.6978,8.7017,8.7594,8.8017,8.8286,8.8286,8.8748,0.0,0.0,0.0,0.0,9.0787,9.0941,9.121,9.121,9.121,9.121,9.121,9.121,9.121,9.121,9.121,9.121,9.121,9.121,9.121,9.121,9.121,9.121,9.121,9.121,9.121,9.121,9.121,9.121,9.121,9.121,9.121,9.121,9.121,9.121,9.121,9.121,9.121,9.121,9.121,9.121,9.121,9.121,9.121,9.121,9.121,9.121,9.121,9.121,9.121,9.121,9.121,9.121,9.121,9.121,9.121,9.121,9.121,9.121,9.121,9.121,9.121,9.121,9.121,9.121,9.121,9.121,9.121,6.5897,6.5897,6.5897,6.5897,6.5897,6.5897,6.5897,6.5897,6.5897,6.5897,6.7244,6.8398,6.8398,6.9783,7.0898,7.0898,7.236,7.363,7.3899,7.6592,0.0,7.94,0.0,0.0,0.0,0.0,0.0,0.0,0.0,0.0,8.6094,8.6094,8.6247,8.6594,8.6286,8.6247,8.6594,8.7132,8.7555,8.7902,8.844,8.8863,8.9133,8.9133,8.9594,0.0,0.0,0.0,0.0,9.121,9.121,9.121,9.121,9.121,9.121,9.121,9.121,9.121,9.121,9.121,9.121,9.121,9.121,9.121,9.121,9.121,9.121,9.121,9.121,9.121,9.121,9.121,9.121,9.121,9.121,9.121,9.121,9.121,9.121,9.121,9.121,9.121,9.121,9.121,9.121,9.121,9.121,9.121,9.121,9.121,9.121,9.121,9.121,9.121,9.121,9.121,9.121,9.121,9.121,9.121,9.121,9.121,9.121,9.121,9.121,9.121,9.121,9.121,9.121,9.121,9.121,9.121,0.0,6.5897,6.5897,6.5897,6.5897,6.5897,6.5897,6.5897,0.0,6.5897,6.7244,6.8398,6.8398,6.9783,7.0937,7.0975,7.2399,7.3822,7.4668,7.6976,0.0,0.0,8.1131,0.0,0.0,0.0,0.0,0.0,0.0,0.0,8.6094,8.617,8.6555,8.7363,8.6671,8.6671,8.7478,8.7555,8.7979,8.8786,8.8825,8.9286,8.9979,8.9979,9.0441,0.0,0.0,0.0,0.0,9.121,9.121,9.121,9.121,9.121,9.121,9.121,9.121,9.121,9.121,9.121,9.121,9.1287,9.1287,9.1287,9.1364,9.1287,9.121,9.121,9.121,9.121,9.121,9.121,9.121,9.121,9.121,9.121,9.121,9.121,9.121,9.121,9.121,9.121,9.121,9.121,9.121,9.121,9.121,9.121,9.121,9.121,9.121,9.121,9.121,9.121,9.121,9.121,9.121,9.121,9.121,9.121,9.121,9.121,9.121,9.121,9.121,9.121,9.121,9.121,9.121,9.121,9.121,9.121,6.5897,0.0,6.5897,6.5897,6.5897,6.5897,0.0,0.0,0.0,0.0,0.0,6.8398,6.8398,6.9783,7.1129,7.1783,7.2783,7.4014,7.5476,7.79,0.0,8.0977,8.1631,0.0,0.0,0.0,0.0,0.0,0.0,8.6094,8.6094,8.6748,8.7171,8.7401,8.7863,8.8171,8.8402,8.9017,8.944,8.9633,9.0287,9.071,9.0902,9.0902,0.0,0.0,0.0,0.0,9.121,9.121,9.121,9.121,9.121,9.121,9.121,9.121,9.121,9.121,9.121,9.121,9.1325,9.1979,9.2172,9.2326,9.2941,9.221,9.121,9.121,9.121,9.121,9.121,9.121,9.121,9.121,9.121,9.121,9.121,9.121,9.121,9.121,9.121,9.121,9.121,9.121,9.121,9.121,9.121,9.121,9.121,9.121,9.121,9.121,9.121,9.121,9.121,9.121,9.121,9.121,9.121,9.121,9.121,9.121,9.121,9.121,9.121,9.121,9.121,9.121,9.121,9.121,9.121,9.121,6.5897,6.5897,6.5897,6.5897,6.5897,6.5897,6.5897,0.0,0.0,0.0,0.0,6.8513,6.8936,7.0052,7.1206,7.2052,7.2937,7.4361,7.6784,0.0,8.0554,8.1054,8.1823,0.0,0.0,0.0,0.0,0.0,0.0,8.6094,8.6094,8.694,8.7594,8.7979,8.8825,8.9248,8.9248,8.9671,9.0094,9.0517,9.0979,9.121,9.121,9.121,9.121,0.0,0.0,0.0,9.121,9.121,9.121,9.121,9.121,9.121,9.121,9.121,9.121,9.121,9.121,9.1479,9.1941,9.2787,9.3056,9.3133,9.3557,9.3056,9.2364,9.2364,9.2364,9.2364,9.2364,9.2364,9.2249,9.1864,9.1787,9.1672,9.1287,9.121,9.121,9.121,9.121,9.121,9.121,9.121,9.121,9.121,9.121,9.121,9.121,9.121,9.121,9.121,9.121,9.121,9.121,9.121,9.121,9.121,9.121,9.121,9.121,9.121,9.121,9.121,9.121,9.121,9.121,9.121,9.121,9.121,9.121,9.121,6.5897,6.5897,6.5897,6.5897,6.5897,6.5897,6.5897,0.0,0.0,0.0,0.0,0.0,0.0,7.0475,0.0,7.2245,7.3437,7.5284,7.8284,8.0092,8.1093,8.1093,8.1939,0.0,0.0,0.0,0.0,0.0,0.0,8.617,8.6286,8.7132,8.7979,8.8863,8.9671,9.0094,9.0094,9.0094,9.0479,9.121,9.121,9.121,9.121,9.121,9.121,0.0,0.0,0.0,9.121,9.121,9.121,9.121,9.121,9.121,9.121,9.121,9.121,9.121,9.1364,9.1979,9.2826,9.3633,9.3903,9.3903,9.4057,9.4095,9.4095,9.4095,9.3903,9.371,9.371,9.371,9.3518,9.2864,9.2672,9.2479,9.1748,9.1595,9.1595,9.1595,9.1595,9.1556,9.1441,9.1402,9.1364,9.121,9.121,9.121,9.121,9.121,9.121,9.121,9.121,9.121,9.121,9.121,9.121,9.121,9.121,9.121,9.121,9.121,9.121,9.121,9.121,9.121,9.121,9.121,9.121,9.121,9.121,9.121,6.5897,6.5897,6.5897,6.5897,6.5897,6.5897,6.5897,0.0,0.0,0.0,0.0,0.0,0.0,7.0975,7.2283,0.0,0.0,7.8169,0.0,0.0,8.1093,0.0,0.0,0.0,0.0,0.0,0.0,0.0,0.0,8.644,8.7171,8.8017,8.8863,8.971,9.0556,9.1018,9.1018,9.1018,9.1056,9.121,9.121,9.121,9.121,9.121,9.121,0.0,0.0,9.121,9.121,9.121,9.121,9.121,9.121,9.121,9.121,9.121,9.121,9.1325,9.2056,9.2826,9.3672,9.4518,9.4788,9.4941,9.5672,9.5903,9.5903,9.5903,9.4826,9.371,9.371,9.371,9.3672,9.3557,9.3518,9.348,9.3364,9.3326,9.3326,9.3326,9.3326,9.3095,9.2402,9.2287,9.2056,9.1325,9.121,9.121,9.121,9.121,9.121,9.121,9.121,9.121,9.121,9.121,9.121,9.121,9.121,9.121,9.121,9.121,9.121,9.121,9.121,9.121,9.121,9.121,9.121,9.121,9.121,9.121,6.5897,6.5897,6.5897,6.5897,6.5897,6.5897,6.5897,0.0,0.0,0.0,0.0,0.0,0.0,0.0,7.2783,0.0,0.0,0.0,0.0,0.0,0.0,0.0,0.0,0.0,0.0,0.0,0.0,0.0,0.0,0.0,8.7363,8.8209,8.9056,8.9863,9.0748,9.121,9.121,9.121,9.121,9.121,9.121,9.121,9.121,9.121,9.121,9.121,0.0,9.121,9.121,9.121,9.121,9.121,9.121,9.121,9.1248,9.1748,9.2172,9.2672,9.3557,9.4095,9.4557,9.5403,9.5711,9.5788,9.6172,9.6288,9.6288,9.6288,9.5711,9.5095,9.5095,9.5095,9.498,9.4518,9.4403,9.4249,9.3787,9.371,9.371,9.371,9.371,9.3595,9.321,9.3133,9.3018,9.2595,9.2556,9.2556,9.2556,9.2556,9.2556,9.2556,9.2556,9.2556,9.2556,9.2556,9.2172,9.1248,9.121,9.121,9.121,9.121,9.121,9.121,9.121,9.121,9.121,9.121,9.121,9.121,9.121,9.121,6.5897,6.5897,6.5897,6.5897,0.0,6.5897,6.5897,0.0,0.0,0.0,0.0,0.0,0.0,7.2245,0.0,0.0,0.0,0.0,0.0,0.0,0.0,0.0,0.0,0.0,0.0,0.0,0.0,0.0,0.0,0.0,8.7632,8.8325,8.9171,9.0171,9.0864,9.121,9.121,9.121,9.121,9.121,9.121,9.121,9.121,9.121,9.121,9.121,9.121,9.121,9.121,9.121,9.121,9.121,9.121,9.1325,9.1595,9.2479,9.3287,9.4095,9.4749,9.5134,9.5403,9.6095,9.6288,9.6288,9.6288,9.6288,9.6288,9.6288,9.6288,9.6288,9.6288,9.6288,9.6134,9.5441,9.5288,9.5095,9.4441,9.4326,9.4326,9.4326,9.4326,9.4249,9.4018,9.398,9.3941,9.371,9.371,9.371,9.371,9.371,9.371,9.371,9.371,9.371,9.371,9.371,9.3133,9.1864,9.1787,9.1787,9.1787,9.1595,9.1518,9.1518,9.1287,9.121,9.121,9.121,9.121,9.121,9.121,9.121,6.5897,6.5897,6.5897,6.5897,6.5897,0.0,6.5897,0.0,0.0,0.0,0.0,0.0,0.0,7.4091,7.6284,0.0,0.0,0.0,0.0,0.0,0.0,0.0,0.0,0.0,0.0,0.0,0.0,0.0,0.0,0.0,8.8517,8.8671,8.944,9.1056,9.1171,9.121,9.121,9.121,9.121,9.121,9.121,9.121,9.121,9.121,9.121,9.121,9.121,9.121,9.121,9.121,9.121,9.121,9.121,9.171,9.2479,9.3326,9.4172,9.4903,9.498,9.5518,9.6211,9.6288,9.6288,9.6288,9.6288,9.6288,9.6288,9.6288,9.6288,9.6288,9.6288,9.6288,9.6288,9.6211,9.6211,9.6211,9.6134,9.6095,9.6095,9.6095,9.6095,9.5865,9.5057,9.4903,9.4634,9.3826,9.371,9.371,9.371,9.371,9.371,9.371,9.371,9.371,9.371,9.371,9.3633,9.3518,9.3518,9.3518,9.3518,9.2787,9.2402,9.2402,9.1595,9.121,9.121,9.121,9.121,9.121,9.121,9.121,6.5897,6.5897,6.5897,6.5897,0.0,0.0,0.0,0.0,0.0,0.0,0.0,0.0,0.0,0.0,0.0,0.0,0.0,0.0,0.0,0.0,0.0,0.0,0.0,0.0,0.0,0.0,0.0,0.0,0.0,0.0,8.8632,8.9171,8.9979,9.1171,9.121,9.121,9.121,9.121,9.121,9.121,9.121,9.121,9.121,9.121,9.121,9.121,9.121,9.121,9.121,9.121,9.121,9.1248,9.1787,9.2864,9.4095,9.4403,9.5057,9.5826,9.5826,9.6019,9.6288,9.6288,9.6288,9.6288,9.6288,9.6288,9.6288,9.6288,9.6288,9.6288,9.6288,9.6288,9.6288,9.6288,9.6288,9.6288,9.6288,9.6288,9.6288,9.6288,9.6288,9.6211,9.5865,9.5826,9.5711,9.5365,9.5326,9.5326,9.5326,9.5326,9.5326,9.5326,9.5326,9.5326,9.5326,9.5326,9.5326,9.5326,9.4287,9.371,9.371,9.3403,9.3249,9.3249,9.2903,9.2749,9.2749,9.2749,9.2518,9.2018,9.2018,9.171,6.5897,6.5897,6.5897,0.0,0.0,0.0,0.0,0.0,0.0,0.0,0.0,0.0,0.0,0.0,0.0,0.0,0.0,0.0,0.0,0.0,0.0,0.0,0.0,0.0,0.0,0.0,0.0,0.0,0.0,0.0,0.0,8.9479,9.0325,9.1171,9.121,9.121,9.121,9.121,9.121,9.121,9.121,9.121,9.121,9.121,9.121,9.121,9.121,9.121,9.121,9.121,9.1364,9.171,9.2864,9.398,9.5018,9.5288,9.5788,9.6288,9.6288,9.6288,9.6288,9.6288,9.6288,9.6288,9.6288,9.6288,9.6288,9.6288,9.6288,9.6288,9.6288,9.6288,9.6288,9.6288,9.6288,9.6288,9.6288,9.6288,9.6288,9.6288,9.6288,9.6288,9.6288,9.6288,9.6288,9.6288,9.6288,9.6288,9.6288,9.6288,9.6288,9.6288,9.6288,9.6288,9.6288,9.6288,9.6288,9.6288,9.5172,9.4518,9.4518,9.4249,9.4095,9.4095,9.3826,9.371,9.371,9.371,9.3403,9.2864,9.2864,9.2556,6.5897,6.5897,6.5897,0.0,0.0,0.0,0.0,0.0,0.0,0.0,0.0,0.0,0.0,0.0,0.0,0.0,0.0,0.0,0.0,0.0,0.0,0.0,0.0,0.0,0.0,0.0,0.0,0.0,0.0,0.0,0.0,8.9479,9.0325,9.1171,9.121,9.121,9.121,9.121,9.121,9.121,9.121,9.121,9.121,9.121,9.121,9.121,9.121,9.121,9.121,9.121,9.1748,9.2672,9.4326,9.5018,9.5095,9.598,9.6288,9.6288,9.6288,9.6288,9.6288,9.6288,9.6288,9.6288,9.6288,9.6288,9.6288,9.6288,9.6288,9.6288,9.6288,9.6288,9.6288,9.6288,9.6288,9.6288,9.6288,9.6288,9.6288,9.6288,9.6288,9.6288,9.6288,9.6288,9.6288,9.6288,9.6288,9.6288,9.6288,9.6288,9.6288,9.6288,9.6288,9.6288,9.6288,9.6288,9.6288,9.6288,9.6288,9.6288,9.6288,9.548,9.5018,9.5018,9.4172,9.371,9.371,9.371,9.371,9.371,9.371,9.371,6.5897,6.5897,0.0,6.659,0.0,0.0,0.0,0.0,0.0,0.0,0.0,0.0,0.0,0.0,0.0,0.0,0.0,0.0,0.0,0.0,0.0,0.0,0.0,0.0,0.0,0.0,0.0,0.0,0.0,0.0,0.0,9.0056,9.0941,9.121,9.121,9.121,9.121,9.121,9.121,9.121,9.121,9.121,9.121,9.121,9.121,9.121,9.121,9.121,9.1248,9.1864,9.2941,9.4287,9.4788,9.5365,9.5942,9.6211,9.6288,9.6288,9.6288,9.6288,9.6288,9.6288,9.6288,9.6288,9.6288,9.6288,9.6288,9.6288,9.6288,9.6288,9.6288,9.6288,9.6288,9.6288,9.6288,9.6288,9.6288,9.6288,9.6288,9.6288,9.6288,9.6288,9.6288,9.6288,9.6288,9.6288,9.6288,9.6288,9.6288,9.6288,9.6288,9.6288,9.6288,9.6288,9.6288,9.6288,9.6288,9.6288,9.6288,9.6288,9.6288,9.6057,9.5903,9.5903,9.5672,9.5518,9.5518,9.5518,9.5211,9.4595,9.4595,9.4287,6.5897,6.5897,0.0,6.6898,6.8013,6.9552,7.1898,0.0,0.0,0.0,0.0,0.0,0.0,0.0,0.0,0.0,0.0,0.0,0.0,0.0,0.0,0.0,0.0,0.0,0.0,0.0,0.0,0.0,0.0,0.0,0.0,9.0287,9.121,9.121,9.121,9.121,9.121,9.121,9.121,9.121,9.121,9.121,9.121,9.121,9.121,9.121,9.1556,9.171,9.1825,9.2979,9.4095,9.5018,9.5365,9.5826,9.6288,9.6288,9.6288,9.6288,9.6288,9.6288,9.6288,9.6288,9.6288,9.6288,9.6288,9.6288,9.6288,9.6288,9.6288,9.6288,9.6288,9.6288,9.6288,9.6288,9.6288,9.6288,9.6288,9.6288,9.6288,9.6288,9.6288,9.6288,9.6288,9.6288,9.6288,9.6288,9.6288,9.6288,9.6288,9.6288,9.6288,9.6288,9.6288,9.6288,9.6288,9.6288,9.6288,9.6288,9.6288,9.6288,9.6288,9.6288,9.6288,9.6288,9.6288,9.6288,9.6288,9.6288,9.6019,9.5518,9.5518,9.5211,6.5897,6.5936,0.0,6.7013,6.8629,0.0,7.4091,0.0,7.5168,0.0,0.0,0.0,0.0,0.0,0.0,0.0,0.0,0.0,0.0,0.0,0.0,0.0,0.0,0.0,0.0,0.0,0.0,0.0,0.0,0.0,0.0,9.0325,9.121,9.121,9.121,9.121,9.121,9.121,9.121,0.0,9.121,9.121,9.121,9.121,9.1248,9.1364,9.2172,9.2595,9.2864,9.4364,9.5057,9.5211,9.598,9.6288,9.6288,9.6288,9.6288,9.6288,9.6288,9.6288,9.6288,9.6288,9.6288,9.6288,9.6288,9.6288,9.6288,9.6288,9.6288,9.6288,9.6288,9.6288,9.6288,9.6288,9.6288,9.6288,9.6288,9.6288,9.6288,9.6288,9.6288,9.6288,9.6288,9.6288,9.6288,9.6288,9.6288,9.6288,9.6288,9.6288,9.6288,9.6288,9.6288,9.6288,9.6288,9.6288,9.6288,9.6288,9.6288,9.6288,9.6288,9.6288,9.6288,9.6288,9.6288,9.6288,9.6288,9.6288,9.6288,9.6288,9.6288,9.6288,6.5897,6.6359,0.0,0.0,7.0437,7.3206,7.5245,7.6245,7.6976,7.7784,7.8784,0.0,0.0,0.0,0.0,0.0,0.0,0.0,0.0,0.0,0.0,0.0,0.0,0.0,0.0,0.0,0.0,0.0,0.0,0.0,8.894,9.0517,9.1364,9.121,9.121,9.121,9.121,9.121,9.121,0.0,9.121,9.121,9.121,9.121,9.1556,9.221,9.2402,9.3249,9.448,9.4826,9.5403,9.6057,9.6249,9.6288,9.6288,9.6288,9.6288,9.6288,9.6288,9.6288,9.6288,9.6288,9.6288,9.6288,9.6288,9.6288,9.6288,9.6288,9.6288,9.6288,9.6288,9.6288,9.6288,9.6288,9.6288,9.6288,9.6288,9.6288,9.6288,9.6288,9.6288,9.6288,9.6288,9.6288,9.6288,9.6288,9.6288,9.6288,9.6288,9.6288,9.6288,9.6288,9.6288,9.6288,9.6288,9.6288,9.6288,9.6288,9.6288,9.6288,9.6288,9.6288,9.6288,9.6288,9.6288,9.6288,9.6288,9.6288,9.6288,9.6288,9.6288,9.6288,6.5897,0.0,0.0,6.9706,0.0,7.4053,7.613,7.7323,7.8237,7.8977,7.9477,8.0092,0.0,0.0,0.0,0.0,0.0,0.0,0.0,0.0,0.0,0.0,0.0,0.0,0.0,0.0,0.0,0.0,0.0,8.9449,8.9772,9.0866,9.1441,9.1364,9.1248,9.121,9.121,9.121,9.121,9.121,9.121,9.1441,9.1825,9.1825,9.2056,9.2556,9.3364,9.4172,9.5018,9.5441,9.5903,9.6288,9.6288,9.6288,9.6288,9.6288,9.6288,9.6288,9.6288,9.6288,9.6288,9.6288,9.6288,9.6288,9.6288,9.6288,9.6288,9.6288,9.6288,9.6288,9.6288,9.6288,9.6288,9.6288,9.6288,9.6288,9.6288,9.6288,9.6288,9.6288,9.6288,9.6288,9.6288,9.6288,9.6288,9.6288,9.6288,9.6288,9.6288,9.6288,9.6288,9.6288,9.6288,9.6288,9.6288,9.6288,9.6288,9.6288,9.6288,9.6288,9.6288,9.6288,9.6288,9.6288,9.6288,9.6288,9.6288,9.6288,9.6288,9.6288,9.6288,9.6288,6.5897,6.659,6.8129,7.1552,7.2976,0.0,7.6938,7.8199,7.9037,7.9923,8.0106,8.0285,8.0977,0.0,0.0,0.0,0.0,0.0,0.0,0.0,0.0,0.0,0.0,0.0,0.0,0.0,0.0,0.0,0.0,8.9752,9.0586,9.1217,9.1534,9.1479,9.1287,9.121,9.1248,9.121,9.121,9.121,9.121,9.1672,9.2479,9.2633,9.2787,9.3018,9.4403,9.5095,9.5288,9.6019,9.6288,9.6288,9.6288,9.6288,9.6288,9.6288,9.6288,9.6288,9.6288,9.6288,9.6288,9.6288,9.6288,9.6288,9.6288,9.6288,9.6288,9.6288,9.6288,9.6288,9.6288,9.6288,9.6288,9.6288,9.6288,9.6288,9.6288,9.6288,9.6288,9.6288,9.6288,9.6288,9.6288,9.6288,9.6288,9.6288,9.6288,9.6288,9.6288,9.6288,9.6288,9.6288,9.6288,9.6288,9.6288,9.6288,9.6288,9.6288,9.6288,9.6288,9.6288,9.6288,9.6288,9.6288,9.6288,9.6288,9.6288,9.6288,9.6288,9.6288,9.6288,9.6288,6.5897,0.0,6.9052,0.0,7.3399,7.4399,0.0,0.0,7.9324,0.0,8.131,8.117,8.1093,8.1093,0.0,0.0,0.0,0.0,0.0,0.0,0.0,0.0,0.0,0.0,0.0,0.0,0.0,0.0,8.9409,9.0108,9.0569,9.1393,9.1733,9.1514,9.1287,9.1287,9.1441,9.1287,9.121,9.121,9.121,9.1672,9.2518,9.321,9.3941,9.4672,9.4903,9.5441,9.6134,9.6249,9.6288,9.6288,9.6288,9.6288,9.6288,9.6288,9.6288,9.6288,9.6288,9.6288,9.6288,9.6288,9.6288,9.6288,9.6288,9.6288,9.6288,9.6288,9.6288,9.6288,9.6288,9.6288,9.6288,9.6288,9.6288,9.6288,9.6288,9.6288,9.6288,9.6288,9.6288,9.6288,9.6288,9.6288,9.6288,9.6288,9.6288,9.6288,9.6288,9.6288,9.6288,9.6288,9.6288,9.6288,9.6288,9.6288,9.6288,9.6288,9.6288,9.6288,9.6288,9.6288,9.6288,9.6288,9.6288,9.6288,9.6288,9.6288,9.6288,9.6288,9.6288,9.6288,6.7051,6.7859,6.9244,0.0,7.3514,7.4437,7.8006,7.8915,7.9543,8.1337,8.1732,8.1662,8.1323,8.1246,8.1208,0.0,0.0,0.0,0.0,0.0,0.0,0.0,0.0,0.0,0.0,0.0,0.0,0.0,8.9765,9.0502,9.1655,9.1957,9.2016,9.1899,9.1539,9.1423,9.1479,9.1287,9.121,9.121,9.171,9.2364,9.321,9.4018,9.4634,9.5018,9.5518,9.5942,9.6288,9.6288,9.6288,9.6288,9.6288,9.6288,9.6288,9.6288,9.6288,9.6288,9.6288,9.6288,9.6288,9.6288,9.6288,9.6288,9.6288,9.6288,9.6288,9.6288,9.6288,9.6288,9.6288,9.6288,9.6288,9.6288,9.6288,9.6288,9.6288,9.6288,9.6288,9.6288,9.6288,9.6288,9.6288,9.6288,9.6288,9.6288,9.6288,9.6288,9.6288,9.6288,9.6288,9.6288,9.6288,9.6288,9.6288,9.6288,9.6288,9.6288,9.6288,9.6288,9.6288,9.6288,9.6288,9.6288,9.6288,9.6288,9.6288,9.6288,9.6288,9.6288,9.6288,9.6288,6.7936,6.8398,6.9167,7.236,7.336,7.4322,0.0,0.0,7.9633,0.0,8.1815,8.1964,8.1632,8.1475,8.1323,8.1208,8.1131,0.0,0.0,0.0,0.0,0.0,0.0,0.0,0.0,0.0,0.0,0.0,9.0,9.0742,9.2422,9.2316,9.2207,9.2207,9.1825,9.1631,9.1707,9.1402,9.1248,9.121,9.2095,9.2903,9.371,9.4595,9.5095,9.5365,9.6019,9.6288,9.6288,9.6288,9.6288,9.6288,9.6288,9.6288,9.6288,9.6288,9.6288,9.6288,9.6288,9.6288,9.6288,9.6288,9.6288,9.6288,9.6288,9.6288,9.6288,9.6288,9.6288,9.6288,9.6288,9.6288,9.6288,9.6288,9.6288,9.6288,9.6288,9.6288,9.6288,9.6288,9.6288,9.6288,9.6288,9.6288,9.6288,9.6288,9.6288,9.6288,9.6288,9.6288,9.6288,9.6288,9.6288,9.6288,9.6288,9.6288,9.6288,9.6288,9.6288,9.6288,9.6288,9.6288,9.6288,9.6288,9.6288,9.6288,9.6288,9.6288,9.6288,9.6288,9.6288,9.6288,6.7936,6.8398,6.9013,7.1629,7.2899,7.4053,0.0,0.0,7.9555,8.0785,8.1711,8.2237,8.1998,8.1644,8.14,8.1362,8.1208,8.1362,8.217,0.0,0.0,0.0,0.0,0.0,0.0,0.0,0.0,0.0,9.0,9.0664,9.2148,9.22,9.2207,9.2207,9.1975,9.196,9.2168,9.171,9.1402,9.121,9.2095,9.2903,9.371,9.4595,9.5441,9.6249,9.6288,9.6288,9.6288,9.6288,9.6288,9.6288,9.6288,9.6288,9.6288,9.6288,9.6288,9.6288,9.6288,9.6288,9.6288,9.6288,9.6288,9.6288,9.6288,9.6288,9.6288,9.6288,9.6288,9.6288,9.6288,9.6288,9.6288,9.6288,9.6288,9.6288,9.6288,9.6288,9.6288,9.6288,9.6288,9.6288,9.6288,9.6288,9.6288,9.6288,9.6288,9.6288,9.6288,9.6288,9.6288,9.6288,9.6288,9.6288,9.6288,9.6288,9.6288,9.6288,9.6288,9.6288,9.6288,9.6288,9.6288,9.6288,9.6288,9.6288,9.6288,9.6288,9.6288,9.6288,9.6288,9.6288,6.7936,6.8398,6.9013,7.1552,7.286,7.4053,7.613,7.7965,7.9546,8.0758,8.167,8.2264,8.2198,8.1976,8.168,8.1427,8.1323,8.1708,8.2939,8.3401,0.0,0.0,0.0,0.0,0.0,0.0,0.0,0.0,0.0,9.0703,9.2383,9.2468,9.2471,9.2471,9.2225,9.2066,9.2014,9.1662,9.1556,9.1633,9.2749,9.3518,9.4018,9.5249,9.6019,9.6288,9.6288,9.6288,9.6288,9.6288,9.6288,9.6288,9.6288,9.6288,9.6288,9.6288,9.6288,9.6288,9.6288,9.6288,9.6288,9.6288,9.6288,9.6288,9.6288,9.6288,9.6288,9.6288,9.6288,9.6288,9.6288,9.6288,9.6288,9.6288,9.6288,9.6288,9.6288,9.6288,9.6288,9.6288,9.6288,9.6288,9.6288,9.6288,9.6288,9.6288,9.6288,9.6288,9.6288,9.6288,9.6288,9.6288,9.6288,9.6288,9.6288,9.6288,9.6288,9.6288,9.6288,9.6288,9.6288,9.6288,9.6288,9.6288,9.6288,9.6288,9.6288,9.6288,9.6288,9.6288,9.6288,9.6288,6.8013,6.8629,6.9321,7.1283,7.2629,7.3899,7.5361,7.7539,7.9466,8.0386,8.1484,8.2304,8.2304,8.2187,8.2003,8.1678,8.1478,8.1939,8.3587,8.374,8.4439,0.0,0.0,0.0,0.0,0.0,0.0,0.0,0.0,0.0,9.2109,9.2422,9.2617,9.2617,9.2422,9.2209,9.2,9.1841,9.181,9.1937,9.3186,9.3957,9.4136,9.5634,9.6288,9.6288,9.6288,9.6288,9.6288,9.6288,9.6288,9.6288,9.6288,9.6288,9.6288,9.6288,9.6288,9.6288,9.6288,9.6288,9.6288,9.6288,9.6288,9.6288,9.6288,9.6288,9.6288,9.6288,9.6288,9.6288,9.6288,9.6288,9.6288,9.6288,9.6288,9.6288,9.6288,9.6288,9.6288,9.6288,9.6288,9.6288,9.6288,9.6288,9.6288,9.6288,9.6288,9.6288,9.6288,9.6288,9.6288,9.6288,9.6288,9.6288,9.6288,9.6288,9.6288,9.6288,9.6288,9.6288,9.6288,9.6288,9.6288,9.6288,9.6288,9.6288,9.6288,9.6288,9.6288,9.6288,9.6288,9.6288,0.0,0.0,0.0,7.0706,7.2206,7.3553,7.3899,7.6648,7.9232,7.9604,8.1054,8.2265,8.2304,8.2304,8.2226,8.2031,8.1692,8.207,8.3919,8.4003,8.4696,8.6819,0.0,0.0,0.0,0.0,0.0,0.0,8.9492,9.039,9.125,9.2148,9.2617,9.2617,9.2617,9.2461,9.2226,9.2187,9.2117,9.1929,9.3385,9.4065,9.4136,9.5634,9.6288,9.6288,9.6288,9.6288,9.6288,9.6288,9.6288,9.6288,9.6288,9.6288,9.6288,9.6288,9.6288,9.6288,9.6288,9.6288,9.6288,9.6288,9.6288,9.6288,9.6288,9.6288,9.6288,9.6288,9.6288,9.6288,9.6288,9.6288,9.6288,9.6288,9.6288,9.6288,9.6288,9.6288,9.6288,9.6288,9.6288,9.6288,9.6288,9.6288,9.6288,9.6288,9.6288,9.6288,9.6288,9.6288,9.6288,9.6288,9.6288,9.6288,9.6288,9.6288,9.6288,9.6288,9.6288,9.6288,9.6288,9.6288,9.6288,9.6288,9.6288,9.6288,9.6288,9.6288,9.6288,9.6288,9.6288,9.6288,6.8936,0.0,0.0,0.0,0.0,0.0,7.3668,7.5658,7.774,7.9175,8.0469,8.1562,8.2187,8.2304,8.2265,8.2226,8.2003,8.2168,8.3191,8.3798,8.4654,8.6005,8.6709,0.0,0.0,0.0,0.0,0.0,8.9492,9.039,9.125,9.2148,9.2617,9.2617,9.2617,9.2578,9.25,9.2304,9.2255,9.2393,9.311,9.3762,9.4366,9.5174,9.5865,9.6288,9.6288,9.6288,9.6288,9.6288,9.6288,9.6288,9.6288,9.6288,9.6288,9.6288,9.6288,9.6288,9.6288,9.6288,9.6288,9.6288,9.6288,9.6288,9.6288,9.6288,9.6288,9.6288,9.6288,9.6288,9.6288,9.6288,9.6288,9.6288,9.6288,9.6288,9.6288,9.6288,9.6288,9.6288,9.6288,9.6288,9.6288,9.6288,9.6288,9.6288,9.6288,9.6288,9.6288,9.6288,9.6288,9.6288,9.6288,9.6288,9.6288,9.6288,9.6288,9.6288,9.6288,9.6288,9.6288,9.6288,9.6288,9.6288,9.6288,9.6288,9.6288,9.6288,9.6288,9.6288,9.6288,9.6288,0.0,6.9975,0.0,0.0,0.0,0.0,7.3696,7.5553,7.7515,0.0,8.0078,8.1172,8.164,8.2031,8.2304,8.2304,8.2187,8.2398,8.3143,8.3892,8.4743,8.5816,8.6729,8.7337,0.0,8.75,8.7695,8.8164,8.8984,9.0,9.1211,9.2148,9.2617,9.2617,9.2617,9.2617,9.2617,9.2422,9.2461,9.2617,9.3002,9.3625,9.4433,9.493,9.5595,9.6288,9.6288,9.6288,9.6288,9.6288,9.6288,9.6288,9.6288,9.6288,9.6288,9.6288,9.6288,9.6288,9.6288,9.6288,9.6288,9.6288,9.6288,9.6288,9.6288,9.6288,9.6288,9.6288,9.6288,9.6288,9.6288,9.6288,9.6288,9.6288,9.6288,9.6288,9.6288,9.6288,9.6288,9.6288,9.6288,9.6288,9.6288,9.6288,9.6288,9.6288,9.6288,9.6288,9.6288,9.6288,9.6288,9.6288,9.6288,9.6288,9.6288,9.6288,9.6288,9.6288,9.6288,9.6288,9.6288,9.6288,9.6288,9.6288,9.6288,9.6288,9.6288,9.6288,9.6288,9.6288,9.6288,9.6288,0.0,0.0,0.0,0.0,0.0,0.0,7.384,7.5821,7.7721,0.0,7.9647,8.0742,8.0976,8.164,8.2187,8.2265,8.2304,8.2578,8.3359,8.4054,8.4901,8.5932,8.6836,8.7383,8.75,8.75,8.75,8.75,8.832,8.957,9.1211,9.2148,9.2617,9.2617,9.2617,9.2617,9.2617,9.2617,9.2617,9.2617,9.2958,9.3566,9.4405,9.4744,9.5441,9.6288,9.6288,9.6288,9.6288,9.6288,9.6288,9.6288,9.6288,9.6288,9.6288,9.6288,9.6288,9.6288,9.6288,9.6288,9.6288,9.6288,9.6288,9.6288,9.6288,9.6288,9.6288,9.6288,9.6288,9.6288,9.6288,9.6288,9.6288,9.6288,9.6288,9.6288,9.6288,9.6288,9.6288,9.6288,9.6288,9.6288,9.6288,9.6288,9.6288,9.6288,9.6288,9.6288,9.6288,9.6288,9.6288,9.6288,9.6288,9.6288,9.6288,9.6288,9.6288,9.6288,9.6288,9.6288,9.6288,9.6288,9.6288,9.6288,9.6288,9.6288,9.6288,9.6288,9.6288,9.6288,9.6288,9.6288,0.0,0.0,0.0,0.0,0.0,0.0,7.3399,7.464,7.6012,7.7663,7.8395,7.9219,8.0703,8.1133,8.1484,8.2187,8.2304,8.2344,8.2539,8.3265,8.4116,8.5039,8.5937,8.6719,8.7422,8.75,8.75,8.75,8.8906,9.0195,9.125,9.2148,9.2617,9.2617,9.2617,9.2617,9.2617,9.2617,9.2617,9.2617,9.269,9.3302,9.4409,9.4513,9.5174,9.6288,9.6288,9.6288,9.6288,9.6288,9.6288,9.6288,9.6288,9.6288,9.6288,9.6288,9.6288,9.6288,9.6288,9.6288,9.6288,9.6288,9.6288,9.6288,9.6288,9.6288,9.6288,9.6288,9.6288,9.6288,9.6288,9.6288,9.6288,9.6288,9.6288,9.6288,9.6288,9.6288,9.6288,9.6288,9.6288,9.6288,9.6288,9.6288,9.6288,9.6288,9.6288,9.6288,9.6288,9.6288,9.6288,9.6288,9.6288,9.6288,9.6288,9.6288,9.6288,9.6288,9.6288,9.6288,9.6288,9.6288,9.6288,9.6288,9.6288,9.6288,9.6288,9.6288,9.6288,9.6288,9.6288,9.6288,0.0,0.0,0.0,7.1206,0.0,0.0,0.0,7.4783,7.6103,7.7185,7.7823,7.8633,8.0078,8.0703,8.1289,8.2148,8.2304,8.2304,8.2304,8.3047,8.375,8.4219,8.5039,8.5898,8.6758,8.6836,8.7031,8.7461,8.8633,8.9726,9.0625,9.1484,9.2148,9.2578,9.2617,9.2617,9.2617,9.2617,9.2617,9.2617,9.2461,9.3159,9.4581,9.4459,9.5172,9.6442,9.6442,9.6403,9.6288,9.6288,9.6288,9.6288,9.6288,9.6288,9.6288,9.6288,9.6288,9.6288,9.6288,9.6288,9.6288,9.6288,9.6288,9.6288,9.6288,9.6288,9.6288,9.6288,9.6288,9.6288,9.6288,9.6288,9.6288,9.6288,9.6288,9.6288,9.6288,9.6288,9.6288,9.6288,9.6288,9.6288,9.6288,9.6288,9.6288,9.6288,9.6288,9.6288,9.6288,9.6288,9.6288,9.6288,9.6288,9.6288,9.6288,9.6288,9.6288,9.6288,9.6288,9.6288,9.6288,9.6288,9.6288,9.6288,9.6288,9.6288,9.6288,9.6288,9.6288,9.6288,9.6288,9.6288,0.0,0.0,0.0,0.0,0.0,7.4243,0.0,0.0,0.0,7.6852,7.7423,7.8196,7.9257,8.0156,0.0,8.1679,0.0,0.0,0.0,8.2812,0.0,8.3594,8.4219,8.5,8.5859,8.6094,8.6562,8.7422,8.8242,8.9023,8.9726,9.0742,9.1601,9.2344,9.25,9.2617,9.2617,9.2617,9.2617,9.2617,9.2383,9.3086,9.453,9.4474,9.5109,9.6352,9.6515,9.6442,9.6288,9.6288,9.6288,9.6288,9.6288,9.6288,9.6288,9.6288,9.6288,9.6288,9.6288,9.6288,9.6288,9.6288,9.6288,9.6288,9.6288,9.6288,9.6288,9.6288,9.6288,9.6288,9.6288,9.6288,9.6288,9.6288,9.6288,9.6288,9.6288,9.6288,9.6288,9.6288,9.6288,9.6288,9.6288,9.6288,9.6288,9.6288,9.6288,9.6288,9.6288,9.6288,9.6288,9.6288,9.6288,9.6288,9.6288,9.6288,9.6288,9.6288,9.6288,9.6288,9.6288,9.6288,9.6288,9.6288,9.6288,9.6288,9.6288,9.6288,9.6288,9.6288,9.6288,9.6288,0.0,0.0,0.0,0.0,7.3931,0.0,0.0,0.0,7.6438,7.6813,0.0,7.716,7.8395,0.0,0.0,0.0,0.0,0.0,8.125,8.1914,8.2734,8.3515,8.3672,8.4101,8.4961,8.5742,8.6562,8.7422,8.8242,8.875,8.8828,9.039,9.1367,9.1445,9.2187,9.2617,9.2617,9.2617,9.2617,9.2617,9.2578,9.2929,9.3671,9.4184,9.4785,9.548,9.6112,9.6326,9.6288,9.6288,9.6288,9.6288,9.6288,9.6288,9.6288,9.6288,9.6288,9.6288,9.6288,9.6288,9.6288,9.6288,9.6288,9.6288,9.6288,9.6288,9.6288,9.6288,9.6288,9.6288,9.6288,9.6288,9.6288,9.6288,9.6288,9.6288,9.6288,9.6288,9.6288,9.6288,9.6288,9.6288,9.6288,9.6288,9.6288,9.6288,9.6288,9.6288,9.6288,9.6288,9.6288,9.6288,9.6288,9.6288,9.6288,9.6288,9.6288,9.6288,9.6288,9.6288,9.6288,9.6288,9.6288,9.6288,9.6288,9.6288,9.6288,9.6288,9.6288,9.6288,9.6288,9.6288,0.0,0.0,0.0,0.0,0.0,0.0,7.5501,0.0,7.6708,0.0,0.0,0.0,0.0,0.0,0.0,0.0,8.0742,0.0,0.0,0.0,8.2396,8.2629,0.0,0.0,8.4062,0.0,0.0,0.0,8.7539,8.8203,8.8672,8.9883,9.0781,9.1289,9.2148,9.2617,9.2617,9.2617,9.2617,9.2617,9.2617,9.3008,9.375,9.4348,9.4983,9.5554,9.6204,9.6403,9.6288,9.6288,9.6288,9.6288,9.6288,9.6288,9.6288,9.6288,9.6288,9.6288,9.6288,9.6288,9.6288,9.6288,9.6288,9.6288,9.6288,9.6288,9.6288,9.6288,9.6288,9.6288,9.6288,9.6288,9.6288,9.6288,9.6288,9.6288,9.6288,9.6288,9.6288,9.6288,9.6288,9.6288,9.6288,9.6288,9.6288,9.6288,9.6288,9.6288,9.6288,9.6288,9.6288,9.6288,9.6288,9.6288,9.6288,9.6288,9.6288,9.6288,9.6288,9.6288,9.6288,9.6288,9.6288,9.6288,9.6288,9.6288,9.6288,9.6288,9.6288,9.6288,9.6288,9.6288,7.4609,0.0,0.0,0.0,0.0,0.0,0.0,0.0,0.0,0.0,0.0,0.0,0.0,0.0,0.0,0.0,0.0,8.0625,0.0,8.1377,0.0,0.0,0.0,0.0,0.0,8.4726,8.5703,8.6172,8.6797,8.75,8.832,8.9179,9.0039,9.0937,9.1797,9.2344,9.2617,9.2617,9.2617,9.2617,9.2617,9.2929,9.3554,9.4425,9.4991,9.5366,9.6249,9.648,9.6288,9.6288,9.6288,9.6288,9.6288,9.6288,9.6288,9.6288,9.6288,9.6288,9.6288,9.6288,9.6288,9.6288,9.6288,9.6288,9.6288,9.6288,9.6288,9.6288,9.6288,9.6288,9.6288,9.6288,9.6288,9.6288,9.6288,9.6288,9.6288,9.6288,9.6288,9.6288,9.6288,9.6288,9.6288,9.6288,9.6288,9.6288,9.6288,9.6288,9.6288,9.6288,9.6288,9.6288,9.6288,9.6288,9.6288,9.6288,9.6288,9.6288,9.6288,9.6288,9.6288,9.6288,9.6288,9.6288,9.6288,9.6288,9.6288,9.6288,9.6288,9.6288,9.6288,9.6288,0.0,0.0,0.0,7.5859,0.0,0.0,0.0,0.0,7.6953,0.0,0.0,0.0,0.0,0.0,0.0,0.0,7.8672,0.0,0.0,8.0507,8.1351,0.0,0.0,0.0,0.0,8.3633,8.4375,8.6054,8.6211,8.6601,8.75,8.8281,8.914,9.0,9.0898,9.1758,9.2578,9.2617,9.2617,9.2617,9.2617,9.2617,9.2695,9.414,9.4651,9.4521,9.598,9.648,9.6288,9.6288,9.6288,9.6288,9.6288,9.6288,9.6288,9.6288,9.6288,9.6288,9.6288,9.6288,9.6288,9.6288,9.6288,9.6288,9.6288,9.6288,9.6288,9.6288,9.6288,9.6288,9.6288,9.6288,9.6288,9.6288,9.6288,9.6288,9.6288,9.6288,9.6288,9.6288,9.6288,9.6288,9.6288,9.6288,9.6288,9.6288,9.6288,9.6288,9.6288,9.6288,9.6288,9.6288,9.6288,9.6288,9.6288,9.6288,9.6288,9.6288,9.6288,9.6288,9.6288,9.6288,9.6288,9.6288,9.6288,9.6288,9.6288,9.6288,9.6288,9.6288,9.6288,9.6288,0.0,0.0,7.8398,7.8398,0.0,0.0,0.0,0.0,0.0,0.0,0.0,0.0,0.0,0.0,7.8398,7.8125,7.8555,7.8906,0.0,8.0117,8.1123,8.1402,0.0,0.0,0.0,0.0,0.0,8.4453,8.5547,8.6236,8.6376,8.7854,8.9023,8.9765,9.0781,9.1719,9.2578,9.2617,9.2617,9.2617,9.2617,9.2617,9.2656,9.414,9.4636,9.4486,9.5957,9.648,9.6288,9.6288,9.6288,9.6288,9.6288,9.6288,9.6288,9.6288,9.6288,9.6288,9.6288,9.6288,9.6288,9.6288,9.6288,9.6288,9.6288,9.6288,9.6288,9.6288,9.6288,9.6288,9.6288,9.6288,9.6288,9.6288,9.6288,9.6288,9.6288,9.6288,9.6288,9.6288,9.6288,9.6288,9.6288,9.6288,9.6288,9.6288,9.6288,9.6288,9.6288,9.6288,9.6288,9.6288,9.6288,9.6288,9.6288,9.6288,9.6288,9.6288,9.6288,9.6288,9.6288,9.6288,9.6288,9.6288,9.6288,9.6288,9.6288,9.6288,9.6288,9.6288,9.6288,9.6288,7.9687,7.9687,0.0,7.9687,7.9687,0.0,7.9687,0.0,0.0,0.0,0.0,0.0,0.0,0.0,0.0,7.8945,7.8945,7.9023,0.0,8.0312,0.0,8.1445,8.1844,8.2139,8.2303,8.2812,8.3281,8.3594,8.4922,8.5813,0.0,0.0,8.8595,8.9336,9.0312,9.125,9.2148,9.2461,9.2617,9.2617,9.2617,9.2617,9.2656,9.3906,9.4509,9.4615,9.5748,9.6326,9.6403,9.6326,9.6288,9.6288,9.6288,9.6288,9.6288,9.6288,9.6288,9.6288,9.6288,9.6288,9.6288,9.6288,9.6288,9.6288,9.6288,9.6288,9.6442,9.7019,9.6749,9.6442,9.7019,9.6749,9.6288,9.6288,9.6288,9.6288,9.6288,9.6288,9.6288,9.6288,9.6288,9.6288,9.6288,9.6288,9.6288,9.6288,9.6288,9.6288,9.6288,9.6288,9.6288,9.6288,9.6288,9.6288,9.6288,9.6288,9.6288,9.6288,9.6288,9.6288,9.6288,9.6288,9.6442,9.6711,9.6442,9.6442,9.6749,9.6442,9.6288,9.6288,9.6288,9.6288]},{"header":{"parameterUnit":"m.s-1","parameterCategory":1,"la1":30.6,"la2":29.2853,"lo1":-89.7004,"lo2":-87.6739,"dy":0.0162,"dx":0.0183,"nx":112,"ny":82,"refTime":"2023-10-10T18:00:00:Z","depth":0,"parameterNumber":3,"parameterNumberName":"V-component_of_WINDS"},"data":[0.0,0.0,0.0,0.0,0.0,0.0,0.0,0.0,0.0,0.0,0.0,0.0,0.0,0.0,0.0,0.0,0.0,0.0,0.0,0.0,0.0,0.0,0.0,0.0,0.0,0.0,0.0,0.0,0.0,0.0,0.0,0.0,0.0,0.0,0.0,0.0,0.0,0.0,0.0,0.0,0.0,0.0,0.0,0.0,0.0,0.0,0.0,0.0,0.0,0.0,0.0,0.0,0.0,0.0,0.0,0.0,0.0,0.0,0.0,0.0,0.0,0.0,0.0,0.0,0.0,0.0,0.0,0.0,0.0,0.0,0.0,0.0,0.0,0.0,0.0,0.0,0.0,0.0,0.0,0.0,0.0,0.0,0.0,0.0,0.0,0.0,0.0,0.0,0.0,0.0,-2.2859,-2.2859,-2.2859,-2.2859,-2.2859,-2.2859,-2.2859,-2.2859,0.0,0.0,0.0,0.0,0.0,0.0,0.0,0.0,0.0,0.0,0.0,0.0,0.0,0.0,0.0,0.0,0.0,0.0,0.0,0.0,0.0,0.0,0.0,0.0,0.0,0.0,0.0,0.0,0.0,0.0,0.0,0.0,0.0,0.0,0.0,0.0,0.0,0.0,0.0,0.0,0.0,0.0,0.0,0.0,0.0,0.0,0.0,0.0,0.0,0.0,0.0,0.0,0.0,0.0,0.0,0.0,0.0,0.0,0.0,0.0,0.0,0.0,0.0,0.0,0.0,0.0,0.0,0.0,0.0,0.0,0.0,0.0,0.0,0.0,0.0,0.0,0.0,0.0,0.0,0.0,0.0,0.0,0.0,0.0,0.0,0.0,0.0,0.0,0.0,0.0,0.0,0.0,0.0,0.0,0.0,0.0,0.0,0.0,0.0,0.0,0.0,0.0,0.0,0.0,-2.2859,-2.2859,-2.2859,-2.2859,-2.2859,-2.2859,-2.2859,-2.2859,0.0,0.0,0.0,0.0,0.0,0.0,0.0,0.0,0.0,0.0,0.0,0.0,0.0,0.0,0.0,0.0,0.0,0.0,0.0,0.0,0.0,0.0,0.0,0.0,0.0,0.0,0.0,0.0,0.0,0.0,0.0,0.0,0.0,0.0,0.0,0.0,0.0,0.0,0.0,0.0,0.0,0.0,0.0,0.0,0.0,0.0,0.0,0.0,0.0,0.0,0.0,0.0,0.0,0.0,0.0,0.0,0.0,0.0,0.0,0.0,0.0,0.0,0.0,0.0,0.0,0.0,0.0,0.0,0.0,0.0,0.0,0.0,0.0,0.0,0.0,0.0,0.0,0.0,0.0,0.0,0.0,0.0,0.0,0.0,0.0,0.0,0.0,0.0,0.0,0.0,0.0,0.0,0.0,0.0,0.0,0.0,0.0,0.0,0.0,0.0,0.0,0.0,0.0,-2.2859,-2.2859,-2.2859,-2.2859,-2.2859,-2.2859,-2.2859,-2.2859,-2.2859,-2.2859,0.0,0.0,0.0,0.0,0.0,0.0,0.0,0.0,0.0,0.0,0.0,0.0,0.0,0.0,0.0,0.0,0.0,0.0,0.0,0.0,0.0,0.0,0.0,0.0,0.0,0.0,0.0,0.0,0.0,0.0,0.0,0.0,0.0,0.0,0.0,0.0,0.0,0.0,0.0,0.0,0.0,0.0,0.0,0.0,0.0,0.0,0.0,0.0,0.0,0.0,0.0,0.0,0.0,0.0,0.0,0.0,0.0,0.0,0.0,0.0,0.0,0.0,0.0,0.0,0.0,0.0,0.0,0.0,0.0,0.0,0.0,0.0,0.0,0.0,0.0,0.0,0.0,0.0,0.0,0.0,0.0,0.0,0.0,0.0,0.0,0.0,0.0,0.0,0.0,0.0,0.0,0.0,0.0,0.0,0.0,0.0,0.0,0.0,0.0,0.0,0.0,0.0,-2.2859,-2.2859,-2.2859,-2.2859,-2.2859,-2.2859,-2.2859,-2.2859,-2.2859,-2.2859,0.0,0.0,0.0,0.0,0.0,0.0,0.0,0.0,0.0,0.0,0.0,0.0,0.0,0.0,0.0,0.0,0.0,0.0,0.0,0.0,0.0,0.0,0.0,0.0,0.0,0.0,0.0,0.0,0.0,0.0,0.0,0.0,0.0,0.0,0.0,0.0,0.0,0.0,0.0,0.0,0.0,0.0,0.0,0.0,0.0,0.0,0.0,0.0,0.0,0.0,0.0,0.0,0.0,0.0,0.0,0.0,0.0,0.0,0.0,0.0,0.0,0.0,0.0,0.0,0.0,0.0,0.0,0.0,0.0,0.0,0.0,0.0,0.0,0.0,0.0,0.0,0.0,0.0,0.0,0.0,0.0,0.0,0.0,0.0,0.0,0.0,0.0,0.0,0.0,0.0,0.0,0.0,0.0,0.0,0.0,0.0,0.0,0.0,0.0,0.0,0.0,0.0,-2.2859,-2.2859,-2.2859,-2.2859,-2.2859,-2.2859,-2.2859,-2.2859,-2.2859,-2.2859,0.0,0.0,0.0,0.0,0.0,0.0,0.0,0.0,0.0,0.0,0.0,0.0,0.0,0.0,0.0,0.0,0.0,0.0,0.0,0.0,0.0,0.0,0.0,0.0,0.0,0.0,0.0,0.0,0.0,0.0,0.0,0.0,0.0,0.0,0.0,0.0,0.0,0.0,0.0,0.0,0.0,0.0,0.0,0.0,0.0,0.0,0.0,0.0,0.0,0.0,0.0,0.0,0.0,0.0,0.0,0.0,0.0,0.0,0.0,0.0,0.0,0.0,0.0,0.0,0.0,0.0,0.0,0.0,0.0,0.0,0.0,0.0,0.0,0.0,0.0,0.0,0.0,0.0,0.0,0.0,0.0,0.0,0.0,0.0,0.0,0.0,0.0,0.0,0.0,0.0,0.0,0.0,0.0,0.0,0.0,0.0,0.0,0.0,0.0,0.0,0.0,0.0,-2.2859,-2.2859,0.0,-2.2859,-2.2859,-2.2859,-2.2859,-2.2859,-2.2859,0.0,0.0,0.0,0.0,0.0,0.0,0.0,0.0,0.0,0.0,0.0,0.0,0.0,0.0,0.0,0.0,0.0,0.0,0.0,0.0,0.0,0.0,0.0,0.0,0.0,0.0,0.0,0.0,0.0,0.0,0.0,0.0,0.0,0.0,0.0,0.0,0.0,0.0,0.0,0.0,0.0,0.0,0.0,0.0,0.0,0.0,0.0,0.0,0.0,0.0,0.0,0.0,0.0,0.0,0.0,0.0,0.0,0.0,0.0,0.0,0.0,0.0,0.0,0.0,0.0,0.0,0.0,0.0,0.0,0.0,0.0,0.0,0.0,0.0,0.0,0.0,0.0,0.0,0.0,0.0,0.0,0.0,0.0,0.0,0.0,0.0,0.0,0.0,0.0,0.0,0.0,0.0,0.0,0.0,0.0,0.0,0.0,0.0,0.0,0.0,0.0,0.0,-2.2859,-2.2859,-2.2859,0.0,-2.2859,-2.2859,-2.2859,-2.2859,-2.2859,-2.2859,0.0,0.0,0.0,0.0,0.0,0.0,0.0,0.0,0.0,0.0,0.0,0.0,0.0,0.0,0.0,0.0,0.0,0.0,0.0,0.0,0.0,0.0,0.0,0.0,0.0,0.0,0.0,0.0,0.0,0.0,0.0,0.0,0.0,0.0,0.0,0.0,0.0,0.0,0.0,0.0,0.0,0.0,0.0,0.0,0.0,0.0,0.0,0.0,0.0,0.0,0.0,0.0,0.0,0.0,0.0,0.0,0.0,0.0,0.0,0.0,0.0,0.0,0.0,0.0,0.0,0.0,0.0,0.0,0.0,0.0,0.0,0.0,0.0,0.0,0.0,0.0,0.0,0.0,0.0,0.0,0.0,0.0,0.0,0.0,0.0,0.0,0.0,0.0,0.0,0.0,0.0,0.0,0.0,0.0,0.0,0.0,0.0,0.0,0.0,0.0,0.0,0.0,-2.2859,-2.2859,-2.2873,-2.2873,-2.2873,-2.2873,-2.2873,-2.2873,-2.2873,0.0,0.0,0.0,0.0,0.0,0.0,0.0,0.0,0.0,0.0,0.0,0.0,0.0,0.0,0.0,0.0,0.0,0.0,0.0,0.0,0.0,0.0,0.0,0.0,0.0,0.0,0.0,0.0,0.0,0.0,0.0,0.0,0.0,0.0,0.0,0.0,0.0,0.0,0.0,0.0,0.0,0.0,0.0,0.0,0.0,0.0,0.0,0.0,0.0,0.0,0.0,0.0,0.0,0.0,0.0,0.0,0.0,0.0,0.0,0.0,0.0,0.0,0.0,0.0,0.0,0.0,0.0,0.0,0.0,0.0,0.0,0.0,0.0,0.0,0.0,0.0,0.0,0.0,0.0,0.0,0.0,0.0,0.0,0.0,0.0,0.0,0.0,0.0,0.0,0.0,0.0,0.0,0.0,0.0,0.0,0.0,0.0,0.0,0.0,0.0,0.0,0.0,0.0,-2.3166,-2.3193,-2.3273,-2.3474,-2.35,-2.35,-2.35,-2.35,-2.35,-2.35,0.0,0.0,0.0,0.0,0.0,0.0,0.0,0.0,0.0,0.0,0.0,0.0,0.0,0.0,0.0,0.0,0.0,0.0,0.0,0.0,0.0,0.0,0.0,0.0,0.0,0.0,0.0,0.0,0.0,0.0,0.0,0.0,0.0,0.0,0.0,0.0,0.0,0.0,0.0,0.0,0.0,0.0,0.0,0.0,0.0,0.0,0.0,0.0,0.0,0.0,0.0,0.0,0.0,0.0,0.0,0.0,0.0,0.0,0.0,0.0,0.0,0.0,0.0,0.0,0.0,0.0,0.0,0.0,0.0,0.0,0.0,0.0,0.0,0.0,0.0,0.0,0.0,0.0,0.0,0.0,0.0,0.0,0.0,0.0,0.0,0.0,0.0,0.0,0.0,0.0,0.0,0.0,0.0,0.0,0.0,0.0,0.0,0.0,0.0,0.0,0.0,0.0,-2.346,-2.35,-2.3567,-2.3754,-2.3768,-2.3768,-2.3768,-2.3768,-2.3469,-2.2599,0.0,0.0,0.0,0.0,0.0,0.0,0.0,0.0,0.0,0.0,0.0,0.0,0.0,0.0,0.0,0.0,0.0,0.0,0.0,0.0,0.0,0.0,0.0,0.0,0.0,0.0,0.0,0.0,0.0,0.0,0.0,0.0,0.0,0.0,0.0,0.0,0.0,0.0,0.0,0.0,0.0,0.0,0.0,0.0,0.0,0.0,0.0,0.0,0.0,0.0,0.0,0.0,0.0,0.0,0.0,0.0,0.0,0.0,0.0,0.0,0.0,0.0,0.0,0.0,0.0,0.0,0.0,0.0,0.0,0.0,0.0,0.0,0.0,0.0,0.0,0.0,0.0,0.0,0.0,0.0,0.0,0.0,0.0,0.0,0.0,0.0,0.0,0.0,0.0,0.0,0.0,0.0,0.0,0.0,0.0,0.0,0.0,0.0,0.0,0.0,0.0,0.0,-2.3768,-2.3808,-2.3821,-2.3848,-2.3705,-2.3562,-2.3562,-2.3405,-2.2519,-2.0607,0.0,0.0,0.0,0.0,0.0,0.0,0.0,0.0,0.0,0.0,0.0,0.0,0.0,0.0,0.0,0.0,0.0,0.0,0.0,0.0,0.0,0.0,0.0,0.0,0.0,0.0,0.0,0.0,0.0,0.0,0.0,0.0,0.0,0.0,0.0,0.0,0.0,0.0,0.0,0.0,0.0,0.0,0.0,0.0,0.0,0.0,0.0,0.0,0.0,0.0,0.0,0.0,0.0,0.0,0.0,0.0,0.0,0.0,0.0,0.0,-1.8507,0.0,0.0,0.0,0.0,0.0,0.0,0.0,0.0,0.0,0.0,0.0,0.0,0.0,0.0,0.0,0.0,0.0,0.0,0.0,0.0,0.0,0.0,0.0,0.0,0.0,0.0,0.0,0.0,0.0,0.0,0.0,0.0,0.0,0.0,0.0,0.0,0.0,0.0,0.0,0.0,0.0,-2.4075,-2.4115,-2.4195,-2.4422,-2.294,-2.2042,-2.2042,-2.0683,-1.9479,-1.903,-1.7529,0.0,0.0,0.0,0.0,0.0,0.0,0.0,0.0,0.0,0.0,0.0,0.0,0.0,0.0,0.0,0.0,0.0,0.0,0.0,0.0,0.0,0.0,0.0,0.0,0.0,0.0,0.0,0.0,0.0,0.0,0.0,0.0,0.0,0.0,0.0,0.0,0.0,0.0,0.0,0.0,0.0,0.0,0.0,0.0,0.0,0.0,0.0,0.0,0.0,0.0,0.0,0.0,0.0,0.0,0.0,0.0,0.0,0.0,0.0,0.0,-1.7728,0.0,0.0,0.0,0.0,0.0,0.0,0.0,0.0,0.0,0.0,0.0,0.0,0.0,0.0,0.0,0.0,0.0,0.0,0.0,0.0,0.0,0.0,0.0,0.0,0.0,0.0,0.0,0.0,0.0,0.0,0.0,0.0,0.0,0.0,0.0,0.0,0.0,0.0,0.0,0.0,-2.4369,-2.4409,-2.4022,-2.3252,-2.2198,-2.1141,-2.023,-1.9176,-1.8118,-1.7208,-1.6151,0.0,0.0,0.0,0.0,0.0,0.0,0.0,0.0,0.0,0.0,0.0,0.0,0.0,0.0,0.0,0.0,0.0,0.0,0.0,0.0,0.0,0.0,0.0,0.0,0.0,0.0,0.0,0.0,0.0,0.0,0.0,0.0,0.0,0.0,0.0,0.0,0.0,0.0,0.0,0.0,0.0,0.0,0.0,0.0,0.0,0.0,0.0,0.0,0.0,0.0,0.0,0.0,0.0,-1.5996,-1.5952,-1.6272,-1.6272,-1.5425,-1.4014,-1.5566,-1.5566,-1.4574,0.0,0.0,0.0,0.0,0.0,0.0,0.0,0.0,0.0,0.0,0.0,0.0,0.0,0.0,0.0,0.0,0.0,0.0,0.0,0.0,0.0,0.0,0.0,0.0,0.0,-2.2928,-2.2754,0.0,0.0,0.0,0.0,0.0,0.0,0.0,0.0,0.0,0.0,0.0,0.0,-2.4153,-2.4031,-2.3264,-2.1291,-2.0692,-1.993,-1.827,-1.7815,-1.6751,-1.5081,-1.4935,-1.4176,0.0,0.0,0.0,0.0,0.0,0.0,0.0,0.0,0.0,0.0,0.0,0.0,0.0,0.0,0.0,0.0,0.0,0.0,0.0,0.0,0.0,0.0,0.0,0.0,0.0,0.0,0.0,0.0,0.0,0.0,0.0,0.0,-1.9786,-2.008,0.0,0.0,0.0,0.0,0.0,0.0,0.0,0.0,0.0,0.0,0.0,0.0,0.0,-1.6777,-1.6716,-1.5081,-1.4492,-1.4673,-1.2993,-1.2302,-1.2323,-1.2323,-1.2187,-1.2043,-1.2187,0.0,-1.4432,-1.4716,0.0,0.0,0.0,0.0,0.0,0.0,0.0,0.0,0.0,0.0,0.0,0.0,0.0,0.0,0.0,0.0,0.0,0.0,0.0,0.0,0.0,0.0,-2.146,-2.3209,-2.2355,-2.1055,0.0,-2.251,-2.3701,-2.3661,0.0,0.0,0.0,0.0,0.0,0.0,0.0,0.0,-2.2198,-2.2049,-2.1291,-1.9176,-1.736,-1.6142,-1.5998,-1.433,-1.3267,-1.2958,-1.2958,-1.2811,-1.2501,-1.4176,0.0,0.0,0.0,0.0,0.0,0.0,0.0,0.0,0.0,0.0,0.0,0.0,0.0,0.0,0.0,0.0,0.0,0.0,0.0,0.0,0.0,0.0,0.0,0.0,0.0,0.0,0.0,0.0,0.0,-1.9867,-2.0094,-2.0214,-2.0227,-2.0294,0.0,0.0,0.0,0.0,0.0,0.0,0.0,0.0,0.0,-1.5119,-1.4991,-1.4675,-1.3891,-1.3059,-1.2678,-1.2888,-1.2043,-1.1619,-1.1619,-1.1619,-1.1619,-1.1619,-1.1619,-1.2043,-1.2888,-1.2888,-1.3309,-1.4014,0.0,0.0,0.0,0.0,-1.5698,-1.5839,-1.6826,-1.7248,0.0,0.0,0.0,0.0,0.0,0.0,0.0,0.0,0.0,0.0,0.0,0.0,0.0,-2.0104,-1.977,-1.9566,-2.0758,-2.0862,-2.1179,0.0,-2.2393,-2.2898,-2.4063,0.0,0.0,0.0,0.0,-2.1057,-2.0136,-2.0091,-1.9398,-1.7399,-1.6311,-1.5384,-1.4155,-1.3225,-1.2759,-1.2759,-1.2759,-1.2718,-1.263,-1.3396,-1.3508,0.0,0.0,0.0,0.0,0.0,0.0,0.0,0.0,0.0,0.0,0.0,0.0,0.0,0.0,0.0,0.0,0.0,0.0,0.0,0.0,0.0,0.0,0.0,0.0,0.0,0.0,0.0,0.0,-1.9837,-1.9872,-2.0318,-1.9632,-1.9387,0.0,0.0,0.0,0.0,0.0,0.0,-1.5846,-1.5846,-1.4991,-1.3388,-1.3396,-1.276,-1.1619,-1.1619,-1.1619,-1.1619,-1.1619,-1.1619,-1.1619,-1.1619,-1.1619,-1.1619,-1.1619,-1.164,-1.1674,-1.1633,-1.1619,-1.1619,-1.1619,-1.1619,-1.1763,-1.3213,-1.3793,-1.3945,-1.5417,-1.5864,-1.5864,-1.5864,0.0,-1.6788,-1.6788,0.0,0.0,0.0,0.0,-1.7409,-1.8874,-1.8183,-1.734,-1.7782,-1.7615,-1.7872,-1.9372,-1.8803,-1.8542,0.0,-2.0888,-2.1256,-2.2645,0.0,0.0,0.0,0.0,-1.8677,-1.8213,-1.8192,-1.7502,-1.5463,-1.5154,-1.4684,-1.3116,-1.2963,-1.2963,-1.2963,-1.2963,-1.2908,-1.2793,-1.2786,-1.2739,-1.2623,0.0,0.0,0.0,0.0,0.0,0.0,0.0,0.0,0.0,0.0,0.0,0.0,0.0,0.0,0.0,0.0,0.0,0.0,0.0,0.0,0.0,0.0,0.0,0.0,0.0,0.0,0.0,0.0,0.0,-2.0777,-1.83,0.0,0.0,0.0,0.0,-1.656,-1.657,-1.5856,-1.4275,-1.4145,-1.3396,-1.1743,-1.1749,-1.1613,-1.1619,-1.1619,-1.1619,-1.1619,-1.1619,-1.1619,-1.1619,-1.1619,-1.1619,-1.1619,-1.1619,-1.1694,-1.1809,-1.1674,-1.1619,-1.1619,-1.1619,-1.1619,-1.1633,-1.1914,-1.1962,-1.1983,-1.2282,-1.2331,-1.2331,-1.2331,-1.3504,-1.4965,-1.4965,-1.6296,0.0,0.0,-1.5257,-1.5252,-1.5544,-1.5522,-1.6116,-1.8089,-1.7037,-1.5675,-1.5828,-1.5829,-1.6979,0.0,-2.0069,-1.8785,-1.8988,0.0,-1.8802,-1.9159,-1.9043,-1.8269,-1.6388,-1.6081,-1.5313,-1.3436,-1.3116,-1.3123,-1.2963,-1.2963,-1.2963,-1.2963,-1.2963,-1.2956,-1.2949,-1.2949,-1.2942,-1.2935,-1.2793,0.0,0.0,0.0,0.0,0.0,0.0,0.0,0.0,0.0,0.0,0.0,0.0,0.0,0.0,0.0,0.0,0.0,0.0,0.0,0.0,0.0,0.0,0.0,0.0,0.0,0.0,0.0,0.0,-1.817,-1.815,0.0,-1.7262,-1.6922,-1.6108,-1.5018,-1.4996,-1.4403,-1.2514,-1.2521,-1.2123,-1.1619,-1.1619,-1.1619,-1.1619,-1.1619,-1.1667,-1.1755,-1.1755,-1.1809,-1.1904,-1.1904,-1.1904,-1.1904,-1.1904,-1.1932,-1.1972,-1.1925,-1.1904,-1.1904,-1.1904,-1.1904,-1.1911,-1.1959,-1.1979,-1.1986,-1.204,-1.206,-1.2081,-1.2176,-1.2656,-1.3266,-1.3361,-1.3847,-1.4446,-1.5043,-1.4334,-1.3785,-1.5134,-1.4515,-1.3878,-1.4648,-1.4274,-1.4192,-1.5582,-1.4869,-1.4735,-1.7464,-1.7446,-1.7309,-1.8631,-1.6782,-1.5556,-1.6862,-1.604,-1.4999,-1.437,-1.4297,-1.4045,-1.3404,-1.3247,-1.3247,-1.3247,-1.3247,-1.3247,-1.3247,-1.3247,-1.32,-1.3105,-1.3098,-1.3057,-1.2963,-1.2908,-1.2881,0.0,0.0,0.0,0.0,0.0,0.0,0.0,0.0,0.0,0.0,0.0,0.0,0.0,0.0,0.0,0.0,0.0,0.0,0.0,0.0,0.0,0.0,0.0,0.0,0.0,0.0,-1.7076,-1.6425,-1.6506,-1.6284,-1.5602,-1.5238,-1.4526,-1.3279,-1.3381,-1.2888,-1.1619,-1.1619,-1.164,-1.1687,-1.1687,-1.1714,-1.1769,-1.1769,-1.1816,-1.1911,-1.1911,-1.1965,-1.206,-1.206,-1.206,-1.206,-1.206,-1.2094,-1.2142,-1.2142,-1.2169,-1.2203,-1.2101,-1.206,-1.2067,-1.2121,-1.2142,-1.2149,-1.2196,-1.221,-1.223,-1.2332,-1.2359,-1.2386,-1.2535,-1.2576,-1.2894,-1.433,-1.3737,-1.2963,-1.4353,-1.3661,-1.2807,-1.2807,-1.2888,-1.3436,-1.4684,-1.3946,-1.3507,-1.4769,-1.5034,-1.5488,-1.6801,-1.4769,-1.3528,-1.4838,-1.3987,-1.3247,-1.3247,-1.3336,-1.3403,-1.3403,-1.3403,-1.3403,-1.3403,-1.3451,-1.3458,-1.3403,-1.3451,-1.341,-1.3254,-1.3247,-1.3207,-1.3112,-1.3057,-1.301,-1.2963,0.0,0.0,0.0,0.0,0.0,0.0,0.0,0.0,0.0,0.0,0.0,0.0,0.0,0.0,0.0,0.0,0.0,0.0,0.0,0.0,0.0,0.0,0.0,-1.605,-1.4828,-1.4428,-1.605,-1.3506,-1.2093,-1.3751,-1.2514,-1.1619,-1.1619,-1.1619,-1.1619,-1.1626,-1.1626,-1.1694,-1.1837,-1.1837,-1.1911,-1.206,-1.2067,-1.2074,-1.2074,-1.2081,-1.2088,-1.2088,-1.2088,-1.2088,-1.2088,-1.2088,-1.2176,-1.2311,-1.2311,-1.2393,-1.2488,-1.2189,-1.2074,-1.2094,-1.2244,-1.2298,-1.2325,-1.2461,-1.2515,-1.2515,-1.2515,-1.2515,-1.2542,-1.2691,-1.2739,-1.2766,-1.2922,-1.2963,-1.2963,-1.2963,-1.2963,-1.2969,-1.2969,-1.2969,-1.2976,-1.2976,-1.3085,-1.318,-1.318,-1.3071,-1.3024,-1.3159,-1.318,-1.3234,-1.3383,-1.341,0.0,-1.341,-1.3417,-1.3417,-1.3417,-1.3417,-1.3417,-1.3417,-1.3553,-1.3573,-1.3424,-1.3553,-1.3566,-1.3417,-1.341,-1.3403,-1.3403,-1.3254,-1.3112,-1.2969,0.0,0.0,0.0,0.0,0.0,0.0,0.0,0.0,0.0,0.0,0.0,0.0,0.0,0.0,0.0,0.0,0.0,0.0,0.0,0.0,0.0,0.0,-1.4077,-1.4631,-1.4345,-1.385,-1.3013,-1.335,-1.3239,-1.2401,-1.1879,-1.1619,-1.1619,-1.1619,-1.166,-1.1769,-1.1775,-1.1843,-1.1993,-1.1999,-1.202,-1.206,-1.2176,-1.2277,-1.2379,-1.2494,-1.2603,-1.2712,-1.2712,-1.2712,-1.2712,-1.2712,-1.2739,-1.2779,-1.2779,-1.28,-1.2807,-1.2501,-1.2379,-1.2386,-1.2427,-1.2515,-1.2617,-1.2657,-1.2739,-1.2834,-1.2834,-1.2834,-1.284,-1.2888,-1.2895,-1.2908,-1.2949,-1.2963,-1.2963,-1.2963,-1.3037,-1.3112,-1.3112,-1.32,-1.3281,-1.3281,-1.3308,-1.3336,-1.3336,-1.3397,-1.3424,-1.3349,-1.3336,-1.339,-1.3546,-1.3566,0.0,-1.3709,-1.3722,-1.3722,-1.3722,-1.3722,-1.3722,-1.3722,-1.3756,-1.3763,-1.3722,-1.3756,-1.3715,-1.3573,-1.3566,-1.3512,-1.3403,-1.3356,-1.3261,0.0,0.0,0.0,0.0,0.0,0.0,0.0,0.0,0.0,0.0,0.0,0.0,0.0,0.0,0.0,0.0,0.0,0.0,0.0,0.0,0.0,0.0,-1.4271,-1.302,-1.302,-1.302,-1.2775,-1.1749,-1.2602,-1.2745,-1.1763,-1.1674,-1.1708,-1.1708,-1.1769,-1.1843,-1.1925,-1.1925,-1.2026,-1.2237,-1.2244,-1.2311,-1.244,-1.2528,-1.261,-1.2698,-1.2786,-1.2874,-1.2963,-1.2963,-1.2963,0.0,-1.2963,-1.2963,-1.2963,-1.2963,-1.2963,0.0,0.0,0.0,0.0,0.0,-1.2752,-1.2827,-1.2827,-1.2888,-1.2963,-1.2963,-1.2963,-1.2969,-1.303,-1.3051,-1.3064,-1.3125,-1.3146,-1.3146,-1.3146,-1.3207,-1.3268,-1.3268,-1.3383,-1.3498,-1.3498,-1.3546,-1.3587,-1.3587,0.0,0.0,-1.36,-1.3587,-1.3614,-1.3702,-1.3715,-1.3749,-1.3831,-1.3838,-1.3838,-1.3838,-1.3838,-1.3838,-1.3838,-1.3899,0.0,0.0,0.0,-1.3871,-1.3722,-1.3715,0.0,0.0,0.0,-1.3424,-1.3268,0.0,0.0,0.0,-1.2976,-1.401,0.0,0.0,0.0,0.0,0.0,0.0,0.0,0.0,0.0,0.0,0.0,0.0,0.0,0.0,0.0,0.0,-1.2888,-1.1619,-1.1619,-1.1633,-1.164,-1.1619,-1.1633,-1.1647,-1.1647,-1.1775,-1.1857,-1.1857,-1.1986,-1.2074,-1.2108,0.0,0.0,0.0,0.0,-1.2684,-1.2956,-1.2976,-1.2983,-1.2983,-1.3017,-1.3037,-1.3037,-1.3051,-1.3057,-1.3057,-1.3057,-1.3057,-1.3057,-1.3057,-1.3057,-1.3057,-1.299,-1.2963,-1.2963,-1.2963,-1.2969,0.0,-1.2983,0.0,0.0,-1.301,-1.301,-1.3037,-1.3159,-1.32,-1.3227,-1.3383,-1.3424,-1.3431,-1.3444,-1.3451,-1.3451,-1.3451,-1.3553,-1.3654,-1.3654,-1.3749,-1.3838,-1.3838,-1.3858,-1.3865,-1.3865,-1.3851,-1.3844,-1.3865,-1.3865,-1.3871,-1.3892,-1.3892,-1.3892,-1.3892,0.0,0.0,-1.3892,-1.4021,-1.4041,-1.3899,-1.4007,-1.4007,-1.3871,-1.3851,-1.3783,-1.3654,-1.3654,-1.3587,-1.3451,-1.3451,-1.3444,-1.3417,-1.3139,-1.3953,0.0,0.0,0.0,0.0,0.0,0.0,0.0,0.0,0.0,0.0,0.0,0.0,0.0,0.0,0.0,-1.4424,-1.2888,-1.1619,-1.1619,-1.1714,-1.1748,-1.1633,-1.1721,-1.1789,-1.1789,-1.1925,-1.202,-1.202,-1.2047,-1.2169,-1.2406,-1.242,0.0,-1.2861,-1.2874,-1.2901,-1.2963,-1.3071,-1.3132,-1.3132,0.0,0.0,-1.3505,-1.362,-1.3668,-1.3668,-1.3668,-1.3668,-1.3668,-1.3668,-1.3668,-1.362,-1.3146,-1.2963,-1.2963,-1.2963,-1.303,-1.3132,-1.3132,-1.3214,-1.3315,-1.3315,-1.3315,-1.3322,-1.3349,-1.3356,0.0,-1.3539,-1.3587,-1.3614,-1.3729,-1.3756,-1.3756,-1.3756,-1.3777,-1.3797,-1.3797,-1.3824,-1.3838,-1.3838,-1.3939,-1.4027,-1.4027,-1.3926,-1.3885,-1.4007,-1.4027,-1.4068,-1.4197,-1.4211,-1.4211,-1.4211,-1.4211,-1.4211,-1.4211,-1.4238,-1.4245,-1.4211,-1.4122,-1.4055,-1.4027,-1.3905,-1.3831,-1.3797,-1.3797,-1.3783,-1.3756,-1.3756,-1.3695,-1.358,-1.3397,-1.3473,0.0,0.0,0.0,0.0,0.0,0.0,0.0,0.0,0.0,0.0,0.0,-1.5839,0.0,0.0,-1.3031,-1.3031,-1.218,-1.1647,-1.1714,-1.1789,-1.1803,-1.1735,-1.1857,-1.1945,-1.1945,-1.2088,-1.2203,-1.2277,-1.2352,-1.2494,-1.2718,-1.2732,-1.2834,-1.3057,-1.3064,-1.3139,-1.3295,-1.3363,-1.3437,-1.3505,-1.3661,-1.3736,-1.3736,-1.381,-1.3838,-1.3838,-1.3838,-1.3838,-1.3838,-1.3838,-1.3838,-1.381,-1.3519,-1.3403,-1.3403,-1.3403,-1.3444,-1.3498,-1.3424,-1.3498,-1.3607,-1.3539,-1.3559,-1.362,-1.362,-1.362,-1.3634,-1.3715,-1.3736,-1.3749,-1.3824,-1.3838,-1.3838,-1.3838,-1.3899,-1.3953,-1.3953,-1.4014,-1.4068,-1.4068,-1.4129,-1.4183,-1.4183,-1.4122,-1.4095,-1.4177,-1.4183,-1.4211,-1.4292,-1.4299,-1.4299,-1.4299,-1.4299,-1.4299,-1.4299,-1.4299,-1.4299,-1.4299,-1.4231,-1.4183,-1.4183,-1.4109,-1.4034,-1.396,-1.3953,-1.3919,-1.3838,-1.3838,-1.3804,-1.3736,-1.3654,-1.3539,0.0,0.0,0.0,0.0,0.0,0.0,0.0,0.0,-1.5707,-1.4156,-1.3872,-1.3872,-1.3872,-1.2602,-1.1626,-1.1653,-1.166,-1.1708,-1.1857,-1.1904,-1.1918,-1.1918,-1.2033,-1.2115,-1.2142,-1.2284,-1.2433,-1.2583,-1.2705,-1.284,-1.2996,-1.3003,-1.3085,-1.3254,-1.3261,-1.339,-1.3668,-1.3668,-1.3729,-1.3838,-1.3871,-1.3885,-1.3885,-1.3919,-1.3933,-1.3933,-1.3933,-1.3933,-1.3933,-1.3933,-1.3933,-1.3933,-1.3933,-1.3933,-1.3919,-1.3865,-1.3838,-1.3824,-1.3709,-1.3743,-1.3824,-1.3709,-1.3749,-1.3838,-1.3838,-1.3838,-1.3844,-1.3878,-1.3885,-1.3892,-1.3919,-1.3933,-1.3933,-1.3933,-1.4027,-1.4116,-1.4116,-1.4211,-1.4299,-1.4299,-1.4299,-1.4299,-1.4299,-1.4299,-1.4299,-1.4299,-1.4299,-1.4299,-1.4299,-1.4299,-1.4299,-1.4299,-1.4299,-1.4299,-1.4299,-1.4299,-1.4299,-1.4299,-1.4299,-1.4299,-1.4299,-1.4299,-1.4245,-1.4122,-1.4116,-1.4055,-1.3933,-1.3933,-1.3912,-1.3885,-1.3885,-1.3743,-1.1608,-1.1882,-1.2137,-1.2151,-1.2158,-1.2166,0.0,0.0,-1.2187,-1.19,-1.19,-1.19,-1.19,-1.1763,-1.166,-1.1789,-1.1809,-1.1864,-1.2013,-1.2155,-1.2237,-1.2237,-1.2257,-1.2318,-1.244,-1.2589,-1.2745,-1.2895,-1.2929,-1.2996,-1.3139,-1.3152,-1.3281,-1.3566,-1.358,-1.3654,-1.3817,-1.3817,-1.3824,-1.3844,-1.398,-1.4048,-1.4048,-1.419,-1.4251,-1.4251,-1.4251,-1.4251,-1.4251,-1.4251,-1.4251,-1.4251,-1.4251,-1.4251,-1.4217,-1.3939,-1.3838,-1.3838,-1.3824,-1.3824,-1.3838,-1.3824,-1.3831,-1.3838,-1.3838,-1.3838,-1.3871,-1.4007,-1.4048,-1.4075,-1.4211,-1.4251,-1.4251,-1.4251,-1.4258,-1.4272,-1.4272,-1.4285,-1.4299,-1.4299,-1.4299,-1.4299,-1.4299,-1.4299,-1.4299,-1.4299,-1.4299,-1.4299,-1.4299,-1.4299,-1.4299,-1.4299,-1.4299,-1.4299,-1.4299,-1.4299,-1.4299,-1.4299,-1.4299,-1.4299,-1.4299,-1.4299,-1.4292,-1.4278,-1.4272,-1.4265,-1.4251,-1.4251,-1.4177,-1.4048,-1.4048,-1.3953,-1.1504,-1.1572,-1.1619,-1.1619,-1.1619,-1.1619,-1.1619,-1.1619,-1.1619,-1.1619,-1.1619,-1.1619,-1.1619,-1.1687,-1.1762,0.0,-1.1904,-1.202,-1.2176,-1.2318,-1.2447,-1.2535,-1.2623,-1.2671,-1.2637,-1.2773,-1.2922,-1.3071,-1.3085,-1.3186,-1.3424,-1.3437,-1.3532,-1.3743,-1.3749,-1.3824,-1.3973,-1.3973,-1.4021,-1.4109,-1.4177,-1.4204,-1.4204,-1.4272,-1.4299,-1.4299,-1.4299,-1.4299,-1.4299,-1.4299,-1.4299,-1.4299,-1.4299,-1.4299,-1.4285,-1.4156,-1.4109,-1.4095,-1.4007,-1.4034,-1.4095,-1.4,-1.4034,-1.4109,-1.4109,-1.4109,-1.4122,-1.4183,-1.4204,-1.4217,-1.4285,-1.4299,-1.4299,-1.4299,-1.4299,-1.4299,-1.4299,-1.4299,-1.4299,-1.4299,-1.4299,-1.4299,-1.4299,-1.4299,-1.4299,-1.4299,-1.4299,-1.4299,-1.4299,-1.4299,-1.4299,-1.4299,-1.4299,-1.4299,-1.4299,-1.4299,-1.4299,-1.4299,-1.4299,-1.4299,-1.4299,-1.4299,-1.4299,-1.4299,-1.4299,-1.4299,-1.4299,-1.4299,-1.4265,-1.4204,-1.4204,-1.417,-1.1619,-1.1619,-1.1619,-1.1619,-1.1619,-1.1619,-1.1619,-1.1619,-1.1619,-1.1619,-1.1619,-1.1633,-1.1674,-1.1762,-1.1857,-1.1945,-1.2054,-1.2189,-1.2386,-1.2501,-1.2623,-1.2773,-1.2929,-1.2976,-1.2861,-1.2956,-1.3078,-1.3227,-1.3275,-1.3397,-1.3614,-1.3668,-1.3756,-1.3899,-1.3905,-1.398,-1.4136,-1.4136,-1.419,-1.4299,-1.4299,-1.4299,-1.4299,-1.4299,-1.4299,-1.4299,-1.4299,-1.4299,-1.4299,-1.4299,-1.4299,-1.4299,-1.4299,-1.4299,-1.4299,-1.4299,-1.4299,-1.4285,-1.4177,-1.4204,-1.4285,-1.417,-1.4211,-1.4299,-1.4299,-1.4299,-1.4299,-1.4299,-1.4299,-1.4299,-1.4299,-1.4299,-1.4299,-1.4299,-1.4299,-1.4299,-1.4299,-1.4299,-1.4299,-1.4299,-1.4299,-1.4299,-1.4299,-1.4299,-1.4312,-1.4353,-1.436,-1.4346,-1.4306,-1.4299,-1.4299,-1.4299,-1.4299,-1.4299,-1.4299,-1.4299,-1.4299,-1.4299,-1.4299,-1.4299,-1.4299,-1.4299,-1.4299,-1.4299,-1.4299,-1.4299,-1.4299,-1.4299,-1.4299,-1.4299,-1.4299,-1.4299,-1.1619,-1.1619,-1.1619,-1.1619,-1.1619,-1.1619,-1.1619,-1.1619,-1.1619,-1.1619,-1.1619,-1.166,-1.1796,-1.183,-1.1925,-1.223,-1.2277,-1.2386,-1.2678,-1.2718,-1.2779,-1.2935,-1.3078,-1.3166,0.0,-1.3166,-1.3227,-1.3383,-1.3532,-1.362,-1.3627,-1.3756,-1.3905,-1.4061,-1.4061,-1.4136,-1.4292,-1.4292,-1.4292,-1.4299,-1.4299,-1.4299,-1.4299,-1.4299,-1.4299,-1.4299,-1.4299,-1.4299,-1.4299,-1.4299,-1.4299,-1.4299,-1.4299,-1.4299,-1.4299,-1.4299,-1.4299,-1.4299,-1.4292,-1.4299,-1.4299,-1.4292,-1.4299,-1.4299,-1.4299,-1.4299,-1.4299,-1.4299,-1.4299,-1.4299,-1.4299,-1.4299,-1.4299,-1.4299,-1.4299,-1.4299,-1.4299,-1.4299,-1.4299,-1.4299,-1.4299,-1.4299,-1.4299,-1.4299,-1.4346,-1.4482,-1.4502,-1.4455,-1.4319,-1.4299,-1.4299,-1.4299,-1.4299,-1.4299,-1.4299,-1.4299,-1.4299,-1.4299,-1.4299,-1.4299,-1.4299,-1.4299,-1.4299,-1.4299,-1.4299,-1.4299,-1.4299,-1.4299,-1.4299,-1.4299,-1.4299,-1.4299,-1.1619,-1.1619,-1.1619,-1.1619,-1.1619,-1.1619,-1.1619,-1.1619,-1.1619,-1.1619,-1.1619,-1.166,-1.1803,-1.1911,-1.2054,-1.2257,-1.2372,-1.2501,-1.2705,-1.282,-1.2935,-1.3085,-1.3234,0.0,0.0,0.0,0.0,-1.3546,-1.3688,-1.3817,-1.3919,-1.3966,-1.4061,-1.4217,-1.4224,-1.4245,-1.4299,-1.4299,-1.4299,-1.4299,-1.4299,-1.4299,-1.4299,-1.4299,-1.4299,-1.4299,-1.4299,-1.4299,-1.4299,-1.4299,-1.4299,-1.4299,-1.4299,-1.4299,-1.4299,-1.4299,-1.4299,-1.4299,-1.4299,-1.4299,-1.4299,-1.4299,-1.4299,-1.4299,-1.4299,-1.4299,-1.4299,-1.4299,-1.4299,-1.4299,-1.4299,-1.4299,-1.4299,-1.4299,-1.4299,-1.4299,-1.4299,-1.4373,-1.4441,-1.4441,-1.4523,-1.459,-1.459,-1.459,-1.4611,-1.4658,-1.4665,-1.4645,-1.4597,-1.459,-1.459,-1.459,-1.459,-1.459,-1.459,-1.459,-1.459,-1.459,-1.459,-1.455,-1.4441,-1.4441,-1.4394,-1.4299,-1.4299,-1.4299,-1.4299,-1.4299,-1.4299,-1.4299,-1.4299,-1.4299,-1.1619,-1.1619,-1.1619,-1.1619,-1.1619,-1.1619,-1.1619,-1.1619,-1.1619,-1.1619,-1.1619,-1.1681,-1.1877,-1.1993,-1.2128,-1.2332,-1.2488,-1.2637,-1.2793,-1.2942,-1.3091,-1.3241,-1.339,-1.3519,0.0,0.0,0.0,-1.3709,-1.3844,-1.3966,-1.4068,-1.4122,-1.4197,-1.4299,-1.4299,-1.4299,-1.4299,-1.4299,-1.4299,-1.4299,-1.4299,-1.4299,-1.4299,-1.4299,-1.4326,-1.4373,-1.4373,-1.4407,-1.4455,-1.4455,-1.4455,-1.4455,-1.4455,-1.4455,-1.4455,-1.4455,-1.4455,-1.4441,-1.434,-1.4299,-1.4299,-1.4299,-1.4299,-1.4299,-1.4299,-1.4299,-1.4312,-1.436,-1.4373,-1.4387,-1.4441,-1.4455,-1.4455,-1.4455,-1.4455,-1.4455,-1.4455,-1.4529,-1.459,-1.459,-1.4672,-1.474,-1.474,-1.4787,-1.4821,-1.4821,-1.4869,-1.4862,-1.4753,-1.474,-1.474,-1.474,-1.474,-1.474,-1.474,-1.474,-1.474,-1.474,-1.474,-1.4699,-1.4597,-1.459,-1.455,-1.4462,-1.4455,-1.4455,-1.4455,-1.4401,-1.4373,-1.4373,-1.4326,-1.4299,-1.1626,-1.1633,-1.1633,-1.164,-1.164,-1.164,-1.1633,-1.1633,-1.1626,-1.1619,-1.1619,-1.1708,0.0,0.0,-1.2155,-1.2454,-1.263,-1.2786,-1.2942,-1.3091,-1.3241,0.0,0.0,0.0,0.0,0.0,0.0,-1.3871,0.0,-1.4082,-1.4082,-1.4224,-1.4299,-1.4299,-1.4299,-1.4299,-1.4299,-1.4299,-1.4306,-1.4312,-1.4312,-1.4312,-1.4326,-1.4326,-1.4394,-1.4523,-1.4523,-1.4604,-1.474,-1.474,-1.474,-1.474,-1.474,-1.474,-1.474,-1.474,-1.474,-1.4699,-1.4421,-1.4326,-1.4326,-1.4326,-1.4326,-1.4326,-1.4326,-1.4326,-1.4353,-1.4482,-1.4523,-1.4557,-1.4706,-1.474,-1.474,-1.474,-1.474,-1.474,-1.474,-1.4746,-1.4753,-1.4753,-1.476,-1.476,-1.476,-1.4882,-1.4984,-1.4984,-1.5099,-1.5079,-1.4801,-1.476,-1.476,-1.476,-1.476,-1.476,-1.476,-1.476,-1.476,-1.476,-1.476,-1.476,-1.4753,-1.4753,-1.4746,-1.474,-1.474,-1.474,-1.474,-1.459,-1.4523,-1.4523,-1.4387,-1.4326,-1.1748,-1.1775,-1.1803,-1.1918,-1.1952,-1.1918,-1.1803,-1.1775,-1.1748,-1.164,-1.1619,-1.1708,-1.2006,0.0,0.0,-1.2454,-1.263,0.0,-1.2942,-1.318,0.0,-1.3553,0.0,-1.3831,-1.3946,-1.4027,0.0,0.0,-1.4217,-1.4245,-1.4245,-1.4278,-1.4299,-1.4299,-1.4299,-1.4299,-1.4299,-1.4299,-1.4353,-1.4455,-1.4455,-1.4516,-1.4624,-1.4624,-1.4645,-1.4679,-1.4679,-1.4706,-1.474,-1.474,-1.474,-1.474,-1.474,-1.474,-1.474,-1.474,-1.474,-1.4726,-1.4652,-1.4624,-1.4624,-1.4624,-1.4624,-1.4624,-1.4624,-1.4624,-1.4638,-1.4672,-1.4679,-1.4692,-1.4726,-1.474,-1.474,-1.474,-1.474,-1.474,-1.474,-1.4828,-1.4909,-1.4909,-1.4997,-1.5072,-1.5072,-1.5106,-1.5126,-1.5126,-1.516,-1.5153,-1.5079,-1.5072,-1.5072,-1.5072,-1.5072,-1.5072,-1.5072,-1.5072,-1.5072,-1.5072,-1.5072,-1.5025,-1.4916,-1.4909,-1.4855,-1.474,-1.474,-1.474,-1.474,-1.4699,-1.4679,-1.4679,-1.4645,-1.4624,-1.1809,-1.1877,-1.1952,-1.204,-1.2013,-1.1938,-1.185,-1.1782,-1.1714,-1.1633,-1.1619,-1.1708,-1.2006,-1.206,-1.2155,0.0,0.0,0.0,-1.2949,-1.3275,-1.3532,0.0,-1.3817,0.0,-1.4061,-1.4136,-1.4204,0.0,-1.4299,-1.4299,-1.4299,-1.4299,-1.4299,-1.4299,-1.4299,-1.4333,-1.4394,-1.4394,-1.4468,-1.4611,-1.4611,-1.4658,-1.474,-1.474,-1.478,-1.4841,0.0,-1.4875,-1.4936,-1.4936,-1.4936,-1.4936,-1.4936,-1.4936,-1.4936,-1.4936,-1.4936,-1.4936,-1.4936,-1.4936,-1.4916,-1.478,-1.474,-1.474,-1.474,-1.474,-1.4753,-1.4821,-1.4841,-1.4855,-1.4916,-1.4936,-1.4936,-1.4936,-1.4936,-1.4936,-1.4936,-1.5004,-1.5065,-1.5065,-1.5126,-1.5181,-1.5181,-1.5181,-1.5208,-1.5269,-1.5282,-1.5309,-1.5371,-1.5262,-1.5181,-1.5181,-1.5181,-1.5181,-1.5181,-1.5181,-1.5181,-1.5181,-1.5181,-1.5147,-1.5065,-1.5065,-1.5025,-1.4936,-1.4936,-1.4936,-1.4936,-1.4869,-1.4841,-1.4841,-1.4774,-1.474,-1.1857,-1.1972,-1.2094,-1.2115,-1.2006,-1.1884,-1.1864,-1.1748,-1.164,-1.1619,-1.1633,-1.1735,-1.2013,-1.2081,-1.2182,-1.2461,0.0,-1.2963,-1.2963,-1.3363,-1.3654,-1.3654,-1.3919,-1.4102,-1.4102,-1.4224,-1.4299,-1.4299,-1.4299,-1.4299,-1.4299,-1.4299,-1.4306,-1.4326,-1.4326,-1.4394,-1.4536,-1.4543,-1.4618,-1.4767,-1.4767,-1.478,-1.4801,-1.4801,-1.4869,-1.4997,0.0,0.0,-1.5181,-1.5181,-1.5181,-1.5181,-1.5181,-1.5181,-1.5181,-1.5181,-1.5194,-1.5215,-1.5215,-1.5228,-1.5194,-1.4896,-1.4801,-1.4801,-1.4801,-1.4801,-1.4828,-1.4964,-1.4997,-1.5025,-1.5153,-1.5181,-1.5181,-1.5181,-1.5181,-1.5181,-1.5181,-1.5201,-1.5215,-1.5215,-1.5228,-1.5242,-1.5242,-1.5242,-1.5289,-1.5418,-1.5438,-1.5493,-1.5622,-1.5404,-1.5242,-1.5242,-1.5242,-1.5242,-1.5242,-1.5242,-1.5242,-1.5242,-1.5242,-1.5242,-1.5242,-1.5221,-1.5215,-1.5215,-1.5194,-1.5181,-1.5181,-1.5059,-1.4997,-1.4997,-1.4862,-1.4801,-1.1986,-1.2135,-1.2277,-1.2393,-1.2318,-1.2176,-1.2054,-1.1904,-1.1762,-1.1647,-1.1714,-1.185,-1.2026,-1.2169,-1.2305,-1.2474,-1.2759,-1.2963,-1.2963,-1.3451,-1.3804,0.0,-1.4075,-1.4258,-1.4258,-1.4285,0.0,0.0,0.0,-1.4299,-1.4299,-1.4299,-1.4353,-1.4468,-1.4475,-1.455,-1.4699,-1.4699,-1.478,-1.493,-1.493,-1.4991,-1.5106,-1.5106,-1.512,-1.5147,-1.5147,0.0,-1.5181,-1.5181,-1.5181,-1.5181,-1.5181,-1.5181,-1.5181,-1.5181,-1.5262,-1.5371,-1.5371,-1.5452,-1.5506,-1.5208,-1.5106,-1.5106,-1.5106,-1.5106,-1.5113,-1.514,-1.5147,-1.5153,-1.5174,-1.5181,-1.5181,-1.5181,-1.5181,-1.5181,-1.5181,-1.5282,-1.5371,-1.5371,-1.5472,-1.556,-1.556,-1.556,-1.5567,-1.5594,-1.5601,-1.5608,-1.5635,-1.5594,-1.556,-1.556,-1.556,-1.556,-1.556,-1.556,-1.556,-1.556,-1.556,-1.556,-1.556,-1.5438,-1.5371,-1.5371,-1.5248,-1.5181,-1.5181,-1.516,-1.5147,-1.5147,-1.512,-1.5106,-1.204,-1.223,-1.24,-1.2393,-1.2277,-1.2135,-1.1979,-1.183,-1.1701,-1.1633,-1.1735,-1.1877,-1.2033,-1.2189,-1.2338,-1.2481,-1.2759,-1.2963,-1.2963,-1.3471,-1.3838,-1.3838,-1.4116,-1.4299,-1.4299,-1.4299,-1.4299,-1.4299,0.0,-1.438,-1.4306,-1.4373,-1.4475,-1.4624,-1.4631,-1.4706,-1.4862,-1.4862,-1.4936,-1.5079,-1.5079,-1.512,-1.5181,-1.5181,-1.5181,-1.5181,-1.5181,0.0,-1.5181,-1.5181,-1.5228,-1.5303,-1.5303,-1.535,-1.5418,-1.5418,-1.5466,-1.5527,-1.5527,-1.5581,-1.5615,-1.5466,-1.5418,-1.5418,-1.5418,-1.5418,-1.5418,-1.5418,-1.5418,-1.5418,-1.5418,-1.5418,-1.5418,-1.5418,-1.5418,-1.5418,-1.5418,-1.5479,-1.5527,-1.5527,-1.5588,-1.5642,-1.5642,-1.5642,-1.5662,-1.5737,-1.575,-1.5778,-1.5859,-1.5872,-1.5811,-1.5655,-1.5642,-1.5642,-1.5642,-1.5642,-1.5642,-1.5642,-1.5642,-1.5642,-1.5642,-1.5567,-1.5527,-1.5527,-1.5459,-1.5418,-1.5418,-1.5418,-1.5377,-1.5303,-1.5303,-1.5255,-1.2013,-1.2203,-1.2379,-1.2271,-1.2128,-1.1979,-1.1857,-1.1721,-1.1619,-1.1619,-1.1762,-1.1918,-1.204,-1.221,-1.2372,-1.2481,-1.2759,-1.2963,-1.2963,-1.3471,-1.3838,-1.3838,-1.4116,0.0,-1.4299,-1.4299,0.0,-1.434,0.0,0.0,-1.4401,-1.4502,-1.4631,-1.4787,-1.4787,-1.4862,-1.5018,-1.5018,-1.5072,-1.5181,-1.5181,-1.5181,-1.5181,-1.5181,-1.5181,-1.5181,-1.5181,0.0,0.0,-1.5228,-1.5323,-1.5459,-1.5459,-1.5533,-1.5642,-1.5642,-1.5655,-1.5683,-1.5683,-1.571,-1.5737,-1.5737,-1.5689,-1.5642,-1.5642,-1.5642,-1.5642,-1.5642,-1.5642,-1.5642,-1.5642,-1.5642,-1.5642,-1.5642,-1.5642,-1.5642,-1.5642,-1.5662,-1.5683,-1.5683,-1.571,-1.5737,-1.5737,-1.5737,-1.5771,-1.5886,-1.59,-1.5947,-1.6069,-1.6083,-1.5995,-1.5757,-1.5737,-1.5737,-1.5737,-1.5737,-1.5737,-1.5737,-1.5737,-1.5737,-1.5737,-1.5703,-1.5683,-1.5683,-1.5655,-1.5642,-1.5642,-1.5642,-1.5581,-1.5459,-1.5459,-1.5398,-1.185,-1.1972,-1.2101,-1.2088,-1.1965,-1.185,-1.1837,-1.1721,-1.1619,-1.1619,-1.1843,-1.2047,-1.206,-1.2291,-1.2488,-1.2501,-1.2759,-1.2963,-1.2963,-1.3471,-1.3838,-1.3838,-1.4116,-1.4299,-1.4299,-1.4299,-1.4353,-1.4482,0.0,0.0,-1.4699,-1.4713,-1.4787,-1.4943,-1.495,-1.5018,-1.516,-1.516,-1.5167,-1.5181,-1.5181,-1.5181,-1.5181,-1.5181,-1.5181,-1.5181,-1.5181,0.0,0.0,-1.5391,-1.5479,-1.5615,-1.5615,-1.5628,-1.5642,-1.5642,-1.5723,-1.5832,-1.5832,-1.5927,-1.6042,-1.6042,-1.5859,-1.5642,-1.5642,-1.5642,-1.5642,-1.5642,-1.5642,-1.5642,-1.5642,-1.5642,-1.5642,-1.5642,-1.5642,-1.5642,-1.5642,-1.5744,-1.5832,-1.5832,-1.5947,-1.6042,-1.6042,-1.6042,-1.6049,-1.6056,-1.6062,-1.6069,-1.6083,-1.6083,-1.6069,-1.6042,-1.6042,-1.6042,-1.6042,-1.6042,-1.6042,-1.6042,-1.6042,-1.6042,-1.6042,-1.5906,-1.5832,-1.5832,-1.5703,-1.5642,-1.5642,-1.5642,-1.5635,-1.5615,-1.5615,-1.5608,-1.183,-1.1945,-1.204,-1.1945,-1.1877,-1.1809,-1.1721,-1.166,-1.1619,-1.1619,-1.1857,-1.206,-1.206,-1.2305,-1.2501,-1.2501,-1.2759,-1.2963,-1.2963,-1.3471,-1.3838,-1.3838,-1.4116,-1.4299,0.0,0.0,-1.4394,0.0,0.0,0.0,-1.5004,-1.4923,-1.4943,-1.5092,-1.5099,-1.5126,-1.5181,-1.5181,-1.5181,-1.5181,-1.5181,-1.5181,-1.5181,-1.5181,-1.5235,-1.5316,-1.5316,0.0,0.0,-1.5547,-1.5635,-1.5771,-1.5771,-1.5825,-1.5906,-1.5906,-1.594,-1.5988,-1.5988,-1.6029,-1.6083,-1.6083,-1.6001,-1.5906,-1.5906,-1.5906,-1.5906,-1.5906,-1.5906,-1.5906,-1.5906,-1.5906,-1.5906,-1.5906,-1.5906,-1.5906,-1.5906,-1.5954,-1.5988,-1.5988,-1.6042,-1.6083,-1.6083,-1.6083,-1.6083,-1.6083,-1.6083,-1.6083,-1.6083,-1.6083,-1.6083,-1.6083,-1.6083,-1.6083,-1.6083,-1.6083,-1.6083,-1.6083,-1.6083,-1.6083,-1.6083,-1.6022,-1.5988,-1.5988,-1.5934,-1.5906,-1.5906,-1.5906,-1.5859,-1.5771,-1.5771,-1.5723,-1.1769,-1.185,-1.1904,-1.1796,-1.1769,-1.1742,-1.164,-1.1619,-1.1619,-1.1619,-1.1857,-1.206,-1.206,-1.2305,-1.2501,-1.2501,-1.2759,-1.2963,-1.2963,-1.3471,-1.3838,-1.3838,0.0,-1.4299,0.0,-1.438,-1.4536,0.0,0.0,0.0,-1.5174,-1.5086,-1.5079,-1.5181,-1.5181,-1.5181,-1.5181,-1.5181,-1.5181,-1.5181,-1.5181,-1.5208,-1.5248,-1.5248,-1.5337,-1.5479,0.0,0.0,0.0,-1.5703,-1.5791,-1.592,-1.592,-1.5988,-1.6083,-1.6083,-1.6083,-1.6083,-1.6083,-1.6083,-1.6083,-1.6083,-1.6083,-1.6083,-1.6083,-1.6083,-1.6083,-1.6083,-1.6083,-1.6083,-1.6083,-1.6083,-1.6083,-1.6083,-1.6083,-1.6083,-1.6083,-1.6083,-1.6083,-1.6083,-1.6083,-1.6083,-1.6083,-1.6083,-1.6083,-1.6083,-1.6083,-1.6083,-1.6083,-1.6083,-1.6083,-1.6083,-1.6083,-1.6083,-1.6083,-1.6083,-1.6083,-1.6083,-1.6083,-1.6083,-1.6083,-1.6083,-1.6083,-1.6083,-1.6083,-1.6083,-1.6083,-1.6083,-1.6029,-1.592,-1.592,-1.5866,-1.1619,-1.1619,-1.1619,-1.1619,-1.1619,-1.1619,-1.1619,-1.1619,-1.1619,-1.1619,-1.1857,-1.206,-1.206,-1.2305,-1.2501,-1.2501,-1.2759,-1.2963,-1.2963,-1.3471,-1.3838,-1.3838,-1.4116,-1.4299,-1.4299,-1.4563,-1.4801,0.0,0.0,0.0,-1.5181,-1.5181,-1.5181,-1.5181,-1.5181,-1.5181,-1.5181,-1.5181,-1.5181,-1.5181,-1.5181,-1.5262,-1.5411,-1.5411,-1.5493,0.0,0.0,0.0,0.0,-1.5852,-1.594,-1.6083,-1.6083,-1.6083,-1.6083,-1.6083,-1.6083,-1.6083,-1.6083,-1.6083,-1.6083,-1.6083,-1.6083,-1.6083,-1.6083,-1.6083,-1.6083,-1.6083,-1.6083,-1.6083,-1.6083,-1.6083,-1.6083,-1.6083,-1.6083,-1.6083,-1.6083,-1.6083,-1.6083,-1.6083,-1.6083,-1.6083,-1.6083,-1.6083,-1.6083,-1.6083,-1.6083,-1.6083,-1.6083,-1.6083,-1.6083,-1.6083,-1.6083,-1.6083,-1.6083,-1.6083,-1.6083,-1.6083,-1.6083,-1.6083,-1.6083,-1.6083,-1.6083,-1.6083,-1.6083,-1.6083,-1.6083,-1.6083,-1.6083,-1.6083,-1.6083,-1.6076,-1.1619,-1.1619,-1.1619,-1.1619,-1.1619,-1.1619,-1.1619,-1.1619,-1.1619,-1.1619,-1.1857,-1.206,-1.206,-1.2305,-1.2501,-1.2501,-1.2759,-1.2963,-1.2963,-1.3471,-1.3838,-1.3838,-1.4116,-1.434,0.0,0.0,0.0,0.0,0.0,0.0,-1.5181,-1.5181,-1.5181,-1.5181,-1.5181,-1.5181,-1.5181,-1.5289,-1.5337,-1.5343,-1.5445,-1.552,-1.5567,-1.5567,-1.5649,0.0,0.0,0.0,0.0,-1.6008,-1.6035,-1.6083,-1.6083,-1.6083,-1.6083,-1.6083,-1.6083,-1.6083,-1.6083,-1.6083,-1.6083,-1.6083,-1.6083,-1.6083,-1.6083,-1.6083,-1.6083,-1.6083,-1.6083,-1.6083,-1.6083,-1.6083,-1.6083,-1.6083,-1.6083,-1.6083,-1.6083,-1.6083,-1.6083,-1.6083,-1.6083,-1.6083,-1.6083,-1.6083,-1.6083,-1.6083,-1.6083,-1.6083,-1.6083,-1.6083,-1.6083,-1.6083,-1.6083,-1.6083,-1.6083,-1.6083,-1.6083,-1.6083,-1.6083,-1.6083,-1.6083,-1.6083,-1.6083,-1.6083,-1.6083,-1.6083,-1.6083,-1.6083,-1.6083,-1.6083,-1.6083,-1.6083,-1.1619,-1.1619,-1.1619,-1.1619,-1.1619,-1.1619,-1.1619,-1.1619,-1.1619,-1.1619,-1.1857,-1.206,-1.206,-1.2305,-1.2501,-1.2501,-1.2759,-1.2983,-1.303,-1.3505,0.0,-1.4,0.0,0.0,0.0,0.0,0.0,0.0,0.0,0.0,-1.5181,-1.5181,-1.5208,-1.5269,-1.5215,-1.5208,-1.5269,-1.5364,-1.5438,-1.5499,-1.5594,-1.5669,-1.5716,-1.5716,-1.5798,0.0,0.0,0.0,0.0,-1.6083,-1.6083,-1.6083,-1.6083,-1.6083,-1.6083,-1.6083,-1.6083,-1.6083,-1.6083,-1.6083,-1.6083,-1.6083,-1.6083,-1.6083,-1.6083,-1.6083,-1.6083,-1.6083,-1.6083,-1.6083,-1.6083,-1.6083,-1.6083,-1.6083,-1.6083,-1.6083,-1.6083,-1.6083,-1.6083,-1.6083,-1.6083,-1.6083,-1.6083,-1.6083,-1.6083,-1.6083,-1.6083,-1.6083,-1.6083,-1.6083,-1.6083,-1.6083,-1.6083,-1.6083,-1.6083,-1.6083,-1.6083,-1.6083,-1.6083,-1.6083,-1.6083,-1.6083,-1.6083,-1.6083,-1.6083,-1.6083,-1.6083,-1.6083,-1.6083,-1.6083,-1.6083,-1.6083,0.0,-1.1619,-1.1619,-1.1619,-1.1619,-1.1619,-1.1619,-1.1619,0.0,-1.1619,-1.1857,-1.206,-1.206,-1.2305,-1.2508,-1.2515,-1.2766,-1.3017,-1.3166,-1.3573,0.0,0.0,-1.4306,0.0,0.0,0.0,0.0,0.0,0.0,0.0,-1.5181,-1.5194,-1.5262,-1.5404,-1.5282,-1.5282,-1.5425,-1.5438,-1.5513,-1.5655,-1.5662,-1.5744,-1.5866,-1.5866,-1.5947,0.0,0.0,0.0,0.0,-1.6083,-1.6083,-1.6083,-1.6083,-1.6083,-1.6083,-1.6083,-1.6083,-1.6083,-1.6083,-1.6083,-1.6083,-1.6096,-1.6096,-1.6096,-1.611,-1.6096,-1.6083,-1.6083,-1.6083,-1.6083,-1.6083,-1.6083,-1.6083,-1.6083,-1.6083,-1.6083,-1.6083,-1.6083,-1.6083,-1.6083,-1.6083,-1.6083,-1.6083,-1.6083,-1.6083,-1.6083,-1.6083,-1.6083,-1.6083,-1.6083,-1.6083,-1.6083,-1.6083,-1.6083,-1.6083,-1.6083,-1.6083,-1.6083,-1.6083,-1.6083,-1.6083,-1.6083,-1.6083,-1.6083,-1.6083,-1.6083,-1.6083,-1.6083,-1.6083,-1.6083,-1.6083,-1.6083,-1.1619,0.0,-1.1619,-1.1619,-1.1619,-1.1619,0.0,0.0,0.0,0.0,0.0,-1.206,-1.206,-1.2305,-1.2542,-1.2657,-1.2834,-1.3051,-1.3308,-1.3736,0.0,-1.4278,-1.4394,0.0,0.0,0.0,0.0,0.0,0.0,-1.5181,-1.5181,-1.5296,-1.5371,-1.5411,-1.5493,-1.5547,-1.5588,-1.5696,-1.5771,-1.5805,-1.592,-1.5995,-1.6029,-1.6029,0.0,0.0,0.0,0.0,-1.6083,-1.6083,-1.6083,-1.6083,-1.6083,-1.6083,-1.6083,-1.6083,-1.6083,-1.6083,-1.6083,-1.6083,-1.6103,-1.6218,-1.6252,-1.6279,-1.6388,-1.6259,-1.6083,-1.6083,-1.6083,-1.6083,-1.6083,-1.6083,-1.6083,-1.6083,-1.6083,-1.6083,-1.6083,-1.6083,-1.6083,-1.6083,-1.6083,-1.6083,-1.6083,-1.6083,-1.6083,-1.6083,-1.6083,-1.6083,-1.6083,-1.6083,-1.6083,-1.6083,-1.6083,-1.6083,-1.6083,-1.6083,-1.6083,-1.6083,-1.6083,-1.6083,-1.6083,-1.6083,-1.6083,-1.6083,-1.6083,-1.6083,-1.6083,-1.6083,-1.6083,-1.6083,-1.6083,-1.6083,-1.1619,-1.1619,-1.1619,-1.1619,-1.1619,-1.1619,-1.1619,0.0,0.0,0.0,0.0,-1.2081,-1.2155,-1.2352,-1.2556,-1.2705,-1.2861,-1.3112,-1.3539,0.0,-1.4204,-1.4292,-1.4428,0.0,0.0,0.0,0.0,0.0,0.0,-1.5181,-1.5181,-1.533,-1.5445,-1.5513,-1.5662,-1.5737,-1.5737,-1.5811,-1.5886,-1.5961,-1.6042,-1.6083,-1.6083,-1.6083,-1.6083,0.0,0.0,0.0,-1.6083,-1.6083,-1.6083,-1.6083,-1.6083,-1.6083,-1.6083,-1.6083,-1.6083,-1.6083,-1.6083,-1.613,-1.6212,-1.6361,-1.6408,-1.6422,-1.6497,-1.6408,-1.6286,-1.6286,-1.6286,-1.6286,-1.6286,-1.6286,-1.6266,-1.6198,-1.6185,-1.6164,-1.6096,-1.6083,-1.6083,-1.6083,-1.6083,-1.6083,-1.6083,-1.6083,-1.6083,-1.6083,-1.6083,-1.6083,-1.6083,-1.6083,-1.6083,-1.6083,-1.6083,-1.6083,-1.6083,-1.6083,-1.6083,-1.6083,-1.6083,-1.6083,-1.6083,-1.6083,-1.6083,-1.6083,-1.6083,-1.6083,-1.6083,-1.6083,-1.6083,-1.6083,-1.6083,-1.6083,-1.1619,-1.1619,-1.1619,-1.1619,-1.1619,-1.1619,-1.1619,0.0,0.0,0.0,0.0,0.0,0.0,-1.2427,0.0,-1.2739,-1.2949,-1.3275,-1.3804,-1.4122,-1.4299,-1.4299,-1.4448,0.0,0.0,0.0,0.0,0.0,0.0,-1.5194,-1.5215,-1.5364,-1.5513,-1.5669,-1.5811,-1.5886,-1.5886,-1.5886,-1.5954,-1.6083,-1.6083,-1.6083,-1.6083,-1.6083,-1.6083,0.0,0.0,0.0,-1.6083,-1.6083,-1.6083,-1.6083,-1.6083,-1.6083,-1.6083,-1.6083,-1.6083,-1.6083,-1.611,-1.6218,-1.6368,-1.651,-1.6558,-1.6558,-1.6585,-1.6592,-1.6592,-1.6592,-1.6558,-1.6524,-1.6524,-1.6524,-1.649,-1.6374,-1.6341,-1.6307,-1.6178,-1.6151,-1.6151,-1.6151,-1.6151,-1.6144,-1.6123,-1.6117,-1.611,-1.6083,-1.6083,-1.6083,-1.6083,-1.6083,-1.6083,-1.6083,-1.6083,-1.6083,-1.6083,-1.6083,-1.6083,-1.6083,-1.6083,-1.6083,-1.6083,-1.6083,-1.6083,-1.6083,-1.6083,-1.6083,-1.6083,-1.6083,-1.6083,-1.6083,-1.6083,-1.6083,-1.1619,-1.1619,-1.1619,-1.1619,-1.1619,-1.1619,-1.1619,0.0,0.0,0.0,0.0,0.0,0.0,-1.2515,-1.2745,0.0,0.0,-1.3783,0.0,0.0,-1.4299,0.0,0.0,0.0,0.0,0.0,0.0,0.0,0.0,-1.5242,-1.5371,-1.552,-1.5669,-1.5818,-1.5967,-1.6049,-1.6049,-1.6049,-1.6056,-1.6083,-1.6083,-1.6083,-1.6083,-1.6083,-1.6083,0.0,0.0,-1.6083,-1.6083,-1.6083,-1.6083,-1.6083,-1.6083,-1.6083,-1.6083,-1.6083,-1.6083,-1.6103,-1.6232,-1.6368,-1.6517,-1.6666,-1.6714,-1.6741,-1.687,-1.691,-1.691,-1.691,-1.672,-1.6524,-1.6524,-1.6524,-1.6517,-1.6497,-1.649,-1.6483,-1.6463,-1.6456,-1.6456,-1.6456,-1.6456,-1.6415,-1.6293,-1.6273,-1.6232,-1.6103,-1.6083,-1.6083,-1.6083,-1.6083,-1.6083,-1.6083,-1.6083,-1.6083,-1.6083,-1.6083,-1.6083,-1.6083,-1.6083,-1.6083,-1.6083,-1.6083,-1.6083,-1.6083,-1.6083,-1.6083,-1.6083,-1.6083,-1.6083,-1.6083,-1.6083,-1.6083,-1.1619,-1.1619,-1.1619,-1.1619,-1.1619,-1.1619,-1.1619,0.0,0.0,0.0,0.0,0.0,0.0,0.0,-1.2834,0.0,0.0,0.0,0.0,0.0,0.0,0.0,0.0,0.0,0.0,0.0,0.0,0.0,0.0,0.0,-1.5404,-1.5554,-1.5703,-1.5845,-1.6001,-1.6083,-1.6083,-1.6083,-1.6083,-1.6083,-1.6083,-1.6083,-1.6083,-1.6083,-1.6083,-1.6083,0.0,-1.6083,-1.6083,-1.6083,-1.6083,-1.6083,-1.6083,-1.6083,-1.609,-1.6178,-1.6252,-1.6341,-1.6497,-1.6592,-1.6673,-1.6822,-1.6876,-1.689,-1.6958,-1.6978,-1.6978,-1.6978,-1.6876,-1.6768,-1.6768,-1.6768,-1.6748,-1.6666,-1.6646,-1.6619,-1.6537,-1.6524,-1.6524,-1.6524,-1.6524,-1.6503,-1.6435,-1.6422,-1.6402,-1.6327,-1.632,-1.632,-1.632,-1.632,-1.632,-1.632,-1.632,-1.632,-1.632,-1.632,-1.6252,-1.609,-1.6083,-1.6083,-1.6083,-1.6083,-1.6083,-1.6083,-1.6083,-1.6083,-1.6083,-1.6083,-1.6083,-1.6083,-1.6083,-1.6083,-1.1619,-1.1619,-1.1619,-1.1619,0.0,-1.1619,-1.1619,0.0,0.0,0.0,0.0,0.0,0.0,-1.2739,0.0,0.0,0.0,0.0,0.0,0.0,0.0,0.0,0.0,0.0,0.0,0.0,0.0,0.0,0.0,0.0,-1.5452,-1.5574,-1.5723,-1.59,-1.6022,-1.6083,-1.6083,-1.6083,-1.6083,-1.6083,-1.6083,-1.6083,-1.6083,-1.6083,-1.6083,-1.6083,-1.6083,-1.6083,-1.6083,-1.6083,-1.6083,-1.6083,-1.6083,-1.6103,-1.6151,-1.6307,-1.6449,-1.6592,-1.6707,-1.6775,-1.6822,-1.6944,-1.6978,-1.6978,-1.6978,-1.6978,-1.6978,-1.6978,-1.6978,-1.6978,-1.6978,-1.6978,-1.6951,-1.6829,-1.6802,-1.6768,-1.6653,-1.6632,-1.6632,-1.6632,-1.6632,-1.6619,-1.6578,-1.6571,-1.6564,-1.6524,-1.6524,-1.6524,-1.6524,-1.6524,-1.6524,-1.6524,-1.6524,-1.6524,-1.6524,-1.6524,-1.6422,-1.6198,-1.6185,-1.6185,-1.6185,-1.6151,-1.6137,-1.6137,-1.6096,-1.6083,-1.6083,-1.6083,-1.6083,-1.6083,-1.6083,-1.6083,-1.1619,-1.1619,-1.1619,-1.1619,-1.1619,0.0,-1.1619,0.0,0.0,0.0,0.0,0.0,0.0,-1.3064,-1.3451,0.0,0.0,0.0,0.0,0.0,0.0,0.0,0.0,0.0,0.0,0.0,0.0,0.0,0.0,0.0,-1.5608,-1.5635,-1.5771,-1.6056,-1.6076,-1.6083,-1.6083,-1.6083,-1.6083,-1.6083,-1.6083,-1.6083,-1.6083,-1.6083,-1.6083,-1.6083,-1.6083,-1.6083,-1.6083,-1.6083,-1.6083,-1.6083,-1.6083,-1.6171,-1.6307,-1.6456,-1.6605,-1.6734,-1.6748,-1.6842,-1.6965,-1.6978,-1.6978,-1.6978,-1.6978,-1.6978,-1.6978,-1.6978,-1.6978,-1.6978,-1.6978,-1.6978,-1.6978,-1.6965,-1.6965,-1.6965,-1.6951,-1.6944,-1.6944,-1.6944,-1.6944,-1.6904,-1.6761,-1.6734,-1.6686,-1.6544,-1.6524,-1.6524,-1.6524,-1.6524,-1.6524,-1.6524,-1.6524,-1.6524,-1.6524,-1.6524,-1.651,-1.649,-1.649,-1.649,-1.649,-1.6361,-1.6293,-1.6293,-1.6151,-1.6083,-1.6083,-1.6083,-1.6083,-1.6083,-1.6083,-1.6083,-1.1619,-1.1619,-1.1619,-1.1619,0.0,0.0,0.0,0.0,0.0,0.0,0.0,0.0,0.0,0.0,0.0,0.0,0.0,0.0,0.0,0.0,0.0,0.0,0.0,0.0,0.0,0.0,0.0,0.0,0.0,0.0,-1.5628,-1.5723,-1.5866,-1.6076,-1.6083,-1.6083,-1.6083,-1.6083,-1.6083,-1.6083,-1.6083,-1.6083,-1.6083,-1.6083,-1.6083,-1.6083,-1.6083,-1.6083,-1.6083,-1.6083,-1.6083,-1.609,-1.6185,-1.6374,-1.6592,-1.6646,-1.6761,-1.6897,-1.6897,-1.6931,-1.6978,-1.6978,-1.6978,-1.6978,-1.6978,-1.6978,-1.6978,-1.6978,-1.6978,-1.6978,-1.6978,-1.6978,-1.6978,-1.6978,-1.6978,-1.6978,-1.6978,-1.6978,-1.6978,-1.6978,-1.6978,-1.6965,-1.6904,-1.6897,-1.6876,-1.6815,-1.6809,-1.6809,-1.6809,-1.6809,-1.6809,-1.6809,-1.6809,-1.6809,-1.6809,-1.6809,-1.6809,-1.6809,-1.6625,-1.6524,-1.6524,-1.6469,-1.6442,-1.6442,-1.6381,-1.6354,-1.6354,-1.6354,-1.6313,-1.6225,-1.6225,-1.6171,-1.1619,-1.1619,-1.1619,0.0,0.0,0.0,0.0,0.0,0.0,0.0,0.0,0.0,0.0,0.0,0.0,0.0,0.0,0.0,0.0,0.0,0.0,0.0,0.0,0.0,0.0,0.0,0.0,0.0,0.0,0.0,0.0,-1.5778,-1.5927,-1.6076,-1.6083,-1.6083,-1.6083,-1.6083,-1.6083,-1.6083,-1.6083,-1.6083,-1.6083,-1.6083,-1.6083,-1.6083,-1.6083,-1.6083,-1.6083,-1.6083,-1.611,-1.6171,-1.6374,-1.6571,-1.6754,-1.6802,-1.689,-1.6978,-1.6978,-1.6978,-1.6978,-1.6978,-1.6978,-1.6978,-1.6978,-1.6978,-1.6978,-1.6978,-1.6978,-1.6978,-1.6978,-1.6978,-1.6978,-1.6978,-1.6978,-1.6978,-1.6978,-1.6978,-1.6978,-1.6978,-1.6978,-1.6978,-1.6978,-1.6978,-1.6978,-1.6978,-1.6978,-1.6978,-1.6978,-1.6978,-1.6978,-1.6978,-1.6978,-1.6978,-1.6978,-1.6978,-1.6978,-1.6978,-1.6781,-1.6666,-1.6666,-1.6619,-1.6592,-1.6592,-1.6544,-1.6524,-1.6524,-1.6524,-1.6469,-1.6374,-1.6374,-1.632,-1.1619,-1.1619,-1.1619,0.0,0.0,0.0,0.0,0.0,0.0,0.0,0.0,0.0,0.0,0.0,0.0,0.0,0.0,0.0,0.0,0.0,0.0,0.0,0.0,0.0,0.0,0.0,0.0,0.0,0.0,0.0,0.0,-1.5778,-1.5927,-1.6076,-1.6083,-1.6083,-1.6083,-1.6083,-1.6083,-1.6083,-1.6083,-1.6083,-1.6083,-1.6083,-1.6083,-1.6083,-1.6083,-1.6083,-1.6083,-1.6083,-1.6178,-1.6341,-1.6632,-1.6754,-1.6768,-1.6924,-1.6978,-1.6978,-1.6978,-1.6978,-1.6978,-1.6978,-1.6978,-1.6978,-1.6978,-1.6978,-1.6978,-1.6978,-1.6978,-1.6978,-1.6978,-1.6978,-1.6978,-1.6978,-1.6978,-1.6978,-1.6978,-1.6978,-1.6978,-1.6978,-1.6978,-1.6978,-1.6978,-1.6978,-1.6978,-1.6978,-1.6978,-1.6978,-1.6978,-1.6978,-1.6978,-1.6978,-1.6978,-1.6978,-1.6978,-1.6978,-1.6978,-1.6978,-1.6978,-1.6978,-1.6978,-1.6836,-1.6754,-1.6754,-1.6605,-1.6524,-1.6524,-1.6524,-1.6524,-1.6524,-1.6524,-1.6524,-1.1619,-1.1619,0.0,-1.1742,0.0,0.0,0.0,0.0,0.0,0.0,0.0,0.0,0.0,0.0,0.0,0.0,0.0,0.0,0.0,0.0,0.0,0.0,0.0,0.0,0.0,0.0,0.0,0.0,0.0,0.0,0.0,-1.5879,-1.6035,-1.6083,-1.6083,-1.6083,-1.6083,-1.6083,-1.6083,-1.6083,-1.6083,-1.6083,-1.6083,-1.6083,-1.6083,-1.6083,-1.6083,-1.6083,-1.609,-1.6198,-1.6388,-1.6625,-1.6714,-1.6815,-1.6917,-1.6965,-1.6978,-1.6978,-1.6978,-1.6978,-1.6978,-1.6978,-1.6978,-1.6978,-1.6978,-1.6978,-1.6978,-1.6978,-1.6978,-1.6978,-1.6978,-1.6978,-1.6978,-1.6978,-1.6978,-1.6978,-1.6978,-1.6978,-1.6978,-1.6978,-1.6978,-1.6978,-1.6978,-1.6978,-1.6978,-1.6978,-1.6978,-1.6978,-1.6978,-1.6978,-1.6978,-1.6978,-1.6978,-1.6978,-1.6978,-1.6978,-1.6978,-1.6978,-1.6978,-1.6978,-1.6978,-1.6937,-1.691,-1.691,-1.687,-1.6842,-1.6842,-1.6842,-1.6788,-1.668,-1.668,-1.6625,-1.1619,-1.1619,0.0,-1.1796,-1.1993,-1.2264,-1.2678,0.0,0.0,0.0,0.0,0.0,0.0,0.0,0.0,0.0,0.0,0.0,0.0,0.0,0.0,0.0,0.0,0.0,0.0,0.0,0.0,0.0,0.0,0.0,0.0,-1.592,-1.6083,-1.6083,-1.6083,-1.6083,-1.6083,-1.6083,-1.6083,-1.6083,-1.6083,-1.6083,-1.6083,-1.6083,-1.6083,-1.6083,-1.6144,-1.6171,-1.6191,-1.6395,-1.6592,-1.6754,-1.6815,-1.6897,-1.6978,-1.6978,-1.6978,-1.6978,-1.6978,-1.6978,-1.6978,-1.6978,-1.6978,-1.6978,-1.6978,-1.6978,-1.6978,-1.6978,-1.6978,-1.6978,-1.6978,-1.6978,-1.6978,-1.6978,-1.6978,-1.6978,-1.6978,-1.6978,-1.6978,-1.6978,-1.6978,-1.6978,-1.6978,-1.6978,-1.6978,-1.6978,-1.6978,-1.6978,-1.6978,-1.6978,-1.6978,-1.6978,-1.6978,-1.6978,-1.6978,-1.6978,-1.6978,-1.6978,-1.6978,-1.6978,-1.6978,-1.6978,-1.6978,-1.6978,-1.6978,-1.6978,-1.6978,-1.6978,-1.6931,-1.6842,-1.6842,-1.6788,-1.1619,-1.1626,0.0,-1.1816,-1.2101,0.0,-1.3064,0.0,-1.3254,0.0,0.0,0.0,0.0,0.0,0.0,0.0,0.0,0.0,0.0,0.0,0.0,0.0,0.0,0.0,0.0,0.0,0.0,0.0,0.0,0.0,0.0,-1.5927,-1.6083,-1.6083,-1.6083,-1.6083,-1.6083,-1.6083,-1.6083,0.0,-1.6083,-1.6083,-1.6083,-1.6083,-1.609,-1.611,-1.6252,-1.6327,-1.6374,-1.6639,-1.6761,-1.6788,-1.6924,-1.6978,-1.6978,-1.6978,-1.6978,-1.6978,-1.6978,-1.6978,-1.6978,-1.6978,-1.6978,-1.6978,-1.6978,-1.6978,-1.6978,-1.6978,-1.6978,-1.6978,-1.6978,-1.6978,-1.6978,-1.6978,-1.6978,-1.6978,-1.6978,-1.6978,-1.6978,-1.6978,-1.6978,-1.6978,-1.6978,-1.6978,-1.6978,-1.6978,-1.6978,-1.6978,-1.6978,-1.6978,-1.6978,-1.6978,-1.6978,-1.6978,-1.6978,-1.6978,-1.6978,-1.6978,-1.6978,-1.6978,-1.6978,-1.6978,-1.6978,-1.6978,-1.6978,-1.6978,-1.6978,-1.6978,-1.6978,-1.6978,-1.6978,-1.6978,-1.1619,-1.1701,0.0,0.0,-1.242,-1.2908,-1.3268,-1.3444,-1.3573,-1.3715,-1.3892,0.0,0.0,0.0,0.0,0.0,0.0,0.0,0.0,0.0,0.0,0.0,0.0,0.0,0.0,0.0,0.0,0.0,0.0,0.0,-1.5683,-1.5961,-1.611,-1.6083,-1.6083,-1.6083,-1.6083,-1.6083,-1.6083,0.0,-1.6083,-1.6083,-1.6083,-1.6083,-1.6144,-1.6259,-1.6293,-1.6442,-1.6659,-1.672,-1.6822,-1.6937,-1.6971,-1.6978,-1.6978,-1.6978,-1.6978,-1.6978,-1.6978,-1.6978,-1.6978,-1.6978,-1.6978,-1.6978,-1.6978,-1.6978,-1.6978,-1.6978,-1.6978,-1.6978,-1.6978,-1.6978,-1.6978,-1.6978,-1.6978,-1.6978,-1.6978,-1.6978,-1.6978,-1.6978,-1.6978,-1.6978,-1.6978,-1.6978,-1.6978,-1.6978,-1.6978,-1.6978,-1.6978,-1.6978,-1.6978,-1.6978,-1.6978,-1.6978,-1.6978,-1.6978,-1.6978,-1.6978,-1.6978,-1.6978,-1.6978,-1.6978,-1.6978,-1.6978,-1.6978,-1.6978,-1.6978,-1.6978,-1.6978,-1.6978,-1.6978,-1.6978,-1.1619,0.0,0.0,-1.2291,0.0,-1.3057,-1.3424,-1.3634,-1.3619,-1.3926,-1.4014,-1.4122,0.0,0.0,0.0,0.0,0.0,0.0,0.0,0.0,0.0,0.0,0.0,0.0,0.0,0.0,0.0,0.0,0.0,-1.1578,-1.1819,-1.4595,-1.6123,-1.611,-1.609,-1.6083,-1.6083,-1.6083,-1.6083,-1.6083,-1.6083,-1.6123,-1.6191,-1.6191,-1.6232,-1.632,-1.6463,-1.6605,-1.6754,-1.6829,-1.691,-1.6978,-1.6978,-1.6978,-1.6978,-1.6978,-1.6978,-1.6978,-1.6978,-1.6978,-1.6978,-1.6978,-1.6978,-1.6978,-1.6978,-1.6978,-1.6978,-1.6978,-1.6978,-1.6978,-1.6978,-1.6978,-1.6978,-1.6978,-1.6978,-1.6978,-1.6978,-1.6978,-1.6978,-1.6978,-1.6978,-1.6978,-1.6978,-1.6978,-1.6978,-1.6978,-1.6978,-1.6978,-1.6978,-1.6978,-1.6978,-1.6978,-1.6978,-1.6978,-1.6978,-1.6978,-1.6978,-1.6978,-1.6978,-1.6978,-1.6978,-1.6978,-1.6978,-1.6978,-1.6978,-1.6978,-1.6978,-1.6978,-1.6978,-1.6978,-1.6978,-1.6978,-1.1619,-1.1742,-1.2013,-1.2617,-1.2868,0.0,-1.3566,-1.3613,-1.3581,-1.3016,-1.3585,-1.4156,-1.4278,0.0,0.0,0.0,0.0,0.0,0.0,0.0,0.0,0.0,0.0,0.0,0.0,0.0,0.0,0.0,0.0,-0.667,-0.7527,-1.2211,-1.5112,-1.613,-1.6096,-1.6083,-1.609,-1.6083,-1.6083,-1.6083,-1.6083,-1.6164,-1.6307,-1.6334,-1.6361,-1.6402,-1.6646,-1.6768,-1.6802,-1.6931,-1.6978,-1.6978,-1.6978,-1.6978,-1.6978,-1.6978,-1.6978,-1.6978,-1.6978,-1.6978,-1.6978,-1.6978,-1.6978,-1.6978,-1.6978,-1.6978,-1.6978,-1.6978,-1.6978,-1.6978,-1.6978,-1.6978,-1.6978,-1.6978,-1.6978,-1.6978,-1.6978,-1.6978,-1.6978,-1.6978,-1.6978,-1.6978,-1.6978,-1.6978,-1.6978,-1.6978,-1.6978,-1.6978,-1.6978,-1.6978,-1.6978,-1.6978,-1.6978,-1.6978,-1.6978,-1.6978,-1.6978,-1.6978,-1.6978,-1.6978,-1.6978,-1.6978,-1.6978,-1.6978,-1.6978,-1.6978,-1.6978,-1.6978,-1.6978,-1.6978,-1.6978,-1.6978,-1.1619,0.0,-1.2176,0.0,-1.2942,-1.3119,0.0,0.0,-1.2564,0.0,-1.1427,-1.4312,-1.4299,-1.4299,0.0,0.0,0.0,0.0,0.0,0.0,0.0,0.0,0.0,0.0,0.0,0.0,0.0,0.0,-0.0975,-0.295,-0.7725,-0.8599,-1.1263,-1.5931,-1.6096,-1.6096,-1.6123,-1.6096,-1.6083,-1.6083,-1.6083,-1.6164,-1.6313,-1.6435,-1.6564,-1.6693,-1.6734,-1.6829,-1.6951,-1.6971,-1.6978,-1.6978,-1.6978,-1.6978,-1.6978,-1.6978,-1.6978,-1.6978,-1.6978,-1.6978,-1.6978,-1.6978,-1.6978,-1.6978,-1.6978,-1.6978,-1.6978,-1.6978,-1.6978,-1.6978,-1.6978,-1.6978,-1.6978,-1.6978,-1.6978,-1.6978,-1.6978,-1.6978,-1.6978,-1.6978,-1.6978,-1.6978,-1.6978,-1.6978,-1.6978,-1.6978,-1.6978,-1.6978,-1.6978,-1.6978,-1.6978,-1.6978,-1.6978,-1.6978,-1.6978,-1.6978,-1.6978,-1.6978,-1.6978,-1.6978,-1.6978,-1.6978,-1.6978,-1.6978,-1.6978,-1.6978,-1.6978,-1.6978,-1.6978,-1.6978,-1.6978,-1.6978,-1.1823,-1.1965,-1.221,0.0,-1.2963,-1.3125,-1.3579,-1.1618,-0.9239,-0.7474,-1.0942,-1.4216,-1.434,-1.4326,-1.4319,0.0,0.0,0.0,0.0,0.0,0.0,0.0,0.0,0.0,0.0,0.0,0.0,0.0,0.0,-0.0987,-0.3401,-0.926,-1.3547,-1.5998,-1.4089,-1.4071,-1.613,-1.6096,-1.6083,-1.6083,-1.6171,-1.6286,-1.6435,-1.6578,-1.6686,-1.6754,-1.6842,-1.6917,-1.6978,-1.6978,-1.6978,-1.6978,-1.6978,-1.6978,-1.6978,-1.6978,-1.6978,-1.6978,-1.6978,-1.6978,-1.6978,-1.6978,-1.6978,-1.6978,-1.6978,-1.6978,-1.6978,-1.6978,-1.6978,-1.6978,-1.6978,-1.6978,-1.6978,-1.6978,-1.6978,-1.6978,-1.6978,-1.6978,-1.6978,-1.6978,-1.6978,-1.6978,-1.6978,-1.6978,-1.6978,-1.6978,-1.6978,-1.6978,-1.6978,-1.6978,-1.6978,-1.6978,-1.6978,-1.6978,-1.6978,-1.6978,-1.6978,-1.6978,-1.6978,-1.6978,-1.6978,-1.6978,-1.6978,-1.6978,-1.6978,-1.6978,-1.6978,-1.6978,-1.6978,-1.6978,-1.6978,-1.6978,-1.1979,-1.206,-1.2196,-1.2759,-1.2935,-1.3105,0.0,0.0,-0.6792,0.0,-0.896,-1.0973,-1.22,-1.3452,-1.434,-1.4319,-1.4306,0.0,0.0,0.0,0.0,0.0,0.0,0.0,0.0,0.0,0.0,0.0,0.0,0.0,0.0,-1.0314,-1.6051,-1.6051,-1.2089,-1.2063,-1.5964,-1.6117,-1.609,-1.6083,-1.6239,-1.6381,-1.6524,-1.668,-1.6768,-1.6815,-1.6931,-1.6978,-1.6978,-1.6978,-1.6978,-1.6978,-1.6978,-1.6978,-1.6978,-1.6978,-1.6978,-1.6978,-1.6978,-1.6978,-1.6978,-1.6978,-1.6978,-1.6978,-1.6978,-1.6978,-1.6978,-1.6978,-1.6978,-1.6978,-1.6978,-1.6978,-1.6978,-1.6978,-1.6978,-1.6978,-1.6978,-1.6978,-1.6978,-1.6978,-1.6978,-1.6978,-1.6978,-1.6978,-1.6978,-1.6978,-1.6978,-1.6978,-1.6978,-1.6978,-1.6978,-1.6978,-1.6978,-1.6978,-1.6978,-1.6978,-1.6978,-1.6978,-1.6978,-1.6978,-1.6978,-1.6978,-1.6978,-1.6978,-1.6978,-1.6978,-1.6978,-1.6978,-1.6978,-1.6978,-1.6978,-1.6978,-1.1979,-1.206,-1.2169,-1.263,-1.2854,-1.3057,0.0,0.0,-0.6785,-0.7068,-0.3746,-0.2153,-0.6633,-1.1293,-1.4353,-1.4346,-1.4319,-1.4346,-1.4489,0.0,0.0,0.0,0.0,0.0,0.0,0.0,0.0,0.0,0.0,0.0,0.0,-1.0301,-1.6051,-1.6051,-1.0886,-1.0681,-1.6045,-1.6171,-1.6117,-1.6083,-1.6239,-1.6381,-1.6524,-1.668,-1.6829,-1.6971,-1.6978,-1.6978,-1.6978,-1.6978,-1.6978,-1.6978,-1.6978,-1.6978,-1.6978,-1.6978,-1.6978,-1.6978,-1.6978,-1.6978,-1.6978,-1.6978,-1.6978,-1.6978,-1.6978,-1.6978,-1.6978,-1.6978,-1.6978,-1.6978,-1.6978,-1.6978,-1.6978,-1.6978,-1.6978,-1.6978,-1.6978,-1.6978,-1.6978,-1.6978,-1.6978,-1.6978,-1.6978,-1.6978,-1.6978,-1.6978,-1.6978,-1.6978,-1.6978,-1.6978,-1.6978,-1.6978,-1.6978,-1.6978,-1.6978,-1.6978,-1.6978,-1.6978,-1.6978,-1.6978,-1.6978,-1.6978,-1.6978,-1.6978,-1.6978,-1.6978,-1.6978,-1.6978,-1.6978,-1.6978,-1.6978,-1.6978,-1.1979,-1.206,-1.2169,-1.2617,-1.2847,-1.3057,-1.3424,-0.9918,-0.5911,-0.3173,-0.1247,-0.0538,-0.2152,-0.3938,-0.7146,-1.3261,-1.434,-1.4407,-1.4624,-1.4706,0.0,0.0,0.0,0.0,0.0,0.0,0.0,0.0,0.0,0.0,0.0,-0.3633,-0.5858,-0.5858,-0.3825,-0.5429,-1.0891,-1.4313,-1.6144,-1.6157,-1.6354,-1.649,-1.6578,-1.6795,-1.6931,-1.6978,-1.6978,-1.6978,-1.6978,-1.6978,-1.6978,-1.6978,-1.6978,-1.6978,-1.6978,-1.6978,-1.6978,-1.6978,-1.6978,-1.6978,-1.6978,-1.6978,-1.6978,-1.6978,-1.6978,-1.6978,-1.6978,-1.6978,-1.6978,-1.6978,-1.6978,-1.6978,-1.6978,-1.6978,-1.6978,-1.6978,-1.6978,-1.6978,-1.6978,-1.6978,-1.6978,-1.6978,-1.6978,-1.6978,-1.6978,-1.6978,-1.6978,-1.6978,-1.6978,-1.6978,-1.6978,-1.6978,-1.6978,-1.6978,-1.6978,-1.6978,-1.6978,-1.6978,-1.6978,-1.6978,-1.6978,-1.6978,-1.6978,-1.6978,-1.6978,-1.6978,-1.6978,-1.6978,-1.6978,-1.6978,-1.6978,-1.6978,-1.1993,-1.2101,-1.2223,-1.2569,-1.2807,-1.303,-1.3288,-0.9864,-0.5383,-0.0877,0.0,0.0,0.0,0.0,-0.2147,-0.8405,-1.2177,-1.4448,-1.4551,-1.4577,-1.4889,0.0,0.0,0.0,0.0,0.0,0.0,0.0,0.0,0.0,0.0,0.0,0.0,0.0,0.0,-0.1811,-0.5224,-0.8843,-1.2495,-1.6004,-1.5176,-1.5302,-1.681,-1.6863,-1.6978,-1.6978,-1.6978,-1.6978,-1.6978,-1.6978,-1.6978,-1.6978,-1.6978,-1.6978,-1.6978,-1.6978,-1.6978,-1.6978,-1.6978,-1.6978,-1.6978,-1.6978,-1.6978,-1.6978,-1.6978,-1.6978,-1.6978,-1.6978,-1.6978,-1.6978,-1.6978,-1.6978,-1.6978,-1.6978,-1.6978,-1.6978,-1.6978,-1.6978,-1.6978,-1.6978,-1.6978,-1.6978,-1.6978,-1.6978,-1.6978,-1.6978,-1.6978,-1.6978,-1.6978,-1.6978,-1.6978,-1.6978,-1.6978,-1.6978,-1.6978,-1.6978,-1.6978,-1.6978,-1.6978,-1.6978,-1.6978,-1.6978,-1.6978,-1.6978,-1.6978,-1.6978,-1.6978,-1.6978,-1.6978,-1.6978,-1.6978,-1.6978,0.0,0.0,0.0,-1.2467,-1.2732,-1.2969,-1.303,-0.9751,-0.5367,-0.0868,0.0,0.0,0.0,0.0,0.0,0.0,-0.7866,-1.3918,-1.4231,-1.4434,-1.4553,-1.5113,0.0,0.0,0.0,0.0,0.0,0.0,0.0,0.0,0.0,0.0,0.0,0.0,0.0,0.0,0.0,0.0,-0.5231,-1.559,-1.2502,-1.3011,-1.681,-1.6863,-1.6978,-1.6978,-1.6978,-1.6978,-1.6978,-1.6978,-1.6978,-1.6978,-1.6978,-1.6978,-1.6978,-1.6978,-1.6978,-1.6978,-1.6978,-1.6978,-1.6978,-1.6978,-1.6978,-1.6978,-1.6978,-1.6978,-1.6978,-1.6978,-1.6978,-1.6978,-1.6978,-1.6978,-1.6978,-1.6978,-1.6978,-1.6978,-1.6978,-1.6978,-1.6978,-1.6978,-1.6978,-1.6978,-1.6978,-1.6978,-1.6978,-1.6978,-1.6978,-1.6978,-1.6978,-1.6978,-1.6978,-1.6978,-1.6978,-1.6978,-1.6978,-1.6978,-1.6978,-1.6978,-1.6978,-1.6978,-1.6978,-1.6978,-1.6978,-1.6978,-1.6978,-1.6978,-1.6978,-1.6978,-1.6978,-1.6978,-1.6978,-1.6978,-1.2155,0.0,0.0,0.0,0.0,0.0,-1.299,-0.9793,-0.5436,-0.0864,0.0,0.0,0.0,0.0,0.0,0.0,-0.2147,-0.6467,-1.3362,-1.1404,-1.0582,-1.4778,-1.5289,0.0,0.0,0.0,0.0,0.0,0.0,0.0,0.0,0.0,0.0,0.0,0.0,0.0,0.0,0.0,-0.1409,-0.4438,-0.7328,-1.172,-1.6852,-1.6996,-1.6904,-1.6978,-1.6978,-1.6978,-1.6978,-1.6978,-1.6978,-1.6978,-1.6978,-1.6978,-1.6978,-1.6978,-1.6978,-1.6978,-1.6978,-1.6978,-1.6978,-1.6978,-1.6978,-1.6978,-1.6978,-1.6978,-1.6978,-1.6978,-1.6978,-1.6978,-1.6978,-1.6978,-1.6978,-1.6978,-1.6978,-1.6978,-1.6978,-1.6978,-1.6978,-1.6978,-1.6978,-1.6978,-1.6978,-1.6978,-1.6978,-1.6978,-1.6978,-1.6978,-1.6978,-1.6978,-1.6978,-1.6978,-1.6978,-1.6978,-1.6978,-1.6978,-1.6978,-1.6978,-1.6978,-1.6978,-1.6978,-1.6978,-1.6978,-1.6978,-1.6978,-1.6978,-1.6978,-1.6978,-1.6978,-1.6978,-1.6978,-1.6978,0.0,-1.2338,0.0,0.0,0.0,0.0,-1.2829,-1.1123,-0.7635,0.0,0.0,0.0,0.0,0.0,0.0,0.0,0.0,-0.1978,-0.7457,-0.9373,-0.9843,-0.902,-0.8924,-0.649,0.0,0.0,0.0,0.0,0.0,0.0,0.0,0.0,0.0,0.0,0.0,0.0,0.0,0.0,0.0,-0.0,-0.5485,-0.984,-1.3482,-1.5886,-1.6856,-1.6978,-1.6978,-1.6978,-1.6978,-1.6978,-1.6978,-1.6978,-1.6978,-1.6978,-1.6978,-1.6978,-1.6978,-1.6978,-1.6978,-1.6978,-1.6978,-1.6978,-1.6978,-1.6978,-1.6978,-1.6978,-1.6978,-1.6978,-1.6978,-1.6978,-1.6978,-1.6978,-1.6978,-1.6978,-1.6978,-1.6978,-1.6978,-1.6978,-1.6978,-1.6978,-1.6978,-1.6978,-1.6978,-1.6978,-1.6978,-1.6978,-1.6978,-1.6978,-1.6978,-1.6978,-1.6978,-1.6978,-1.6978,-1.6978,-1.6978,-1.6978,-1.6978,-1.6978,-1.6978,-1.6978,-1.6978,-1.6978,-1.6978,-1.6978,-1.6978,-1.6978,-1.6978,-1.6978,-1.6978,-1.6978,-1.6978,-1.6978,0.0,0.0,0.0,0.0,0.0,0.0,-1.2688,-1.2688,-1.0577,0.0,-0.0348,0.0,0.0,0.0,0.0,0.0,0.0,0.0,0.0,-0.7354,-0.9486,-0.0937,0.0,0.0,0.0,0.0,0.0,0.0,0.0,0.0,0.0,0.0,0.0,0.0,0.0,0.0,0.0,0.0,0.0,-0.0,-0.4872,-0.798,-0.9506,-1.4582,-1.6829,-1.6978,-1.6978,-1.6978,-1.6978,-1.6978,-1.6978,-1.6978,-1.6978,-1.6978,-1.6978,-1.6978,-1.6978,-1.6978,-1.6978,-1.6978,-1.6978,-1.6978,-1.6978,-1.6978,-1.6978,-1.6978,-1.6978,-1.6978,-1.6978,-1.6978,-1.6978,-1.6978,-1.6978,-1.6978,-1.6978,-1.6978,-1.6978,-1.6978,-1.6978,-1.6978,-1.6978,-1.6978,-1.6978,-1.6978,-1.6978,-1.6978,-1.6978,-1.6978,-1.6978,-1.6978,-1.6978,-1.6978,-1.6978,-1.6978,-1.6978,-1.6978,-1.6978,-1.6978,-1.6978,-1.6978,-1.6978,-1.6978,-1.6978,-1.6978,-1.6978,-1.6978,-1.6978,-1.6978,-1.6978,-1.6978,-1.6978,-1.6978,0.0,0.0,0.0,0.0,0.0,0.0,-1.2942,-1.1155,-0.8829,-0.5942,-0.2566,0.0,0.0,0.0,0.0,0.0,0.0,0.0,0.0,-0.1635,-0.2019,-0.0186,0.0,0.0,0.0,0.0,0.0,0.0,0.0,0.0,0.0,0.0,0.0,0.0,0.0,0.0,0.0,0.0,0.0,-0.0,-0.1011,-0.632,-1.4953,-1.624,-1.6996,-1.6978,-1.6978,-1.6978,-1.6978,-1.6978,-1.6978,-1.6978,-1.6978,-1.6978,-1.6978,-1.6978,-1.6978,-1.6978,-1.6978,-1.6978,-1.6978,-1.6978,-1.6978,-1.6978,-1.6978,-1.6978,-1.6978,-1.6978,-1.6978,-1.6978,-1.6978,-1.6978,-1.6978,-1.6978,-1.6978,-1.6978,-1.6978,-1.6978,-1.6978,-1.6978,-1.6978,-1.6978,-1.6978,-1.6978,-1.6978,-1.6978,-1.6978,-1.6978,-1.6978,-1.6978,-1.6978,-1.6978,-1.6978,-1.6978,-1.6978,-1.6978,-1.6978,-1.6978,-1.6978,-1.6978,-1.6978,-1.6978,-1.6978,-1.6978,-1.6978,-1.6978,-1.6978,-1.6978,-1.6978,-1.6978,-1.6978,-1.6978,0.0,0.0,0.0,-1.2556,0.0,0.0,0.0,-1.2012,-1.0865,-1.0162,-0.476,0.0,0.0,0.0,0.0,0.0,0.0,0.0,0.0,0.0,0.0,0.0,0.0,0.0,0.0,0.0,0.0,0.0,0.0,0.0,0.0,0.0,0.0,0.0,0.0,0.0,0.0,0.0,0.0,0.0,0.0,-0.2846,-0.8483,-1.4117,-1.6781,-1.7005,-1.7005,-1.6998,-1.6978,-1.6978,-1.6978,-1.6978,-1.6978,-1.6978,-1.6978,-1.6978,-1.6978,-1.6978,-1.6978,-1.6978,-1.6978,-1.6978,-1.6978,-1.6978,-1.6978,-1.6978,-1.6978,-1.6978,-1.6978,-1.6978,-1.6978,-1.6978,-1.6978,-1.6978,-1.6978,-1.6978,-1.6978,-1.6978,-1.6978,-1.6978,-1.6978,-1.6978,-1.6978,-1.6978,-1.6978,-1.6978,-1.6978,-1.6978,-1.6978,-1.6978,-1.6978,-1.6978,-1.6978,-1.6978,-1.6978,-1.6978,-1.6978,-1.6978,-1.6978,-1.6978,-1.6978,-1.6978,-1.6978,-1.6978,-1.6978,-1.6978,-1.6978,-1.6978,-1.6978,-1.6978,-1.6978,-1.6978,0.0,0.0,0.0,0.0,0.0,-1.1427,0.0,0.0,0.0,-1.3378,-0.6944,-0.1024,-0.0173,0.0,0.0,0.0,0.0,0.0,0.0,0.0,0.0,0.0,0.0,0.0,0.0,0.0,0.0,0.0,0.0,0.0,0.0,0.0,0.0,0.0,0.0,0.0,0.0,0.0,0.0,0.0,0.0,0.0,-0.0412,-1.0347,-1.5277,-1.5908,-1.6584,-1.7005,-1.6978,-1.6978,-1.6978,-1.6978,-1.6978,-1.6978,-1.6978,-1.6978,-1.6978,-1.6978,-1.6978,-1.6978,-1.6978,-1.6978,-1.6978,-1.6978,-1.6978,-1.6978,-1.6978,-1.6978,-1.6978,-1.6978,-1.6978,-1.6978,-1.6978,-1.6978,-1.6978,-1.6978,-1.6978,-1.6978,-1.6978,-1.6978,-1.6978,-1.6978,-1.6978,-1.6978,-1.6978,-1.6978,-1.6978,-1.6978,-1.6978,-1.6978,-1.6978,-1.6978,-1.6978,-1.6978,-1.6978,-1.6978,-1.6978,-1.6978,-1.6978,-1.6978,-1.6978,-1.6978,-1.6978,-1.6978,-1.6978,-1.6978,-1.6978,-1.6978,-1.6978,-1.6978,-1.6978,-1.6978,0.0,0.0,0.0,0.0,-0.6956,0.0,0.0,0.0,-1.3478,-1.3372,0.0,-0.4719,-0.0684,0.0,0.0,0.0,0.0,0.0,0.0,0.0,0.0,0.0,0.0,0.0,0.0,0.0,0.0,0.0,0.0,0.0,0.0,0.0,0.0,0.0,0.0,0.0,0.0,0.0,0.0,0.0,0.0,0.0,-0.0204,-0.6586,-1.0381,-1.2147,-1.5438,-1.6985,-1.6978,-1.6978,-1.6978,-1.6978,-1.6978,-1.6978,-1.6978,-1.6978,-1.6978,-1.6978,-1.6978,-1.6978,-1.6978,-1.6978,-1.6978,-1.6978,-1.6978,-1.6978,-1.6978,-1.6978,-1.6978,-1.6978,-1.6978,-1.6978,-1.6978,-1.6978,-1.6978,-1.6978,-1.6978,-1.6978,-1.6978,-1.6978,-1.6978,-1.6978,-1.6978,-1.6978,-1.6978,-1.6978,-1.6978,-1.6978,-1.6978,-1.6978,-1.6978,-1.6978,-1.6978,-1.6978,-1.6978,-1.6978,-1.6978,-1.6978,-1.6978,-1.6978,-1.6978,-1.6978,-1.6978,-1.6978,-1.6978,-1.6978,-1.6978,-1.6978,-1.6978,-1.6978,-1.6978,-1.6978,0.0,0.0,0.0,0.0,0.0,0.0,-0.2637,0.0,-0.7048,0.0,0.0,0.0,0.0,0.0,0.0,0.0,0.0,0.0,0.0,0.0,-0.8297,-0.832,0.0,0.0,0.0,0.0,0.0,0.0,0.0,0.0,0.0,0.0,0.0,0.0,0.0,0.0,0.0,0.0,0.0,0.0,0.0,0.0,-0.0205,-0.9292,-1.3772,-1.4707,-1.6315,-1.6998,-1.6978,-1.6978,-1.6978,-1.6978,-1.6978,-1.6978,-1.6978,-1.6978,-1.6978,-1.6978,-1.6978,-1.6978,-1.6978,-1.6978,-1.6978,-1.6978,-1.6978,-1.6978,-1.6978,-1.6978,-1.6978,-1.6978,-1.6978,-1.6978,-1.6978,-1.6978,-1.6978,-1.6978,-1.6978,-1.6978,-1.6978,-1.6978,-1.6978,-1.6978,-1.6978,-1.6978,-1.6978,-1.6978,-1.6978,-1.6978,-1.6978,-1.6978,-1.6978,-1.6978,-1.6978,-1.6978,-1.6978,-1.6978,-1.6978,-1.6978,-1.6978,-1.6978,-1.6978,-1.6978,-1.6978,-1.6978,-1.6978,-1.6978,-1.6978,-1.6978,-1.6978,-1.6978,-1.6978,-1.6978,0.0,0.0,0.0,0.0,0.0,0.0,0.0,0.0,0.0,0.0,0.0,0.0,0.0,0.0,0.0,0.0,0.0,0.0,0.0,-0.6047,0.0,0.0,0.0,0.0,0.0,0.0,0.0,0.0,0.0,0.0,0.0,0.0,0.0,0.0,0.0,0.0,0.0,0.0,0.0,0.0,0.0,0.0,-0.0204,-0.8469,-1.3985,-1.703,-1.6971,-1.7012,-1.6978,-1.6978,-1.6978,-1.6978,-1.6978,-1.6978,-1.6978,-1.6978,-1.6978,-1.6978,-1.6978,-1.6978,-1.6978,-1.6978,-1.6978,-1.6978,-1.6978,-1.6978,-1.6978,-1.6978,-1.6978,-1.6978,-1.6978,-1.6978,-1.6978,-1.6978,-1.6978,-1.6978,-1.6978,-1.6978,-1.6978,-1.6978,-1.6978,-1.6978,-1.6978,-1.6978,-1.6978,-1.6978,-1.6978,-1.6978,-1.6978,-1.6978,-1.6978,-1.6978,-1.6978,-1.6978,-1.6978,-1.6978,-1.6978,-1.6978,-1.6978,-1.6978,-1.6978,-1.6978,-1.6978,-1.6978,-1.6978,-1.6978,-1.6978,-1.6978,-1.6978,-1.6978,-1.6978,-1.6978,0.0,0.0,0.0,0.0,0.0,0.0,0.0,0.0,-0.0,0.0,0.0,0.0,0.0,0.0,0.0,0.0,0.0,0.0,0.0,-0.0351,-0.3908,0.0,0.0,0.0,0.0,0.0,0.0,0.0,0.0,0.0,0.0,0.0,0.0,0.0,0.0,0.0,0.0,0.0,0.0,0.0,0.0,0.0,-0.0,-0.0411,-0.6619,-1.7092,-1.6924,-1.7012,-1.6978,-1.6978,-1.6978,-1.6978,-1.6978,-1.6978,-1.6978,-1.6978,-1.6978,-1.6978,-1.6978,-1.6978,-1.6978,-1.6978,-1.6978,-1.6978,-1.6978,-1.6978,-1.6978,-1.6978,-1.6978,-1.6978,-1.6978,-1.6978,-1.6978,-1.6978,-1.6978,-1.6978,-1.6978,-1.6978,-1.6978,-1.6978,-1.6978,-1.6978,-1.6978,-1.6978,-1.6978,-1.6978,-1.6978,-1.6978,-1.6978,-1.6978,-1.6978,-1.6978,-1.6978,-1.6978,-1.6978,-1.6978,-1.6978,-1.6978,-1.6978,-1.6978,-1.6978,-1.6978,-1.6978,-1.6978,-1.6978,-1.6978,-1.6978,-1.6978,-1.6978,-1.6978,-1.6978,-1.6978,0.0,0.0,0.0,0.0,0.0,0.0,0.0,0.0,0.0,0.0,0.0,0.0,0.0,0.0,0.0,0.0,0.0,0.0,0.0,0.0,-0.1239,-0.4444,0.0,0.0,0.0,0.0,0.0,0.0,0.0,-0.3011,-0.9651,-0.3644,0.0,0.0,0.0,0.0,0.0,0.0,0.0,0.0,0.0,0.0,0.0,0.0,-0.4132,-1.1601,-1.5413,-1.7012,-1.6978,-1.6978,-1.6978,-1.6978,-1.6978,-1.6978,-1.6978,-1.6978,-1.6978,-1.6978,-1.6978,-1.6978,-1.6978,-1.6978,-1.6978,-1.6978,-1.6978,-1.6978,-1.6978,-1.6978,-1.6978,-1.6978,-1.6978,-1.6978,-1.6978,-1.6978,-1.6978,-1.6978,-1.6978,-1.6978,-1.6978,-1.6978,-1.6978,-1.6978,-1.6978,-1.6978,-1.6978,-1.6978,-1.6978,-1.6978,-1.6978,-1.6978,-1.6978,-1.6978,-1.6978,-1.6978,-1.6978,-1.6978,-1.6978,-1.6978,-1.6978,-1.6978,-1.6978,-1.6978,-1.6978,-1.6978,-1.6978,-1.6978,-1.6978,-1.6978,-1.6978,-1.6978,-1.6978,-1.6978,0.0,0.0,0.0,0.0,0.0,0.0,0.0,0.0,0.0,0.0,0.0,0.0,0.0,0.0,0.0,0.0,0.0,0.0,0.0,0.0,0.0,0.0,-0.5544,-0.6825,-0.0539,0.0,0.0,0.0,0.0,-0.2809,0.0,0.0,-0.3675,-0.0195,0.0,0.0,0.0,0.0,0.0,0.0,0.0,0.0,0.0,0.0,-0.2062,-0.5994,-1.367,-1.6985,-1.6998,-1.6985,-1.6978,-1.6978,-1.6978,-1.6978,-1.6978,-1.6978,-1.6978,-1.6978,-1.6978,-1.6978,-1.6978,-1.6978,-1.6978,-1.6978,-1.6978,-1.6978,-1.7005,-1.7107,-1.706,-1.7005,-1.7107,-1.706,-1.6978,-1.6978,-1.6978,-1.6978,-1.6978,-1.6978,-1.6978,-1.6978,-1.6978,-1.6978,-1.6978,-1.6978,-1.6978,-1.6978,-1.6978,-1.6978,-1.6978,-1.6978,-1.6978,-1.6978,-1.6978,-1.6978,-1.6978,-1.6978,-1.6978,-1.6978,-1.6978,-1.6978,-1.6978,-1.6978,-1.7005,-1.7053,-1.7005,-1.7005,-1.706,-1.7005,-1.6978,-1.6978,-1.6978,-1.6978]}]]